     2              OBSERVATION DATA    GPS                 RINEX VERSION / TYPE
ASRINEXO V2.4.4 UX USGS 06-FEB-98 12:30                     PGM / RUN BY / DATE
                                                            COMMENT
Original Marker Name: law2 LAPW2__3103_9_WBC_1976_USGS      COMMENT
Campaign Name: usgs.landers.pro                             COMMENT
4-Character Station Name: LAW2                              COMMENT
6-Character Antenna Code: DMRCHT                            COMMENT
Vertical Measurement Point: BCR                             COMMENT
Vertical Offset to Rinex Ref. Point: 0.0348                 COMMENT
Radial Measurement Point: ECF                               COMMENT
Radial Offset to Rinex Ref. Point: 0.1897                   COMMENT
Antenna Height from Field Measurement: 1.4290 m             COMMENT
Additional Antenna Identification Info.:                    COMMENT
Turborogue and Ashtech Choke Ring                           COMMENT
Original XYZ: -2357654.3814 -4703274.2780 3595210.9577      COMMENT
New XYZ position is based on association with SCEC monument COMMENT
E1F2J6K4+0011. Position of that monument is believed to be  COMMENT
valid to within 1 m horizontally; vertical accuracy         COMMENT
should be no worse than 3-times this value.                 COMMENT
                                                            COMMENT
Revised Rinex header created by UCSD GPS archive for        COMMENT
GSAC on 11-Nov-1999 (1999:315) 00:54:42 GMT                 COMMENT
For assistance contact dagnew@ucsd.edu or hjohnson@ucsd.edu COMMENT
                                                            COMMENT
LAW2 LAPW2__3103_9_WBC_1976_USGS                            MARKER NAME
JMS US GEOLOGICAL SURVEY                                    OBSERVER / AGENCY
591 ASHTECH Z-XII3 1E95                                     REC # / TYPE / VERS
341 DORNE-MARGOL. TYPE T                                    ANT # / TYPE
 -2357659.0000 -4703278.0000  3595250.0000                  APPROX POSITION XYZ
        1.3816        0.0000        0.0000                  ANTENNA: DELTA H/E/N
     1     1     0                                          WAVELENGTH FACT L1/2
     5    C1    L1    L2    P1    P2                        # / TYPES OF OBSERV
    30                                                      INTERVAL
  1998     1    28    16    30    0.000000                  TIME OF FIRST OBS
  1998     1    28    23    30   30.000000                  TIME OF LAST OBS
                                                            END OF HEADER
 98  1 28 16 30  0.0000000  0  7 22 19  4 18 16 29 14
  21621829.671       43091.96449     30666.74449  21621828.8894   21621833.1024
  23443418.601     -244888.58249   -174307.91049  23443418.4694   23443424.0374
  24912731.750      -38441.57149    -27532.82049  24912731.9454   24912737.3254
  22236881.188     -241123.02149   -154994.62549  22236880.6384   22236884.8214
  20828187.618      -94251.60149    -66554.54849  20828187.1164   20828191.5254
  23878985.053      116390.98749     75127.25049  23878985.0434   23878990.3714
  20820603.511       66339.64649     42904.96949  20820603.3864   20820607.7364
 98  1 28 16 30 30.0000000  0  7 22 19  4 18 16 29 14
  21625232.346       60971.66449     44598.96749  21625231.5944   21625235.6964
  23424717.422     -343160.59349   -250883.49149  23424717.8354   23424723.3274
  24909859.698      -53533.57849    -39292.86149  24909860.1434   24909863.7104
  22218627.422     -337047.81749   -229741.20449  22218626.7854   22218631.2074
  20821163.701     -131163.54449    -95317.11049  20821163.0094   20821167.5744
  23887818.118      162807.33749    111295.76049  23887817.5884   23887822.3374
  20824970.637       89288.15749     60786.90549  20824970.2534   20824974.7804
 98  1 28 16 31  0.0000000  0  7 22 19  4 18 16 29 14
  21628666.301       79017.06649     58660.30849  21628665.5364   21628669.4824
  23405979.088     -441630.29849   -327613.11549  23405979.3684   23405985.6054
  24906998.279      -68568.71449    -51008.59949  24906999.1634   24907005.1654
  22200317.465     -433267.30549   -304717.42149  22200316.7814   22200321.2374
  20814167.303     -167929.87849   -123966.21349  20814166.6624   20814171.2264
  23896606.070      208987.88349    147280.51149  23896606.1844   23896610.9604
  20829360.223      112356.06849     78761.87849  20829360.1444   20829364.6704
 98  1 28 16 31 30.0000000  0  7 22 19  4 18 16 29 14
  21632104.968       97087.48149     72741.14349  21632104.2764   21632108.1044
  23387174.745     -540449.97149   -404615.44149  23387175.0064   23387180.2774
  24904120.874      -83690.77349    -62792.06049  24904121.3664   24904127.0544
  22181925.005     -529919.83849   -380031.07449  22181924.4534   22181928.3994
  20807174.289     -204678.16349   -152601.25149  20807173.7034   20807178.2104
  23905318.624      254772.07249    182956.43349  23905318.5424   23905323.3574
  20833742.879      135387.02249     96708.05349  20833742.8704   20833747.0864
 98  1 28 16 32  0.0000000  0  7 22 19  4 18 16 29 14
  21635544.304      115161.43949     86824.73449  21635543.3754   21635547.7404
  23368293.324     -639673.26549   -481932.27949  23368293.8974   23368299.4774
  24901222.092      -98924.93049    -74662.87549  24901223.2124   24901227.4334
  22163442.638     -627045.13249   -455713.11149  22163442.7584   22163446.2154
  20800178.515     -241441.00749   -181247.63449  20800177.9864   20800182.5694
  23913947.063      300114.87249    218288.41249  23913947.7684   23913951.8164
  20838110.175      158336.99749    114591.13049  20838110.2164   20838114.5024
 98  1 28 16 32 30.0000000  0  7 22 19  4 18 16 29 14
  21638988.907      133263.10149    100929.91549  21638987.9604   21638992.3624
  23349334.146     -739305.25549   -559567.57949  23349334.6624   23349339.8424
  24898304.740     -114255.85249    -86609.06549  24898305.5424   24898310.0564
  22144872.185     -724633.57649   -531756.04749  22144872.0244   22144876.0944
  20793182.974     -278202.86949   -209893.25349  20793182.4494   20793187.1674
  23922493.993      345028.89449    253286.27749  23922494.1924   23922499.1764
  20842464.730      181220.10649    132422.10249  20842464.6424   20842469.2284
 98  1 28 16 33  0.0000000  0  7 22 19  4 18 16 29 14
  21642436.297      151379.51949    115046.59549  21642435.6944   21642439.9784
  23330296.704     -839348.31849   -637523.19849  23330296.6724   23330302.2614
  24895365.163     -129703.67849    -98646.38049  24895365.2974   24895371.3254
  22126215.173     -822677.05949   -608153.56149  22126215.0104   22126218.7934
  20786189.087     -314955.88249   -238531.97649  20786188.6514   20786193.1534
  23930957.373      389504.63649    287942.63149  23930958.2924   23930961.9074
  20846805.351      204030.08649    150196.09049  20846805.4874   20846809.7754
 98  1 28 16 33 30.0000000  0  7 22 19  4 18 16 29 14
  21645895.385      169557.20949    129211.01149  21645894.4894   21645898.7804
  23311193.120     -939738.18449   -715749.06849  23311192.7274   23311198.3724
  24892415.158     -145206.29349   -110726.39349  24892415.2794   24892421.3634
  22107484.867     -921105.46049   -684851.01249  22107484.5774   22107488.5024
  20779209.919     -351631.88149   -267110.69149  20779209.5434   20779214.1534
  23939352.059      433618.88549    322317.31049  23939352.5414   23939357.5314
  20851144.316      226831.37749    167963.30449  20851144.2334   20851148.6154
 98  1 28 16 34  0.0000000  0  7 22 19  4 18 16 29 14
  21649376.167      187848.71749    143464.12049  21649375.3494   21649379.7054
  23292038.033    -1040399.24749   -794186.25649  23292037.8184   23292044.1254
  24889465.951     -160704.70949   -122803.10749  24889467.5404   24889472.5074
  22088692.313    -1019860.79949   -761803.22449  22088691.6374   22088696.0604
  20772252.612     -388192.91049   -295599.81849  20772252.0494   20772256.6844
  23947691.316      477442.20449    356465.28049  23947690.3094   23947696.0864
  20855496.737      249703.41749    185785.64949  20855496.8004   20855501.1494
 98  1 28 16 34 30.0000000  0  7 22 19  4 18 16 29 14
  21652883.260      206278.84049    157825.24549  21652882.5614   21652886.7644
  23272844.494    -1141262.26949   -872780.79649  23272844.9854   23272850.0374
  24886526.168     -176153.99549   -134841.55149  24886526.4564   24886531.4924
  22069847.744    -1118889.65549   -838968.55349  22069847.5524   22069851.3104
  20765324.313     -424601.42749   -323970.10249  20765324.0254   20765328.5964
  23955986.592      521034.48149    390433.21449  23955986.2564   23955991.2374
  20859873.158      272701.45149    203706.17749  20859873.2304   20859877.5604
 98  1 28 16 35  0.0000000  0  7 22 19  4 18 16 29 14
  21656414.631      224836.14649    172285.46449  21656413.6674   21656418.1564
  23253615.861    -1242309.21949   -951518.69149  23253615.9674   23253621.0754
  24883598.841     -191537.34749   -146828.61949  24883599.3134   24883602.3114
  22050953.187    -1218181.28349   -916338.65149  22050953.0734   22050957.2434
  20758427.643     -460844.00449   -352211.08349  20758427.2404   20758431.6684
  23964241.538      564414.49549    424235.76449  23964241.7014   23964246.9994
  20864275.199      295834.22549    221731.68649  20864275.1134   20864279.5914
 98  1 28 16 35 30.0000000  0  7 22 19  4 18 16 29 14
  21659978.990      243566.74749    186880.72949  21659978.3494   21659982.4564
  23234363.266    -1343482.37749  -1030354.91449  23234362.6954   23234368.4844
  24880698.578     -206778.47049   -158704.84349  24880699.5404   24880704.3464
  22032018.634    -1317683.08949   -993872.51549  22032018.2414   22032022.4384
  20751571.542     -496873.17649   -380285.77149  20751571.1964   20751575.6564
  23972466.694      607637.92449    457916.29449  23972466.8974   23972472.1934
  20868714.776      319164.34349    239910.97849  20868714.6194   20868719.0754
 98  1 28 16 36  0.0000000  0  7 22 19  4 18 16 29 14
  21663583.150      262506.67649    201639.10149  21663582.2144   21663586.8034
  23215092.790    -1444749.60749  -1109264.44149  23215092.3664   23215098.2134
  24877830.252     -221851.52049   -170450.12349  24877831.5764   24877836.5594
  22013048.536    -1417371.64149  -1071551.89949  22013048.1844   22013052.0024
  20744762.247     -532656.30649   -408168.74349  20744761.8904   20744766.4824
  23980666.856      650729.63749    491494.19949  23980666.7604   23980672.3074
  20873198.941      342728.70949    258272.79549  20873199.0954   20873203.5494
 98  1 28 16 36 30.0000000  0  7 22 19  4 18 16 29 14
  21667228.280      281661.96049    216565.28349  21667227.7504   21667231.8974
  23195804.970    -1546107.78249  -1188244.84349  23195805.0084   23195810.4204
  24874993.238     -236760.81549   -182067.79149  24874994.1004   24874998.6064
  21994045.097    -1517235.46149  -1149367.85549  21994045.0294   21994048.9654
  20738005.274     -568164.60449   -435837.55949  20738004.8384   20738009.5874
  23988842.092      693690.07349    524969.77949  23988843.0904   23988847.4064
  20877726.706      366521.90049    276812.91549  20877726.7714   20877731.1614
 98  1 28 16 37  0.0000000  0  7 22 19  4 18 16 29 14
  21670922.831      301076.47749    231693.46249  21670922.2134   21670926.3984
  23176501.268    -1647549.22549  -1267290.11449  23176501.3724   23176507.0274
  24872188.566     -251499.64749   -193552.65549  24872188.7324   24872193.8914
  21975013.135    -1617249.15149  -1227300.59249  21975012.9754   21975016.9644
  20731304.082     -603379.72349   -463277.92449  20731303.7274   20731308.3444
  23996994.624      736531.50649    558352.64749  23996994.7764   23997000.7704
  20882300.524      390557.22049    295541.70949  20882300.4644   20882304.9174
 98  1 28 16 37 30.0000000  0  7 22 19  4 18 16 29 14
  21674672.322      320779.91149    247046.77949  21674671.6274   21674675.4394
  23157183.873    -1749063.10149  -1346391.83149  23157183.9754   23157189.4704
  24869413.634     -266082.90249   -204916.26149  24869413.9434   24869419.4334
  21955953.792    -1717406.77649  -1305345.48549  21955953.3404   21955957.6814
  20724659.164     -638299.05649   -490487.80649  20724658.6774   20724663.3404
  24005125.372      779258.61249    591646.40249  24005124.4284   24005130.0844
  20886921.998      414842.87249    314465.56649  20886922.0054   20886926.3664
 98  1 28 16 38  0.0000000  0  7 22 19  4 18 16 29 14
  21678482.571      340802.76149    262648.98549  21678481.9294   21678486.0444
  23137854.634    -1850639.41549  -1425542.20849  23137854.7074   23137860.3884
  24866666.402     -280519.98049   -216165.98749  24866667.3944   24866671.3964
  21936871.033    -1817687.27749  -1383486.12149  21936870.6204   21936874.7664
  20718072.700     -672911.23649   -517458.35249  20718072.1774   20718076.7734
  24013239.407      821897.85049    624871.69149  24013239.0014   24013244.5534
  20891594.335      439396.06749    333597.89649  20891594.2104   20891598.6004
 98  1 28 16 38 30.0000000  0  7 22 19  4 18 16 29 14
  21682352.682      361140.25649    278496.36549  21682351.8904   21682356.2454
  23118511.502    -1952288.47949  -1504749.26549  23118511.2584   23118517.3304
  24863946.057     -294816.03449   -227305.82149  24863946.3584   24863951.7934
  21917767.935    -1918074.71149  -1461710.08649  21917767.4254   21917771.3234
  20711543.510     -707222.39049   -544194.33149  20711543.0574   20711547.6904
  24021335.947      864445.00149    658025.26449  24021336.9054   24021339.7714
  20896314.345      464199.70849    352925.38049  20896314.1434   20896318.7234
 98  1 28 16 39  0.0000000  0  7 22 19  4 18 16 29 14
  21686282.113      381789.45649    294586.63449  21686281.4804   21686285.3074
  23099153.275    -2054016.38449  -1584017.75849  23099152.7294   23099158.5894
  24861257.116     -308946.95849   -238316.98649  24861257.4004   24861262.7554
  21898644.910    -2018566.80349  -1540015.60049  21898644.9544   21898649.0184
  20705070.233     -741239.80949   -570701.42749  20705069.9084   20705074.4654
  24029417.658      906914.23449    691118.10649  24029418.0804   24029423.1504
  20901083.468      489261.68749    372454.16749  20901083.3314   20901088.2574
 98  1 28 16 39 30.0000000  0  7 22 19  4 18 16 29 14
  21690269.251      402741.92349    310913.22049  21690268.8694   21690272.8244
  23079784.943    -2155797.61749  -1663327.79749  23079784.9374   23079790.3774
  24858606.328     -322877.64849   -249172.11749  24858606.3954   24858612.1254
  21879504.550    -2119150.04749  -1618392.14649  21879504.5544   21879508.5784
  20698658.795     -774932.33649   -596955.36349  20698658.3074   20698663.1424
  24037487.733      949322.01949    724163.06049  24037487.5644   24037493.4284
  20905905.556      514601.67149    392199.58049  20905905.5834   20905910.3414
 98  1 28 16 40  0.0000000  0  7 22 19  4 18 16 29 14
  21694309.877      423975.41249    327458.78449  21694309.3824   21694313.4614
  23060404.816    -2257640.87149  -1742686.15449  23060404.0444   23060409.5654
  24855997.871     -336585.20449   -259853.37149  24855996.9414   24856003.6614
  21860347.713    -2219820.11849  -1696836.34049  21860347.6064   21860351.2194
  20692309.072     -808300.46149   -622956.51549  20692308.6134   20692313.2544
  24045544.596      991660.20549    757153.78449  24045545.1164   24045550.4274
  20910779.589      540214.74549    412157.79449  20910779.6384   20910784.1634
 98  1 28 16 40 30.0000000  0  7 22 19  4 18 16 29 14
  21698408.276      445512.48649    344240.90249  21698407.5454   21698411.6124
  23041019.670    -2359510.57449  -1822065.12349  23041020.2144   23041024.7094
  24853441.834     -350017.25949   -270319.95849  24853441.1214   24853446.9284
  21841178.400    -2320555.43949  -1775331.38949  21841178.3374   21841182.4794
  20686030.010     -841297.42649   -648668.45349  20686029.7004   20686034.3794
  24053592.700     1033952.55449    790108.76549  24053593.4344   24053597.7594
  20915708.906      566118.32849    432342.37649  20915709.0664   20915713.4864
 98  1 28 16 41  0.0000000  0  7 22 19  4 18 16 29 14
  21702570.965      467387.48449    361286.34249  21702570.3734   21702574.4724
  23021635.844    -2461373.25949  -1901438.62449  23021635.6334   23021640.7844
  24850941.389     -363157.41949   -280559.08049  24850941.0914   24850947.3034
  21821996.417    -2421357.66649  -1853878.56649  21821996.2664   21822000.6424
  20679825.728     -873901.27749   -674074.06649  20679825.3154   20679829.8624
  24061636.325     1076221.74549    823045.71449  24061636.4464   24061641.6344
  20920699.599      592344.39849    452778.24649  20920699.5914   20920704.2954
 98  1 28 16 41 30.0000000  0  7 22 19  4 18 16 29 14
  21706798.982      489605.71549    378599.23749  21706798.2564   21706802.5654
  23002252.177    -2563235.21949  -1980811.56049  23002252.4924   23002256.6174
  24848488.908     -376044.73349   -290601.19749  24848488.6694   24848493.9144
  21802799.401    -2522238.53349  -1932487.03049  21802799.2964   21802803.1634
  20673693.563     -906126.20049   -699184.41449  20673693.1504   20673697.8034
  24069671.534     1118446.96349    855948.38449  24069671.2734   24069677.0774
  20925746.687      618866.72549    473444.96449  20925746.7174   20925751.4324
 98  1 28 16 42  0.0000000  0  7 22 19  4 18 16 29 14
  21711096.029      512186.65049    396194.75749  21711095.4214   21711099.3664
  22982866.840    -2665105.97249  -2060191.35149  22982867.0424   22982871.9564
  24846082.071     -388692.98549   -300457.02849  24846082.5354   24846086.3824
  21783590.362    -2623182.57449  -2011144.71549  21783590.2744   21783594.0574
  20667634.122     -937968.80549   -723996.85149  20667633.7154   20667638.4334
  24077701.948     1160647.45749    888831.78149  24077701.0644   24077708.8644
  20930851.969      645695.04749    494350.12249  20930851.9434   20930856.7114
 98  1 28 16 42 30.0000000  0  7 22 19  4 18 16 29 14
  21715464.548      535143.03549    414082.83449  21715463.7574   21715468.0844
  22963478.584    -2766992.02649  -2139583.05349  22963478.0254   22963483.8374
  24843717.296     -401120.21249   -310140.64449  24843717.8924   24843722.3454
  21764369.190    -2724190.52549  -2089852.20349  21764369.0514   21764372.9114
  20661647.200     -969430.66649   -748512.60649  20661647.0094   20661651.6064
  24085730.098     1202836.02149    921705.88549  24085729.7164   24085737.1934
  20936013.986      672821.41449    515487.51549  20936013.9494   20936018.5704
 98  1 28 16 43  0.0000000  0  7 22 19  4 18 16 29 14
  21719902.099      558462.41549    432253.77049  21719901.4954   21719905.6004
  22944085.517    -2868903.17549  -2218994.32349  22944085.6204   22944090.2004
  24841391.880     -413340.35849   -319662.89249  24841392.2524   24841398.2964
  21745139.045    -2825245.67849  -2168596.47049  21745138.8644   21745142.9784
  20655731.877    -1000516.03749   -772734.99349  20655731.4154   20655736.2724
  24093757.474     1245019.98849    954576.42749  24093757.1094   24093763.1264
  20941235.156      700258.61549    536867.12349  20941235.2554   20941239.9464
 98  1 28 16 43 30.0000000  0  7 22 19  4 18 16 29 14
  21724406.156      582131.37449    450697.09749  21724405.3974   21724409.7004
  22924689.208    -2970831.54149  -2298419.00149  22924688.4484   22924694.1654
  24839110.261     -425330.65949   -329006.03249  24839110.5024   24839116.1014
  21725906.728    -2926312.34349  -2247349.70649  21725906.4884   21725910.6644
  20649894.466    -1031191.78449   -796638.19149  20649894.0064   20649898.7304
  24101787.198     1287216.82249    987456.99849  24101787.2004   24101793.8704
  20946516.777      728013.57549    558494.33649  20946516.9684   20946521.3964
 98  1 28 16 44  0.0000000  0  7 22 19  4 18 16 29 14
  21728973.799      606134.26449    469400.62949  21728973.0354   21728977.2534
  22905294.026    -3072753.70149  -2377838.85049  22905294.0654   22905298.7964
  24836879.517     -437053.20349   -338140.54449  24836880.3464   24836885.0924
  21706674.624    -3027377.99549  -2326102.15849  21706674.5924   21706678.6144
  20644142.142    -1061420.59949   -820193.13349  20644141.7684   20644146.3614
  24109821.594     1329437.26849   1020355.98549  24109821.9384   24109828.0024
  20951864.043      756113.47349    580390.33049  20951863.9764   20951868.6514
 98  1 28 16 44 30.0000000  0  7 22 19  4 18 16 29 14
  21733597.460      630431.69849    488333.67949  21733596.7644   21733600.9574
  22885898.532    -3174677.72749  -2457260.15149  22885898.2124   22885903.8874
  24834695.840     -448529.06549   -347082.81849  24834695.8784   24834702.1974
  21687435.556    -3128480.17449  -2404883.06949  21687435.4114   21687439.6434
  20638468.916    -1091233.79249   -843424.21749  20638468.6154   20638473.2234
  24117850.949     1371630.99649   1053234.14249  24117851.2494   24117857.5884
  20957269.171      784517.50549    602523.30949  20957269.2644   20957274.0324
 98  1 28 16 45  0.0000000  0  7 22 19  4 18 16 29 14
  21738287.184      655076.13749    507537.11849  21738286.5674   21738290.8564
  22866517.103    -3276528.05549  -2536624.03649  22866517.1704   22866522.4914
  24832570.412     -459697.69749   -355785.71649  24832571.3094   24832577.1794
  21668200.539    -3229560.42849  -2483646.89849  21668200.1274   21668204.2214
  20632888.352    -1120559.85349   -866275.71349  20632888.0394   20632892.9404
  24125884.157     1413845.13549   1086128.21249  24125884.4884   24125891.1134
  20962745.407      813294.98549    624947.28949  20962745.3634   20962750.0704
 98  1 28 16 45 30.0000000  0  7 22 19  4 18 16 29 14
  21743046.098      680084.52949    527024.15749  21743045.1734   21743049.7064
  22847151.921    -3378292.60749  -2615921.07349  22847152.0164   22847157.0664
  24830504.214     -470556.22649   -364246.96949  24830504.6294   24830509.8144
  21648967.824    -3330628.97449  -2562401.60249  21648967.5424   21648971.4774
  20627400.829    -1149397.06149   -888746.28749  20627400.4884   20627405.0814
  24133916.581     1456054.66949   1119018.68749  24133917.2174   24133922.6864
  20968290.696      842435.70949    647654.31449  20968290.6244   20968295.4784
 98  1 28 16 46  0.0000000  0  7 22 19  4 18 16 29 14
  21747885.945      705518.07849    546842.48149  21747885.0224   21747889.6564
  22827811.313    -3479927.96749  -2695117.44049  22827810.9354   22827816.8134
  24828501.447     -481081.20049   -372448.29649  24828501.5064   24828507.5984
  21629743.845    -3431651.68049  -2641120.59549  21629743.6204   21629747.7224
  20622006.721    -1177743.56049   -910834.49149  20622006.3224   20622011.0824
  24141955.441     1498298.19549   1151935.62449  24141956.4214   24141961.5334
  20973912.548      871978.48849    670674.62749  20973912.3934   20973917.0804
 98  1 28 16 46 30.0000000  0  7 22 19  4 18 16 29 14
  21752809.139      731389.70549    567002.17449  21752808.3344   21752812.7454
  22808490.173    -3581460.97849  -2774234.05849  22808489.9714   22808495.3464
  24826554.526     -491312.34649   -380420.69249  24826554.9844   24826560.6194
  21610530.216    -3532620.07749  -2719797.26149  21610529.9814   21610533.8574
  20616697.297    -1205644.83349   -932575.76349  20616696.9084   20616701.6324
  24149999.027     1540566.79349   1184872.09949  24150000.2734   24150006.3304
  20979605.407      901894.56749    693985.82649  20979605.3314   20979610.0294
 98  1 28 16 47  0.0000000  0  7 22 19  4 18 16 29 14
  21757815.067      757696.02949    587500.57749  21757814.5984   21757819.1324
  22789185.392    -3682908.32949  -2853283.92749  22789184.9864   22789190.5994
  24824662.240     -501257.17349   -388169.97049  24824663.5334   24824668.5544
  21591325.238    -3633543.18149  -2798438.64349  21591325.1274   21591329.2664
  20611469.887    -1233115.07649   -953981.17249  20611469.4874   20611474.2764
  24158046.116     1582853.85649   1217822.94149  24158047.0324   24158051.8184
  20985366.833      932170.94949    717577.77549  20985366.9534   20985371.4554
 98  1 28 16 47 30.0000000  0  7 22 19  4 18 16 29 14
  21762904.886      784443.06449    608342.39749  21762904.1754   21762908.9304
  22769899.024    -3784258.98549  -2932258.45349  22769898.7374   22769904.6194
  24822827.575     -510898.36349   -395682.65949  24822828.6834   24822833.3514
  21572132.732    -3734400.52449  -2877028.77949  21572132.5934   21572136.5754
  20606322.729    -1260163.92849   -975058.22549  20606322.4404   20606327.0814
  24166101.779     1625186.22749   1250809.07949  24166101.4964   24166107.3484
  20991197.251      962809.68949    741452.08349  20991197.2574   20991202.0184
 98  1 28 16 48  0.0000000  0  7 22 19  4 18 16 29 14
  21768074.276      811608.27249    629510.06649  21768073.7664   21768078.0744
  22750628.015    -3885528.90049  -3011170.05349  22750627.4784   22750633.2894
  24821048.817     -520246.72049   -402967.16949  24821049.2654   24821054.6884
  21552951.688    -3835197.69149  -2955572.02449  21552951.4224   21552955.2174
  20601252.582    -1286807.95749   -995819.82849  20601252.3204   20601256.8684
  24174169.191     1667580.45749   1283843.42849  24174169.4814   24174175.5094
  20997093.407      993793.82449    765595.53049  20997093.4854   20997098.1234
 98  1 28 16 48 30.0000000  0  7 22 19  4 18 16 29 14
  21773314.681      839146.40349    650968.32449  21773314.3484   21773318.4104
  22731368.093    -3986740.45049  -3090036.18649  22731367.7924   22731373.3204
  24819326.486     -529298.03949   -410020.20649  24819327.1974   24819331.7344
  21533777.635    -3935957.94649  -3034086.50149  21533777.4164   21533781.6704
  20596262.163    -1313032.97049  -1016254.93049  20596261.8854   20596266.5834
  24182244.723     1710016.76949   1316910.57549  24182244.2114   24182251.0414
  21003050.334     1025097.55949    789988.01949  21003050.2714   21003055.0324
 98  1 28 16 49  0.0000000  0  7 22 19  4 18 16 29 14
  21778624.377      867048.77749    672710.40649  21778623.7924   21778628.2904
  22712123.935    -4087869.36349  -3168837.92849  22712123.8444   22712129.3584
  24817666.718     -538019.47049   -416816.20349  24817667.0674   24817673.2594
  21514609.740    -4036686.05649  -3112575.93649  21514609.5864   21514613.7154
  20591359.287    -1338797.85349  -1036331.48849  20591358.9594   20591363.5544
  24190333.083     1752521.55249   1350031.07349  24190333.8704   24190338.2794
  21009073.357     1056748.60349    814651.12749  21009073.5214   21009078.4064
 98  1 28 16 49 30.0000000  0  7 22 19  4 18 16 29 14
  21784004.310      895320.15749    694740.02749  21784003.4784   21784008.0744
  22692897.926    -4188902.77749  -3247565.24049  22692897.8544   22692903.2414
  24816070.705     -546406.95649   -423351.96949  24816070.9124   24816076.6674
  21495453.173    -4137354.80949  -3191019.11549  21495452.5484   21495456.8004
  20586548.631    -1364078.04249  -1056030.35649  20586548.3094   20586553.0244
  24198439.376     1795120.15749   1383224.69449  24198438.9994   24198445.0424
  21015166.487     1088768.04549    839601.31249  21015166.5034   21015171.3604
 98  1 28 16 50  0.0000000  0  8 22  3 19  4 18 16 29 14
  21789451.744      923946.53749    717046.26949  21789451.1274   21789455.1534
  24734645.265    -4204118.62049  -3263221.62849  24734644.0724   24734651.5694
  22673688.017    -4289851.39949  -3326226.49449  22673687.7234   22673693.0784
  24814536.147     -554472.04749   -429636.53449  24814536.4544   24814542.4414
  21476306.550    -4237970.69349  -3269421.10749  21476306.2134   21476310.4804
  20581831.971    -1388864.52049  -1075344.52549  20581831.5554   20581836.4534
  24206560.597     1837797.36349   1416479.55549  24206560.8874   24206567.2384
  21021327.874     1121146.11749    864830.93549  21021328.1074   21021332.7484
 98  1 28 16 50 30.0000000  0  8 22  3 19  4 18 16 29 14
  21794962.485      952905.49749    739611.66849  21794961.7624   21794966.2614
  24714950.061    -4307616.60449  -3343869.36649  24714949.2074   24714954.9824
  22654491.268    -4390730.83749  -3404833.82849  22654491.0524   22654496.7794
  24813058.179     -562239.44849   -435689.11749  24813058.0874   24813063.6744
  21457167.347    -4338548.05349  -3347793.07349  21457167.2224   21457171.3144
  20577206.239    -1413173.08349  -1094286.28349  20577205.9074   20577210.5914
  24214692.015     1880528.20849   1449776.22949  24214692.9974   24214697.3574
  21027556.040     1153875.16149    890334.05649  21027556.0864   21027560.8344
 98  1 28 16 51  0.0000000  0  8 22  3 19  4 18 16 29 14
  21800544.780      982240.52249    762470.10049  21800543.9274   21800548.6824
  24695256.578    -4411105.92649  -3424510.34249  24695255.9004   24695262.1724
  22635313.111    -4491512.77549  -3483365.18349  22635312.6694   22635318.1504
  24811639.002     -569697.65549   -441500.78849  24811639.5594   24811645.1464
  21438042.452    -4439049.97349  -3426106.25949  21438042.3224   21438046.1814
  20572675.211    -1436984.06549  -1112840.32049  20572674.8444   20572679.6294
  24222838.796     1923339.91749   1483135.92349  24222837.9984   24222845.4734
  21033858.446     1186994.27649    916141.12149  21033858.5034   21033863.3554
 98  1 28 16 51 30.0000000  0  8 22  3 19  4 18 16 29 14
  21806205.556     1011988.28949    785650.15549  21806204.9084   21806209.1574
  24675571.154    -4514553.02049  -3505118.45349  24675569.5494   24675576.8584
  22616157.550    -4592175.96349  -3561804.01249  22616157.7604   22616162.5924
  24810281.223     -576832.85149   -447060.75149  24810281.8294   24810287.1544
  21418938.997    -4539439.37449  -3504331.76749  21418938.8274   21418942.9174
  20568242.027    -1460281.02249  -1130993.81649  20568241.6934   20568246.4194
  24231005.151     1966254.48149   1516575.72549  24231004.9144   24231013.2714
  21040239.004     1220524.18649    942268.28749  21040238.9864   21040243.7904
 98  1 28 16 51 59.9990000  0  8 22  3 19  4 18 16 29 14
  21811936.561     1042104.52049    809117.32149  21811936.3414   21811940.3554
  24655882.558    -4618016.63949  -3585739.42949  24655882.1184   24655889.3874
  22597015.249    -4692769.74649  -3640188.76349  22597015.1424   22597021.0024
  24808975.632     -583693.75849   -452406.97649  24808975.9934   24808982.5174
  21399847.741    -4639764.90649  -3582507.51149  21399847.4444   21399851.5184
  20563897.890    -1483109.64849  -1148782.38049  20563897.4604   20563902.2244
  24239181.689     2009222.40049   1550057.13549  24239180.8844   24239187.1714
  21046689.293     1254420.62449    968681.06149  21046689.4404   21046694.1894
 98  1 28 16 52 29.9990000  0  7 22  3 19 18 16 29 14
  21817751.530     1072662.11749    832928.41249  21817750.4864   21817755.4374
  24636200.485    -4721445.81349  -3666333.55649  24636199.8744   24636207.1824
  22577895.549    -4793244.51549  -3718480.77249  22577895.4284   22577900.7154
  21380777.227    -4739981.13349  -3660598.07849  21380777.0164   21380781.0364
  20559654.511    -1505408.90649  -1166158.44649  20559654.0784   20559658.8324
  24247378.624     2052297.32349   1583621.90649  24247379.4294   24247385.2194
  21053223.783     1288759.07949    995438.25949  21053223.8364   21053228.4934
 98  1 28 16 52 59.9990000  0  7 22  3 19 18 16 29 14
  21823649.939     1103658.20949    857081.18849  21823649.4424   21823653.7664
  24616525.465    -4824837.75649  -3746898.67949  24616525.1544   24616530.7474
  22558798.981    -4893597.70549  -3796678.03549  22558799.3084   22558804.2654
  21361728.769    -4840081.40449  -3738598.28649  21361728.6534   21361732.6994
  20555512.800    -1527173.80049  -1183118.12549  20555512.3254   20555517.2944
  24255595.029     2095473.89249   1617265.87449  24255595.4514   24255600.3964
  21059840.863     1323531.90849   1022533.93149  21059840.9454   21059845.7044
 98  1 28 16 53 29.9990000  0  7 22  3 19 18 16 29 14
  21829630.865     1135087.85949    881571.80149  21829630.1224   21829634.4964
  24596854.104    -4928211.04249  -3827449.24249  24596852.9234   24596859.7914
  22539727.036    -4993821.47049  -3874774.44549  22539726.7524   22539731.9964
  21342703.144    -4940062.08349  -3816505.30949  21342703.0444   21342706.8634
  20551472.228    -1548407.28149  -1199663.71749  20551471.8424   20551476.6564
  24263830.395     2138749.61249   1650987.12049  24263831.8894   24263836.4514
  21066538.641     1358728.75649   1049960.00849  21066538.7894   21066543.5024
 98  1 28 16 53 59.9990000  0  7 22  3 19 18 16 29 14
  21835687.583     1166916.20049    906373.07949  21835686.9194   21835691.1664
  24577181.824    -5031588.88549  -3908003.35749  24577179.7624   24577188.7484
  22520676.091    -5093934.79149  -3952784.80549  22520676.0204   22520680.7454
  21323695.094    -5039950.10749  -3894340.13049  21323695.0334   21323699.0994
  20547527.105    -1569139.20649  -1215818.48549  20547526.7534   20547531.6044
  24272077.322     2182086.25549   1684755.83549  24272078.7304   24272083.3954
  21073312.007     1394322.65349   1077695.46949  21073311.9404   21073316.7524
 98  1 28 16 54 29.9990000  0  7 22  3 19 18 16 29 14
  21841820.324     1199143.83349    931485.49749  21841819.5934   21841823.6964
  24557514.063    -5134943.31149  -3988539.21749  24557513.0474   24557520.8224
  22501650.349    -5193915.73049  -4030691.99449  22501650.9214   22501655.4154
  21304709.085    -5139722.48449  -3972084.83449  21304708.9974   21304712.8684
  20543678.010    -1589366.66349  -1231580.16049  20543677.5984   20543682.4974
  24280338.985     2225499.46249   1718584.20149  24280340.2904   24280345.4224
  21080161.275     1430315.55249   1105741.84749  21080161.2684   21080166.1824
 98  1 28 16 54 59.9990000  0  7 22  3 19 18 16 29 14
  21848023.492     1231741.62049    956886.34849  21848022.7194   21848027.1444
  24537845.838    -5238300.41149  -4069077.16249  24537845.6734   24537851.4344
  22482645.353    -5293787.67249  -4108514.25849  22482644.9494   22482649.9004
  21285741.024    -5239400.41849  -4049755.94449  21285740.6484   21285744.6374
  20539917.531    -1609128.21549  -1246978.79249  20539917.2114   20539921.9254
  24288612.176     2268973.95949   1752460.32949  24288613.0934   24288618.6764
  21087077.802     1466661.93049   1134063.66449  21087077.8704   21087082.6544
 98  1 28 16 55 29.9990000  0  7 22  3 19 18 16 29 14
  21854310.234     1264778.28549    982629.18149  21854309.3364   21854313.8454
  24518190.956    -5341588.15049  -4149561.03449  24518191.3394   24518196.2244
  22463670.515    -5393501.18349  -4186213.06649  22463670.2154   22463675.7714
  21266801.391    -5338929.17849  -4127310.81649  21266801.0504   21266804.9944
  20536255.464    -1628372.79449  -1261974.58849  20536254.9474   20536259.8974
  24296908.361     2312569.35449   1786430.67149  24296908.8904   24296914.3914
  21094070.799     1503410.00149   1162698.48549  21094070.9194   21094075.6494
 98  1 28 16 55 59.9990000  0  7 22  3 19 18 16 29 14
  21860675.234     1298226.34449   1008692.57649  21860674.3804   21860678.6284
  24498548.641    -5444809.96749  -4229993.54349  24498548.2784   24498555.0594
  22444719.974    -5493087.01849  -4263812.38849  22444719.7944   22444725.1764
  21247885.368    -5438333.57149  -4204768.77949  21247885.0754   21247889.2534
  20532686.971    -1647125.54349  -1276587.14049  20532686.4874   20532691.3834
  24305223.936     2356266.63049   1820480.38149  24305225.1334   24305229.4184
  21101134.448     1540529.63049   1191622.83549  21101134.4494   21101139.0404
 98  1 28 16 56 29.9990000  0  7 22  3 19 18 16 29 14
  21867127.781     1332134.63849   1035114.59849  21867127.0834   21867131.6694
  24478926.712    -5547924.79849  -4310342.68149  24478926.2324   24478933.0534
  22425801.255    -5592505.54249  -4341281.33449  22425801.4814   22425806.4034
  21229000.177    -5537575.97249  -4282100.51849  21228999.9194   21229003.9754
  20529222.341    -1665332.45449  -1290774.36649  20529221.8154   20529226.6934
  24313567.345     2400110.49549   1854644.31949  24313567.9074   24313573.1974
  21108274.432     1578050.30849   1220859.68849  21108274.6064   21108279.4794
 98  1 28 16 56 59.9990000  0  7 22  3 19 18 16 29 14
  21873665.593     1366490.90049   1061885.69349  21873664.7174   21873669.2784
  24459322.806    -5650944.78749  -4390617.90149  24459322.6234   24459329.1864
  22406910.775    -5691775.79249  -4418634.76049  22406910.1494   22406915.3794
  21210141.420    -5636679.49349  -4359324.03749  21210141.1154   21210145.3824
  20525858.540    -1683009.48949  -1304548.70149  20525858.1144   20525862.9634
  24321933.404     2444074.01649   1888901.50149  24321934.1854   24321939.3034
  21115485.083     1615942.22449   1250385.81849  21115485.0644   21115489.7334
 98  1 28 16 57 29.9990000  0  7 22  3 19 18 16 29 14
  21880274.080     1401218.53349   1088946.15749  21880273.5524   21880277.8344
  24439728.192    -5753915.29349  -4470854.57449  24439727.5894   24439734.8304
  22388038.096    -5790952.35149  -4495915.16749  22388037.5244   22388042.5984
  21191299.746    -5735693.11149  -4436477.50349  21191299.5494   21191303.4334
  20522585.322    -1700210.45349  -1317952.07249  20522584.8904   20522589.7574
  24330309.444     2488089.82149   1923199.42049  24330309.3974   24330314.9534
  21122754.806     1654144.60949   1280153.86849  21122754.7314   21122759.5214
 98  1 28 16 57 59.9990000  0  7 22  3 19 18 16 29 14
  21886963.703     1436372.38049   1116338.74849  21886963.1814   21886967.8244
  24420157.922    -5856757.89049  -4550991.59749  24420157.8574   24420164.0514
  22369201.504    -5889939.24749  -4573047.78849  22369200.9644   22369206.4094
  21172490.144    -5834538.32349  -4513499.74649  21172489.7904   21172493.8824
  20519417.487    -1716857.60749  -1330923.89849  20519416.9534   20519421.8254
  24338708.931     2532229.49249   1957593.86649  24338708.9524   24338714.6924
  21130099.772     1692742.57049   1310230.16749  21130099.5864   21130104.5544
 98  1 28 16 58 29.9990000  0  7 22  3 19 18 16 29 14
  21893729.609     1471927.36949   1144043.91449  21893728.9574   21893733.2514
  24400608.530    -5959491.29449  -4631043.52749  24400608.4204   24400614.0554
  22350396.760    -5988758.64149  -4650049.89749  22350396.2434   22350401.4384
  21153709.944    -5933228.92749  -4590401.51049  21153709.7114   21153713.7114
  20516351.811    -1732967.99649  -1343477.46849  20516351.3654   20516356.2114
  24347128.578     2576474.99749   1992070.79249  24347127.6944   24347132.2844
  21137517.007     1731720.16749   1340602.27949  21137516.9624   21137521.8224
 98  1 28 16 58 59.9990000  0  7 22  3 19 18 16 29 14
  21900566.218     1507853.82549   1172038.53749  21900565.3344   21900570.0244
  24381078.740    -6062121.22349  -4711014.81249  24381078.6204   24381085.1964
  22331620.405    -6087428.72349  -4726935.64949  22331619.7014   22331625.4364
  21134958.997    -6031765.74649  -4667183.44249  21134958.7434   21134962.7044
  20513382.797    -1748570.36249  -1355635.17549  20513382.3414   20513387.1714
  24355565.261     2620809.68149   2026617.19849  24355565.0534   24355570.7864
  21145004.878     1771068.96549   1371263.64149  21145004.6684   21145009.4854
 98  1 28 16 59 29.9990000  0  7 22  3 19 18 16 29 14
  21907466.824     1544116.45449   1200295.11049  21907466.1074   21907470.7264
  24361561.185    -6164686.81549  -4790935.98549  24361560.6624   24361567.1194
  22312865.153    -6185987.90649  -4803734.99149  22312864.6854   22312869.8104
  21116230.170    -6130186.42749  -4743874.88349  21116229.8984   21116234.1994
  20510504.448    -1763696.39349  -1367421.71749  20510504.0344   20510508.8284
  24364013.298     2665204.72349   2061210.63649  24364012.8154   24364019.4174
  21152560.429     1810773.77449   1402202.41149  21152560.3074   21152565.2364
 98  1 28 16 59 59.9990000  0  7 22  3 19 18 16 29 14
  21914430.563     1580711.09549   1228810.40049  21914429.6864   21914434.0734
  24342052.285    -6267206.50749  -4870821.38049  24342051.4584   24342057.5474
  22294126.411    -6284460.57149  -4880466.91749  22294126.3374   22294131.6904
  21097519.411    -6228512.25949  -4820492.40449  21097519.2514   21097522.9834
  20507715.558    -1778352.34049  -1378841.94849  20507715.0344   20507719.9644
  24372473.209     2709662.46249   2095852.93449  24372472.4784   24372477.5014
  21160185.190     1850842.14749   1433424.48449  21160184.7794   21160189.9854
 98  1 28 17  0 29.9990000  0  7 22  3 19 18 16 29 14
  21921476.004     1617735.18849   1257660.32349  21921475.5584   21921479.6524
  24322568.099    -6369595.88049  -4950605.24949  24322567.7374   24322573.2774
  22275417.456    -6382776.77949  -4957076.93749  22275417.4894   22275422.4524
  21078845.180    -6326646.01649  -4896960.26649  21078844.9394   21078848.9944
  20505032.757    -1792450.54749  -1389827.58749  20505032.2824   20505036.9784
  24380963.469     2754280.18349   2130619.88049  24380961.5224   24380970.8944
  21167894.482     1891354.60349   1464992.58749  21167894.4824   21167899.7004
 98  1 28 17  0 59.9990000  0  7 22  3 19 18 16 29 14
  21928596.701     1655154.80049   1286818.44749  21928595.6894   21928600.0694
  24303099.400    -6471903.74749  -5030325.59449  24303098.8254   24303104.5624
  22256733.007    -6480964.15649  -5033586.56049  22256732.8044   22256738.0274
  21060199.398    -6424630.44449  -4973311.76049  21060198.9284   21060203.0474
  20502450.946    -1806018.17149  -1400399.77949  20502450.4394   20502455.3624
  24389475.558     2799012.70049   2165476.27949  24389476.1074   24389481.6184
  21175679.101     1932262.67149   1496868.96549  21175679.1924   21175684.1314
 98  1 28 17  1 29.9990000  0  7 22  3 19 18 16 29 14
  21935792.909     1692971.06249   1316285.65049  21935792.1174   21935796.8214
  24283645.917    -6574131.99649  -5109983.90149  24283644.3034   24283651.0094
  22238074.596    -6579014.95449  -5109989.75849  22238074.5614   22238079.1974
  21041581.891    -6522466.00349  -5049547.25549  21041581.6364   21041585.8104
  20499973.130    -1819039.12949  -1410545.99749  20499972.7744   20499977.6374
  24398011.843     2843871.78349   2200431.31249  24398012.5174   24398018.7644
  21183539.558     1973569.47849   1529056.04849  21183539.3614   21183544.2534
 98  1 28 17  1 59.9990000  0  7 22  3 19 18 16 29 14
  21943060.667     1731163.23149   1346045.77249  21943059.5664   21943064.3894
  24264206.797    -6676284.50249  -5189583.18249  24264206.3004   24264212.6254
  22219440.375    -6676938.37449  -5186293.70249  22219440.0324   22219445.2364
  21022993.246    -6620150.16049  -5125664.77649  21022992.8254   21022996.9314
  20497596.083    -1831530.84349  -1420279.81949  20497595.6604   20497600.5554
  24406568.294     2888835.88249   2235468.17849  24406569.4344   24406574.3534
  21191468.947     2015238.69949   1561525.53249  21191468.9014   21191474.0574
 98  1 28 17  2 29.9990000  0  7 22  3 19 18 16 29 14
  21950400.824     1769735.96249   1376102.43249  21950400.1044   21950404.5824
  24244785.957    -6778340.62449  -5269107.36349  24244785.5644   24244790.9094
  22200836.477    -6774702.77849  -5262473.73449  22200836.4114   22200841.4864
  21004439.024    -6717653.31949  -5201641.25649  21004438.6104   21004442.8424
  20495321.779    -1843482.58049  -1429592.88049  20495321.3744   20495326.3044
  24415144.454     2933903.41949   2270585.65349  24415145.2374   24415151.5624
  21199465.338     2057259.66149   1594269.09749  21199465.2664   21199470.1004
 98  1 28 17  2 59.9990000  0  7 22  3 19 18 16 29 14
  21957813.456     1808689.38449   1406455.73549  21957812.5934   21957817.3874
  24225384.523    -6880294.47649  -5348551.85149  24225383.7464   24225388.0254
  22182264.609    -6872298.58349  -5338522.39649  22182263.9984   22182269.3874
  20985917.508    -6814984.47649  -5277483.70449  20985917.1324   20985921.0574
  20493150.057    -1854895.16749  -1438485.81949  20493149.6484   20493154.5374
  24423740.223     2979073.36449   2305782.92849  24423739.9274   24423747.3244
  21207529.347     2099635.98149   1627289.56649  21207529.2034   21207534.2624
 98  1 28 17  3 29.9990000  0  6 22  3 19 18 16 14
  21965299.940     1848030.91949   1437111.46049  21965299.2504   21965303.5794
  24206007.881    -6982118.24149  -5427894.96349  24206007.4404   24206015.0984
  22163723.369    -6969733.26649  -5414445.50849  22163723.1544   22163728.0184
  20967431.971    -6912126.48649  -5353178.77149  20967431.5994   20967435.5504
  20491078.344    -1865782.35749  -1446969.36349  20491077.9024   20491082.9044
  21215664.721     2142387.44649   1660602.35349  21215664.4914   21215669.4654
 98  1 28 17  3 59.9990000  0  6 22  3 19 18 16 14
  21972863.193     1887775.94649   1468081.60649  21972862.7444   21972866.8034
  24186656.210    -7083811.33849  -5507136.27449  24186653.3184   24186662.8654
  22145213.182    -7067004.84649  -5490241.51549  22145212.8284   22145218.1994
  20948983.639    -7009073.03249  -5428721.51749  20948983.3614   20948987.3264
  20489104.394    -1876155.77149  -1455052.55549  20489103.9484   20489108.8154
  21223873.079     2185522.52049   1694214.06249  21223872.8394   21223878.0374
 98  1 28 17  4 29.9990000  0  6 22  3 19 18 16 14
  21980500.127     1927908.23549   1499353.51549  21980499.5674   21980503.5654
  24167323.884    -7185402.38449  -5586298.02649  24167322.6714   24167329.2674
  22126731.024    -7164129.23649  -5565922.83249  22126730.7134   22126735.9484
  20930565.709    -7105859.89849  -5504139.84549  20930565.2814   20930569.4204
  20487224.789    -1886033.35449  -1462749.39349  20487224.2204   20487229.1254
  21232152.732     2229032.18149   1728117.65149  21232152.7174   21232157.5854
 98  1 28 17  4 59.9990000  0  6 22  3 19 18 16 14
  21988210.716     1968427.48449   1530926.94549  21988209.7794   21988214.2064
  24148011.348    -7286890.31449  -5665379.43849  24148010.7004   24148016.0034
  22108273.999    -7261121.55349  -5641501.23649  22108273.4814   22108278.7634
  20912176.151    -7202497.45849  -5579441.82649  20912175.9824   20912179.9744
  20485437.677    -1895424.50249  -1470067.18849  20485437.0974   20485441.9764
  21240503.369     2272914.72749   1762311.80249  21240503.3464   21240508.3184
 98  1 28 17  5 29.9990000  0  6 22  3 19 18 16 14
  21995991.005     2009313.00149   1562785.78049  21995990.4434   21995994.4844
  24128720.883    -7388262.07849  -5744370.31449  24128719.0554   24128726.5124
  22089842.279    -7357980.40749  -5716975.64349  22089842.3004   22089846.8504
  20893817.627    -7298971.99549  -5654616.77149  20893817.2914   20893821.2434
  20483745.128    -1904319.01349  -1476997.99449  20483744.5894   20483749.6104
  21248923.310     2317161.70149   1796789.92549  21248923.1974   21248928.1494
 98  1 28 17  5 59.9990000  0  6 22  3 19 18 16 14
  22003841.611     2050568.19149   1594932.66449  22003840.5384   22003845.3424
  24109456.522    -7489497.37649  -5823254.88449  24109456.4614   24109462.5584
  22071443.025    -7454669.39949  -5792317.68949  22071443.1684   22071448.3614
  20875490.674    -7395280.75349  -5729662.54649  20875490.4994   20875494.5224
  20482154.959    -1912675.39749  -1483509.48149  20482154.4304   20482159.3874
  21257412.073     2361770.18649   1831549.73949  21257412.1504   21257417.1714
 98  1 28 17  6 29.9990000  0  6 22  3 19 18 16 14
  22011761.262     2092186.25949   1627362.31749  22011760.3354   22011764.6164
  24090224.307    -7590563.85449  -5902007.90549  24090224.3854   24090229.9854
  22053074.308    -7551197.72549  -5867534.54049  22053074.3144   22053078.7294
  20857195.821    -7491420.97049  -5804576.98549  20857195.5144   20857199.7684
  20480671.631    -1920470.16249  -1489583.34249  20480671.1464   20480676.1374
  21265964.996     2406716.06449   1866572.46549  21265965.0494   21265970.0864
 98  1 28 17  6 59.9990000  0  6 22  3 19 18 16 14
  22019745.376     2134143.39249   1660056.17349  22019744.5284   22019748.8094
  24071024.703    -7691458.89949  -5980627.34049  24071024.5964   24071030.4264
  22034729.570    -7647600.06649  -5942653.21949  22034729.1744   22034734.3684
  20838931.463    -7587400.51649  -5879366.22649  20838931.2284   20838935.0034
  20479291.313    -1927723.91049  -1495235.62749  20479290.8424   20479295.7674
  21274575.819     2451966.11849   1901832.20849  21274575.7184   21274580.7164
 98  1 28 17  7 29.9990000  0  6 22  3 19 18 16 14
  22027792.766     2176432.95649   1693009.07049  22027791.9174   22027796.0494
  24051854.085    -7792202.11749  -6059128.48049  24051853.6484   24051859.7664
  22016406.882    -7743886.34449  -6017681.46249  22016406.3694   22016411.6214
  20820694.930    -7683233.94649  -5954041.62049  20820694.7334   20820698.6694
  20478012.147    -1934446.16849  -1500473.77249  20478011.6584   20478016.6024
  21283243.253     2497513.50449   1937323.63949  21283243.0774   21283248.2794
 98  1 28 17  7 59.9990000  0  6 22  3 19 18 16 14
  22035909.543     2219086.36549   1726245.47749  22035908.7084   22035913.2184
  24032711.959    -7892794.39549  -6137511.98449  24032711.9604   24032717.6594
  21998108.442    -7840044.90249  -6092610.18549  21998108.1774   21998112.9704
  20802488.902    -7778907.38249  -6028592.34149  20802488.6374   20802492.6304
  20476833.379    -1940640.81849  -1505300.79349  20476832.9934   20476837.8864
  21291971.628     2543381.23749   1973064.68549  21291971.5654   21291976.5414
 98  1 28 17  8 29.9990000  0  6 22  3 19 18 16 14
  22044097.133     2262112.47349   1759772.29649  22044096.3404   22044101.1004
  24013597.411    -7993241.63849  -6215782.49249  24013597.3134   24013603.2954
  21979834.427    -7936075.49749  -6167439.19649  21979834.1174   21979839.4294
  20784317.221    -7874400.25949  -6103002.37349  20784316.9274   20784320.8954
  20475749.161    -1946338.56649  -1509740.62049  20475748.7344   20475753.7514
  21300765.509     2589593.06949   2009073.86449  21300765.5274   21300770.4254
 98  1 28 17  8 59.9990000  0  6 22  3 19 18 16 14
  22052350.639     2305484.90949   1793568.99749  22052350.1064   22052354.3454
  23994503.255    -8093582.44749  -6293970.05949  23994502.4524   23994508.5284
  21961586.629    -8031968.14749  -6242160.71149  21961586.1704   21961591.4994
  20766177.220    -7969726.63949  -6177282.66049  20766177.0254   20766180.8494
  20474752.875    -1951574.13649  -1513820.30049  20474752.2544   20474757.1544
  21309629.034     2636171.20149   2045368.47849  21309628.8014   21309633.8394
 98  1 28 17  9 29.9990000  0  6 22  3 19 18 16 14
  22060672.127     2349214.49649   1827643.98249  22060671.0554   22060676.0994
  23975428.634    -8193819.67249  -6372076.91249  23975427.1974   23975435.2074
  21943371.673    -8127688.29049  -6316747.80349  21943371.5004   21943376.8344
  20748072.639    -8064866.95349  -6251417.96249  20748072.3184   20748076.2784
  20473847.725    -1956330.91249  -1517526.89849  20473847.1514   20473852.2564
  21318565.652     2683133.28249   2081962.26949  21318565.4944   21318570.5374
 98  1 28 17  9 59.9990000  0  6 22  3 19 18 16 14
  22069059.258     2393289.37749   1861988.02949  22069058.1394   22069063.1134
  23956378.026    -8293929.87249  -6450084.78449  23956376.9154   23956383.8954
  21925190.442    -8223231.47449  -6391197.01349  21925190.4374   21925195.3734
  20730006.527    -8159804.87349  -6325395.55549  20730006.3754   20730010.2874
  20473034.886    -1960602.38349  -1520855.33749  20473034.4134   20473039.4134
  21327573.776     2730471.22849   2118848.94049  21327573.6884   21327578.7544
 98  1 28 17 10 29.9990000  0  6 22  3 19 18 16 14
  22077513.257     2437715.32949   1896605.63249  22077512.6464   22077516.9294
  23937358.878    -8393874.77649  -6527963.86749  23937357.6924   23937364.4894
  21907045.218    -8318585.24549  -6465498.62849  21907044.6294   21907049.6464
  20711982.546    -8254521.67749  -6399200.85549  20711982.2534   20711986.2824
  20472319.059    -1964364.25949  -1523786.69149  20472318.5394   20472323.3534
  21336651.893     2778177.00149   2156022.22849  21336651.9434   21336656.9754
 98  1 28 17 10 59.9990000  0  6 22  3 19 18 16 14
  22086030.869     2482475.46349   1931483.64449  22086029.9904   22086035.1714
  23918372.404    -8493648.57049  -6605709.61549  23918371.3564   23918378.8814
  21888932.946    -8413765.70649  -6539665.20049  21888932.3674   21888937.9614
  20694000.141    -8349019.80049  -6472835.74349  20693999.9524   20694003.8804
  20471704.406    -1967594.27549  -1526303.60649  20471703.8444   20471708.8544
  21345794.136     2826219.55249   2193457.94549  21345794.0544   21345799.5984
 98  1 28 17 11 29.9990000  0  6 22  3 19 18 16 14
  22094613.838     2527579.54449   1966629.66349  22094612.8384   22094618.0764
  23899423.596    -8593225.04949  -6683301.62349  23899422.5844   23899428.7264
  21870852.419    -8508779.39049  -6613701.80849  21870852.2744   21870857.1954
  20676061.040    -8443290.73849  -6546293.60749  20676060.8514   20676064.8364
  20471192.736    -1970283.35049  -1528399.00949  20471192.3984   20471197.2174
  21354996.062     2874575.80849   2231138.10349  21354995.9744   21355001.1004
 98  1 28 17 11 59.9990000  0  6 22  3 19 18 16 14
  22103258.397     2573006.96249   2002027.63449  22103258.1634   22103262.5704
  23880513.406    -8692598.74949  -6760735.62249  23880513.0254   23880519.9674
  21852797.771    -8603657.18049  -6687632.52749  21852797.5434   21852802.6344
  20658160.048    -8537361.17649  -6619595.23849  20658159.7644   20658163.7964
  20470781.445    -1972444.81949  -1530083.29149  20470781.0234   20470785.8594
  21364257.828     2923246.50749   2269063.28749  21364257.7024   21364263.0594
 98  1 28 17 12 29.9990000  0  6 22  3 19 18 16 14
  22111961.880     2618743.51249   2037666.48449  22111961.2284   22111965.5854
  23861637.173    -8791794.34049  -6838030.83149  23861636.5334   23861642.9354
  21834768.256    -8698402.83049  -6761460.28749  21834767.9654   21834772.9874
  20640294.810    -8631243.73949  -6692750.47449  20640294.5314   20640298.3854
  20470468.968    -1974086.91549  -1531362.86649  20470468.5204   20470473.5134
  21373579.871     2972234.00449   2307235.32349  21373579.8694   21373585.2144
 98  1 28 17 12 59.9990000  0  6 22  3 19 18 16 14
  22120725.266     2664795.10449   2073550.82249  22120724.5814   22120729.2884
  23842793.288    -8890820.03349  -6915193.66449  23842793.5874   23842798.9494
  21816765.408    -8793008.04849  -6835178.61849  21816764.9484   21816770.0294
  20622465.588    -8724936.85249  -6765758.08749  20622465.3044   20622469.2344
  20470256.717    -1975202.69849  -1532232.32649  20470256.1174   20470261.1654
  21382967.762     3021567.47849   2345676.95349  21382967.8094   21382972.8334
 98  1 28 17 13 29.9980000  0  6 22  3 19 18 16 14
  22129552.336     2711181.43149   2109695.99649  22129551.4604   22129555.7584
  23823983.612    -8989666.07349  -6992216.50049  23823983.6194   23823988.8674
  21798790.361    -8887467.43249  -6908783.31349  21798789.9624   21798795.0514
  20604673.580    -8818434.48149  -6838613.37549  20604673.2224   20604677.1674
  20470143.221    -1975798.99649  -1532696.99349  20470142.7954   20470147.8804
  21392423.383     3071257.06649   2384396.07649  21392423.5934   21392428.6274
 98  1 28 17 13 59.9980000  0  6 22  3 19 18 16 14
  22138441.328     2757892.93149   2146094.54549  22138441.3564   22138445.0004
  23805204.204    -9088353.24749  -7069115.55549  23805203.8104   23805209.4614
  21780840.718    -8981793.53749  -6982284.15849  21780840.3984   21780845.2664
  20586918.979    -8911735.52949  -6911315.48549  20586918.7034   20586922.6744
  20470126.140    -1975888.85049  -1532767.03249  20470125.6174   20470130.7694
  21401943.797     3121286.92049   2423380.34249  21401943.5034   21401949.1424
 98  1 28 17 14 29.9980000  0  6 22  3 19 18 16 14
  22147394.169     2804940.25749   2182754.78149  22147393.7284   22147397.8614
  23786456.840    -9186871.59349  -7145883.04449  23786456.0794   23786461.9484
  21762919.586    -9075969.84249  -7055668.26849  21762919.5844   21762924.2874
  20569205.518    -9004820.36549  -6983849.11949  20569205.1664   20569209.1824
  20470203.705    -1975481.36149  -1532449.52849  20470203.2934   20470208.2204
  21411523.765     3171629.87049   2462608.57349  21411523.7014   21411529.1264
 98  1 28 17 14 59.9980000  0  6 22  3 19 18 16 14
  22156417.718     2852359.18349   2219704.56949  22156416.7024   22156421.5634
  23767751.349    -9285169.62349  -7222478.85249  23767750.6494   23767757.3474
  21745029.675    -9169981.65749  -7128924.20649  21745029.3494   21745034.6044
  20551538.123    -9097663.12149  -7056194.11649  20551537.6774   20551541.9254
  20470378.175    -1974564.58949  -1531735.17749  20470377.7124   20470382.8964
  21421164.254     3222290.63449   2502084.45949  21421164.1274   21421169.2014
 98  1 28 17 15 29.9980000  0  6 22  3 19 18 16 14
  22165509.069     2900134.63549   2256932.16949  22165508.3584   22165513.1464
  23749088.369    -9383243.88249  -7298900.31049  23749088.9884   23749094.0394
  21727169.666    -9263836.49849  -7202057.83849  21727169.5144   21727174.5934
  20533916.019    -9190267.79849  -7128353.60049  20533915.6664   20533919.5424
  20470644.413    -1973165.55749  -1530645.04849  20470643.9584   20470649.0404
  21430860.002     3273241.98849   2541786.77149  21430859.9544   21430865.2984
 98  1 28 17 15 59.9980000  0  6 22  3 19 18 16 14
  22174664.570     2948247.15249   2294422.42449  22174663.9604   22174668.2134
  23730467.127    -9481098.46349  -7375150.57249  23730466.9604   23730473.0954
  21709340.383    -9357529.96449  -7275065.71249  21709339.9874   21709345.1924
  20516338.425    -9282638.75649  -7200330.95749  20516338.2354   20516342.1234
  20471001.046    -1971291.63049  -1529184.86049  20471000.5014   20471005.6344
  21440611.881     3324488.31749   2581718.94249  21440611.9034   21440617.1304
 98  1 28 17 16 29.9980000  0  6 22  3 19 18 16 14
  22183883.775     2996694.41349   2332173.51849  22183883.1474   22183887.8234
  23711886.817    -9578737.53049  -7451232.88749  23711886.2734   23711892.8714
  21691539.601    -9451073.57149  -7347956.81049  21691539.3304   21691544.5624
  20498801.341    -9374796.67749  -7272142.30749  20498801.1554   20498804.9384
  20471447.646    -1968944.66149  -1527356.06949  20471447.2524   20471452.4944
  21450423.326     3376047.41649   2621894.83349  21450423.3914   21450428.2494
 98  1 28 17 16 59.9980000  0  6 22  3 19 18 16 14
  22193161.923     3045451.41049   2370165.94749  22193161.0644   22193165.5634
  23693343.349    -9676182.98749  -7527164.33249  23693342.1314   23693348.2974
  21673765.210    -9544478.54649  -7420739.89049  21673765.2354   21673770.0684
  20481302.998    -9466750.98149  -7343795.00249  20481302.5394   20481306.7294
  20471983.813    -1966127.05649  -1525160.55549  20471983.4014   20471988.5744
  21460292.961     3427912.58349   2662309.20749  21460292.7094   21460298.1034
 98  1 28 17 17 29.9980000  0  6 22  3 19 18 16 14
  22202491.487     3094478.78849   2408369.08349  22202490.6064   22202495.4624
  23674827.853    -9773480.75449  -7602980.69749  23674826.7684   23674833.4224
  21656011.527    -9637774.51049  -7493438.01449  21656011.2554   21656016.3654
  20463838.858    -9558525.43049  -7415307.54149  20463838.6694   20463842.6524
  20472606.496    -1962854.83949  -1522610.79249  20472605.9504   20472611.0674
  21470215.628     3480056.27149   2702940.62149  21470215.3294   21470220.6124
 98  1 28 17 17 59.9980000  0  6 22  3 19 18 16 14
  22211876.045     3143794.87449   2446797.17849  22211875.3094   22211879.9554
  23656343.958    -9870612.78549  -7678667.91349  23656343.1244   23656350.1714
  21638283.435    -9730936.33049  -7566031.61649  21638283.0584   21638288.1424
  20446412.591    -9650101.20349  -7486665.27549  20446412.3634   20446416.3804
  20473324.155    -1959083.66649  -1519672.24049  20473323.5634   20473328.8304
  21480192.367     3532484.42249   2743793.68649  21480192.3624   21480197.7884
 98  1 28 17 18 29.9980000  0  6 22  3 19 18 16 14
  22221307.380     3193357.05549   2485417.02749  22221306.9594   22221311.3084
  23637886.936    -9967603.79749  -7754245.24849  23637886.1624   23637893.9044
  21620573.936    -9824000.31349  -7638548.97449  21620573.7184   21620578.6394
  20429019.477    -9741502.53949  -7557887.08149  20429019.1544   20429023.0094
  20474132.379    -1954836.43849  -1516362.73249  20474131.9534   20474136.8864
  21490211.142     3585133.36849   2784818.80349  21490210.9174   21490216.4064
 98  1 28 17 18 59.9980000  0  6 22  3 19 18 16 14
  22230798.830     3243234.69949   2524282.69849  22230798.2994   22230803.3324
  23619472.990   -10064368.71249  -7829646.39949  23619471.9504   23619480.2954
  21602899.437    -9916880.54649  -7710923.15149  21602899.4844   21602904.1894
  20411677.202    -9832637.00549  -7628900.93649  20411676.8204   20411680.8824
  20475045.964    -1950035.71749  -1512621.93449  20475045.5114   20475050.7934
  21500282.684     3638059.79249   2826060.13849  21500282.4444   21500287.6794
 98  1 28 17 19 29.9980000  0  6 22  3 19 18 16 14
  22240346.616     3293408.09649   2563378.82049  22240345.9094   22240350.3384
  23601100.146   -10160917.90949  -7904879.45749  23601100.0984   23601106.3184
  21585256.155   -10009596.77249  -7783169.52649  21585255.8584   21585260.8374
  20394382.114    -9923523.11749  -7699721.27049  20394381.7334   20394385.6014
  20476058.237    -1944716.14649  -1508476.83749  20476057.7904   20476063.0204
  21510406.150     3691258.81049   2867513.88249  21510406.1364   21510411.4494
 98  1 28 17 19 59.9980000  0  6 22  3 19 18 16 14
  22249949.324     3343870.62449   2602700.24349  22249948.4714   22249953.1514
  23582770.275   -10257241.84149  -7979936.98649  23582769.7084   23582777.4484
  21567645.866   -10102139.23849  -7855280.50349  21567645.7804   21567650.5154
  20377134.578   -10014159.36649  -7770346.90349  20377134.4634   20377138.2914
  20477167.730    -1938885.76149  -1503933.70149  20477167.1424   20477172.4824
  21520583.734     3744742.25349   2909189.25549  21520583.5504   21520589.0694
 98  1 28 17 20 29.9980000  0  6 22  3 19 18 16 14
  22259606.315     3394618.39549   2642243.92849  22259605.9254   22259609.4694
  23564486.531   -10353323.89749  -8054806.04949  23564486.6254   23564492.7324
  21550067.501   -10194514.12349  -7927260.89849  21550067.3894   21550072.1554
  20359934.370   -10104547.06749  -7840778.86649  20359934.2014   20359938.0434
  20478371.645    -1932559.48449  -1499004.15849  20478371.2894   20478376.3834
  21530821.628     3798542.58949   2951111.55649  21530821.7624   21530827.1714
 98  1 28 17 20 59.9980000  0  6 22  3 19 18 16 14
  22269314.470     3445634.75549   2681996.90849  22269313.3854   22269318.8694
  23546244.759   -10449186.22749  -8129503.89649  23546245.3644   23546250.5734
  21532514.529   -10286755.21249  -7999137.03849  21532514.2114   21532519.1494
  20342773.446   -10194728.40449  -7911050.02749  20342773.1214   20342777.0724
  20479661.379    -1925782.04949  -1493723.06649  20479660.8764   20479666.1404
  21541118.141     3852650.86049   2993273.80349  21541118.2844   21541123.4934
 98  1 28 17 21 29.9980000  0  6 22  3 19 18 16 14
  22279064.889     3496873.38049   2721923.08449  22279064.7344   22279068.6194
  23528035.420   -10544878.39049  -8204069.14649  23528036.1204   23528040.4894
  21514974.634   -10378927.86949  -8070959.85649  21514974.2534   21514979.6224
  20325641.221   -10284758.87249  -7981203.62549  20325641.0614   20325644.9474
  20481026.484    -1918608.41449  -1488133.23849  20481026.1314   20481031.1294
  21551462.617     3907011.41349   3035632.63949  21551462.4734   21551467.6054
 98  1 28 17 21 59.9980000  0  6 22  3 19 18 16 14
  22288870.934     3548404.16549   2762076.91449  22288870.6164   22288874.5694
  23509873.174   -10640322.31849  -8278440.96849  23509873.1344   23509877.7084
  21497460.770   -10470963.93149  -8142676.23849  21497460.5584   21497465.3724
  20308549.959   -10374573.87949  -8051189.33149  20308549.7444   20308553.8054
  20482483.384    -1910952.67449  -1482167.74849  20482482.8824   20482488.1204
  21561865.371     3961677.92249   3078229.87449  21561865.3914   21561870.5184
 98  1 28 17 22 29.9980000  0  6 22  3 19 18 16 14
  22298737.838     3600255.05049   2802480.17049  22298737.1454   22298742.0514
  23491762.936   -10735492.58349  -8352599.54349  23491763.3914   23491767.6394
  21479976.125   -10562846.27749  -8214272.83849  21479975.7024   21479980.6444
  20291504.743   -10464147.26549  -8120986.76449  20291504.3844   20291508.4484
  20484036.462    -1902791.40349  -1475808.34349  20484035.9574   20484041.1774
  21572326.776     4016652.56949   3121067.22049  21572326.8894   21572331.8634
 98  1 28 17 22 59.9980000  0  6 22  3 19 18 16 14
  22308666.920     3652432.35949   2843137.77049  22308666.2724   22308671.1454
  23473703.535   -10830395.10349  -8426549.49849  23473703.2634   23473707.5624
  21462521.936   -10654568.35149  -8285744.55849  21462521.8154   21462526.6844
  20274508.809   -10553461.48349  -8190582.24849  20274508.5804   20274512.4894
  20485686.521    -1894120.34949  -1469051.70549  20485685.9854   20485691.1074
  21582842.197     4071911.35149   3164125.96249  21582842.1694   21582847.5944
 98  1 28 17 23 29.9980000  0  6 22  3 19 18 16 14
  22318648.654     3704886.62649   2884011.19749  22318647.2624   22318653.0824
  23455688.843   -10925062.54649  -8500316.26849  23455688.3154   23455694.2324
  21445095.314   -10746146.26849  -8357103.94549  21445095.2694   21445099.9354
  20257558.823   -10642534.44349  -8259989.74149  20257558.6144   20257562.4744
  20487428.375    -1884966.91549  -1461919.18449  20487427.8694   20487432.9904
  21593403.317     4127410.43549   3207371.95749  21593403.4684   21593408.7364
 98  1 28 17 23 59.9980000  0  6 22  3 19 18 16 14
  22328693.764     3757673.97649   2925144.16949  22328693.1874   22328697.9154
  23437733.363   -11019418.54449  -8573840.36849  23437733.0254   23437739.2474
  21427711.985   -10837496.29549  -8428285.75549  21427711.5644   21427716.6924
  20240667.982   -10731296.51549  -8329154.97949  20240667.7374   20240671.6154
  20489277.366    -1875250.57949  -1454348.03149  20489276.9894   20489281.9244
  21604025.810     4183231.47849   3250868.83549  21604025.7444   21604031.0044
 98  1 28 17 24 29.9980000  0  7 22  3 19 31 18 16 14
  22338792.201     3810741.64449   2966495.55649  22338790.8574   22338795.8604
  23419827.100   -11113516.07749  -8647163.07849  23419826.0024   23419833.0484
  21410360.326   -10928680.01049  -8499337.98949  21410360.4464   21410365.4204
  24145683.515    -8371095.66349  -6226614.55549  24145683.0814   24145690.1614
  20223828.567   -10819788.19849  -8398109.53449  20223828.1554   20223832.0064
  20491222.327    -1865029.90449  -1446383.90049  20491221.8924   20491227.1024
  21614699.609     4239322.36949   3294575.97549  21614699.6154   21614705.2744
 98  1 28 17 24 59.9980000  0  7 22  3 19 31 18 16 14
  22348937.992     3864057.78649   3008040.56549  22348937.2134   22348942.2324
  23401963.728   -11207388.01649  -8720310.00749  23401963.1684   23401969.9214
  21393033.709   -11019731.97949  -8570287.55049  21393033.4014   21393038.2204
  24121318.023    -8499137.45749  -6326387.22449  24121317.4794   24121324.6134
  20207036.178   -10908032.74349  -8466871.51049  20207035.9404   20207039.6434
  20493257.015    -1854337.70249  -1438052.33949  20493256.5844   20493261.6444
  21625419.465     4295655.48049   3338471.85349  21625419.2944   21625425.0044
 98  1 28 17 25 29.9980000  0  7 22  3 19 31 18 16 14
  22359134.668     3917641.32549   3049793.92549  22359134.5034   22359138.4314
  23384146.627   -11301016.80449  -8793267.47649  23384146.4424   23384152.7624
  21375735.085   -11110636.77149  -8641122.43749  21375734.7774   21375740.2884
  24096937.394    -8627258.29749  -6426221.48649  24096937.1884   24096943.2984
  20190293.878   -10996014.16349  -8535428.45449  20190293.4614   20190297.3464
  20495384.908    -1843155.74449  -1429339.15049  20495384.5114   20495389.5724
  21636191.516     4352262.55849   3382581.21749  21636191.6464   21636196.8424
 98  1 28 17 25 59.9980000  0  7 22  3 19 31 18 16 14
  22369393.269     3971550.33349   3091800.90449  22369392.6524   22369396.9774
  23366385.000   -11394354.20549  -8865997.90349  23366385.0284   23366390.4354
  21358472.526   -11201351.89649  -8711809.52749  21358472.2474   21358477.3774
  24072554.725    -8755390.15949  -6526064.35549  24072553.9584   24072561.2774
  20173610.969   -11083683.23949  -8603742.01849  20173610.6104   20173614.5804
  20497614.374    -1831440.21849  -1420210.19349  20497613.9774   20497619.0154
  21647025.570     4409195.72849   3426944.67349  21647025.6664   21647031.2064
 98  1 28 17 26 29.9980000  0  7 22  3 19 31 18 16 14
  22379698.911     4025706.76449   3134000.67849  22379697.9284   22379703.3024
  23348663.968   -11487478.61749  -8938562.36149  23348663.6374   23348670.2024
  21341230.849   -11291957.60249  -8782411.35049  21341230.4044   21341235.3414
  24048155.863    -8883606.95049  -6625973.39749  24048155.3484   24048162.0674
  20156973.890   -11171111.66149  -8671868.05349  20156973.7174   20156977.4744
  20499925.824    -1819293.69349  -1410745.39249  20499925.2874   20499930.4524
  21657903.308     4466358.13949   3471486.76649  21657903.2764   21657908.6204
 98  1 28 17 26 59.9980000  0  7 22  3 19 31 18 16 14
  22390050.735     4080105.82649   3176389.51849  22390049.7314   22390054.4694
  23330988.854   -11580362.17149  -9010939.13249  23330988.6834   23330994.4624
  21324016.317   -11382420.52249  -8852901.92449  21324016.2314   21324021.3514
  24023740.363    -9011911.28549  -6725950.68549  24023740.3114   24023745.3424
  20140383.108   -11258296.82349  -8739804.53949  20140382.9934   20140386.7904
  20502318.299    -1806721.19449  -1400948.66649  20502317.9614   20502322.9724
  21668825.790     4523755.95349   3516212.28149  21668826.0044   21668831.0004
 98  1 28 17 27 29.9980000  0  7 22  3 19 31 18 16 14
  22400453.015     4134769.99949   3218984.93449  22400453.0094   22400456.9774
  23313370.416   -11672948.27949  -9083084.12349  23313370.9294   23313376.3284
  21306838.186   -11472692.28449  -8923243.53249  21306837.9134   21306842.7144
  23999313.044    -9140277.57549  -6825976.23549  23999312.2924   23999318.5674
  20123844.520   -11345207.90749  -8807527.45349  20123844.4024   20123848.2604
  20504799.439    -1793682.99849  -1390789.05849  20504798.8634   20504804.0344
  21679801.081     4581431.15349   3561153.93849  21679801.1964   21679806.7644
 98  1 28 17 27 59.9980000  0  7 22  3 19 31 18 16 14
  22410897.309     4189654.51249   3261752.05049  22410896.5794   22410901.2614
  23295804.894   -11765256.03349  -9155012.19849  23295804.2604   23295810.2794
  21289689.893   -11562807.00549  -8993462.77049  21289689.2454   21289694.5724
  23974870.096    -9268725.25049  -6926065.22549  23974868.0844   23974876.0604
  20107352.551   -11431873.89149  -8875059.37649  20107352.2504   20107356.2244
  20507365.209    -1780200.01349  -1380282.86049  20507364.7574   20507369.7454
  21690822.002     4639346.17249   3606282.46649  21690821.7174   21690827.4874
 98  1 28 17 28 29.9980000  0  7 22  3 19 31 18 16 14
  22421383.885     4244761.77049   3304692.72649  22421383.0794   22421387.6284
  23278295.197   -11857270.82849  -9226712.00849  23278295.1524   23278300.6324
  21272572.059   -11652761.72549  -9063557.33249  21272571.6654   21272576.6764
  23950409.628    -9397264.95749  -7026225.91249  23950408.1074   23950415.4084
  20090909.511   -11518282.68149  -8942390.89049  20090909.1734   20090913.0974
  20510018.976    -1766254.62149  -1369416.34449  20510018.3404   20510023.5304
  21701889.385     4697505.58649   3651601.43949  21701888.9754   21701894.7394
 98  1 28 17 28 59.9980000  0  7 22  3 19 31 18 16 14
  22431912.339     4300088.90649   3347804.73749  22431911.4614   22431916.4654
  23260838.198   -11949008.67649  -9298196.01149  23260837.6374   23260843.7294
  21255483.058   -11742564.87049  -9133533.77749  21255482.7454   21255487.4574
  23925932.006    -9525895.05649  -7126457.05549  23925931.7024   23925937.7544
  20074514.078   -11604441.31849  -9009527.47949  20074513.8834   20074517.6304
  20512761.399    -1751843.13249  -1358186.63749  20512760.9314   20512766.0974
  21713005.102     4755918.73649   3697118.11549  21713005.2494   21713010.4744
 98  1 28 17 29 29.9980000  0  7 22  3 19 31 18 16 14
  22442489.410     4355671.28249   3391115.63049  22442488.2894   22442492.6614
  23243432.669   -12040475.75249  -9369469.00449  23243433.2464   23243437.3614
  21238422.748   -11832217.79449  -9203393.17049  21238422.5764   21238427.3024
  23901441.649    -9654591.94949  -7226740.24249  23901440.1574   23901447.2284
  20058171.319   -11690323.17849  -9076448.40549  20058171.0274   20058174.8644
  20515598.415    -1736934.93149  -1346569.88349  20515597.9874   20515603.1334
  21724173.965     4814611.29649   3742852.52049  21724173.7774   21724179.4744
 98  1 28 17 29 59.9980000  0  8 22  3 19 31 18 27 16 14
  22453119.164     4411531.01649   3434642.65849  22453118.3004   22453122.6634
  23226077.698   -12131676.85349  -9440534.76349  23226077.5114   23226082.7004
  21221392.354   -11921713.26349  -9273129.86749  21221391.8764   21221396.9404
  23876939.954    -9783348.75249  -7327070.12849  23876938.9294   23876945.8504
  20041881.642   -11775926.21049  -9143152.05849  20041881.2644   20041885.1724
  24484212.605    -5141266.72449  -3705955.16349  24484213.0424   24484219.3144
  20518527.910    -1721540.56049  -1334574.29649  20518527.3494   20518532.5004
  21735394.865     4873577.25749   3788799.96149  21735394.4994   21735400.6654
 98  1 28 17 30 29.9980000  0  8 22  3 19 31 18 27 16 14
  22463806.842     4467695.08249   3478406.81949  22463805.8714   22463811.0744
  23208776.145   -12222597.03449  -9511381.61449  23208775.4994   23208781.7164
  21204397.292   -12011022.66149  -9342721.56849  21204397.1514   21204401.8964
  23852429.387    -9912152.10849  -7427436.28849  23852428.3474   23852435.2744
  20025648.500   -11861232.09149  -9209624.16549  20025647.9524   20025651.9464
  24462443.405    -5255664.80949  -3795096.51849  24462443.4034   24462449.1294
  20521548.313    -1705668.40349  -1322206.40749  20521547.8484   20521553.1034
  21746668.251     4932819.04149   3834962.33149  21746668.6154   21746673.7234
 98  1 28 17 30 59.9980000  0  8 22  3 19 31 18 27 16 14
  22474551.443     4524158.26949   3522404.05949  22474550.7624   22474555.4084
  23191525.395   -12313249.94349  -9582020.19549  23191524.8414   23191530.4514
  21187436.273   -12100153.55049  -9412174.17149  21187435.9134   21187440.8054
  23827909.183   -10041006.02149  -7527841.85549  23827908.7424   23827915.3224
  20009470.712   -11946246.67549  -9275869.28849  20009470.4024   20009474.2344
  24440678.544    -5370040.79849  -3884220.62649  24440677.6314   24440684.5634
  20524654.892    -1689343.39549  -1309485.64849  20524654.3274   20524659.3404
  21757990.747     4992318.96849   3881325.84849  21757991.0564   21757996.3564
 98  1 28 17 31 29.9980000  0  8 22  3 19 31 18 27 16 14
  22485348.523     4580896.91549   3566615.94949  22485347.4884   22485352.1094
  23174326.560   -12403630.20549  -9652446.33649  23174325.3284   23174332.3744
  21170506.647   -12189119.30949  -9481498.10749  21170506.2144   21170510.5374
  23803375.944   -10169928.18149  -7628300.59949  23803374.9564   23803382.2664
  19993346.635   -12030979.21949  -9341894.63649  19993346.4544   19993350.2144
  24418916.181    -5484402.69449  -3973333.74049  24418914.9174   24418923.1734
  20527844.151    -1672583.95849  -1296426.38049  20527843.5504   20527848.7344
  21769352.915     5052027.39549   3927851.82549  21769352.8614   21769358.6224
 98  1 28 17 31 59.9980000  0  8 22  3 19 31 18 27 16 14
  22496191.975     4637879.18649   3611017.66649  22496190.5314   22496196.2004
  23157180.904   -12493730.45849  -9722654.27249  23157180.4984   23157186.6024
  21153607.689   -12277923.79649  -9550696.37549  21153607.3624   21153612.0934
  23778829.372   -10298920.83349  -7728814.27949  23778827.9804   23778835.5054
  19977274.504   -12115438.95549  -9407707.40649  19977274.1014   19977278.0614
  24397155.880    -5598753.49049  -4062438.23149  24397155.2014   24397161.8834
  20531115.623    -1655392.37949  -1283030.37049  20531114.9754   20531120.3084
  21780748.355     5111910.45549   3974513.88549  21780748.3324   21780753.8624
 98  1 28 17 32 29.9980000  0  8 22  3 19 31 18 27 16 14
  22507081.566     4695104.32049   3655608.63849  22507081.0324   22507085.3294
  23140092.823   -12583528.38649  -9792626.63649  23140091.5784   23140097.7644
  21136739.991   -12366563.90949  -9619766.56549  21136739.3904   21136744.4094
  23754273.586   -10427961.75149  -7829365.57049  23754272.5194   23754279.6154
  19961261.042   -12199590.17049  -9473279.77049  19961260.7174   19961264.5744
  24375402.558    -5713069.14449  -4151515.33749  24375402.1704   24375408.7734
  20534475.877    -1637734.23149  -1269270.80549  20534475.3494   20534480.5294
  21792181.676     5171992.22149   4021330.77649  21792182.2664   21792187.4404
 98  1 28 17 32 59.9980000  0  8 22  3 19 31 18 27 16 14
  22518014.832     4752559.26449   3700378.68349  22518014.1034   22518018.6844
  23123065.928   -12673004.75849  -9862348.43449  23123065.6154   23123071.1324
  21119904.603   -12455034.25949  -9688704.46549  21119904.3644   21119909.1554
  23729712.512   -10557030.27549  -7929938.35949  23729712.1424   23729718.0954
  19945308.455   -12283421.57749  -9538602.92949  19945308.0714   19945311.7494
  24353660.238    -5827325.65549  -4240546.37149  24353659.9024   24353666.1854
  20537930.375    -1619580.72549  -1255125.24349  20537929.8274   20537935.0324
  21803655.406     5232286.90649   4068313.58649  21803655.0544   21803660.8284
 98  1 28 17 33 29.9980000  0  8 22  3 19 31 18 27 16 14
  22528987.709     4810221.80549   3745310.48849  22528986.6274   22528991.5694
  23106100.894   -12762156.32849  -9931817.14749  23106100.5694   23106105.9134
  21103100.307   -12543341.39549  -9757515.19449  21103099.8884   21103104.7054
  23705147.392   -10686120.17249  -8030527.82549  23705146.0394   23705153.4724
  19929414.076   -12366947.13549  -9603687.76749  19929413.7944   19929417.6784
  24331927.268    -5941532.92749  -4329539.03349  24331926.6884   24331933.6694
  20541480.890    -1600922.64749  -1240586.51249  20541480.4794   20541485.6294
  21815171.600     5292804.88449   4115470.39049  21815171.6414   21815176.9464
 98  1 28 17 33 59.9980000  0  8 22  3 19 31 18 27 16 14
  22540004.287     4868114.01949   3790421.26049  22540003.3704   22540007.9074
  23089199.526   -12850973.00949 -10001024.91149  23089199.0504   23089205.4984
  21086328.980   -12631475.25149  -9826190.89349  21086328.5684   21086333.4424
  23680580.513   -10815219.26049  -8131124.43449  23680579.4564   23680586.2144
  19913579.356   -12450159.20549  -9668528.32549  19913578.9064   19913582.5084
  24310204.743    -6055685.77049  -4418489.28149  24310204.8054   24310210.9504
  20545129.912    -1581746.87949  -1225644.38349  20545129.2534   20545134.5704
  21826739.656     5353595.27449   4162839.45349  21826739.2534   21826745.5874
 98  1 28 17 34 29.9970000  0  8 22  3 19 31 18 27 16 14
  22551066.628     4926246.96449   3835719.61449  22551064.9034   22551070.7944
  23072364.479   -12939442.22349 -10069961.92649  23072364.2954   23072370.3494
  21069590.696   -12719435.25749  -9894731.12449  21069590.5864   21069594.8974
  23656014.416   -10944314.43249  -8231717.97949  23656013.9824   23656021.7974
  19897807.151   -12533042.48649  -9733112.68249  19897806.8854   19897810.7254
  24288494.275    -6169774.74749  -4507389.77149  24288493.5064   24288500.7594
  20548873.944    -1562071.95249  -1210313.29849  20548873.5114   20548878.7534
  21838361.412     5414667.89349   4210428.44049  21838361.4874   21838366.9974
 98  1 28 17 34 59.9970000  0  8 22  3 19 31 18 27 16 14
  22562176.637     4984630.34849   3881213.10649  22562176.2604   22562180.3054
  23055597.276   -13027554.42149 -10138620.74849  23055596.4834   23055603.1424
  21052884.179   -12807228.66949  -9963141.53749  21052883.8724   21052888.2514
  23631448.962   -11073406.01449  -8332308.72849  23631449.4384   23631455.0214
  19882093.755   -12615616.92849  -9797456.38549  19882093.4134   19882097.2084
  24266793.098    -6283814.66849  -4596252.05149  24266792.8494   24266799.1874
  20552708.905    -1541919.15049  -1194609.84349  20552708.4864   20552713.7494
  21850034.444     5476009.80849   4258227.27149  21850033.9064   21850039.7614
 98  1 28 17 35 29.9970000  0  8 22  3 19 31 18 27 16 14
  22573340.586     5043297.09449   3926927.40849  22573339.5724   22573345.0054
  23038901.565   -13115290.89449 -10206986.79749  23038901.4304   23038906.7864
  21036212.044   -12894841.40149 -10031411.17049  21036211.6944   21036216.0784
  23606884.810   -11202491.49649  -8432894.72649  23606883.8144   23606892.5734
  19866441.806   -12697868.37349  -9861548.40449  19866441.3394   19866445.1994
  24245105.047    -6397786.23649  -4685061.07849  24245104.3644   24245111.3244
  20556634.294    -1521291.34249  -1178536.25149  20556633.6694   20556638.9434
  21861760.194     5537628.68249   4306241.90749  21861760.2884   21861765.7654
 98  1 28 17 35 59.9970000  0  8 22  3 19 31 18 27 16 14
  22584556.918     5102239.01049   3972856.13249  22584556.5474   22584560.7894
  23022277.701   -13202649.74349 -10275058.60749  23022277.0094   23022283.5284
  21019572.379   -12982283.38549 -10099547.75149  21019572.0134   21019576.5714
  23582319.226   -11331583.41149  -8533485.73249  23582316.4824   23582324.1894
  19850850.948   -12779798.84649  -9925390.31649  19850850.6324   19850854.4414
  24223430.740    -6511685.16449  -4773813.48949  24223430.6884   24223437.1604
  20560646.327    -1500208.22749  -1162107.88049  20560645.8514   20560651.0654
  21873531.450     5599486.60949   4354442.82149  21873530.9204   21873536.9234
 98  1 28 17 36 29.9970000  0  8 22  3 19 31 18 27 16 14
  22595821.820     5161435.94649   4018983.57849  22595821.1294   22595825.9634
  23005725.282   -13289632.88949 -10342837.65149  23005724.2984   23005731.2094
  21002966.489   -13069547.65349 -10167545.85349  21002966.0894   21002971.1894
  23557754.123   -11460673.00549  -8634074.93149  23557753.6174   23557760.6754
  19835321.983   -12861404.20749  -9988978.89649  19835321.6534   19835325.4494
  24201769.657    -6625515.45749  -4862512.43149  24201769.6344   24201775.8014
  20564745.642    -1478666.42449  -1145322.08749  20564745.1534   20564750.4154
  21885343.244     5661557.85049   4402809.95149  21885343.5224   21885348.3054
 98  1 28 17 36 59.9970000  0  8 22  3 19 31 18 27 16 14
  22607132.116     5220871.74749   4065297.14249  22607131.3694   22607135.2254
  22989241.509   -13376255.71649 -10410335.92449  22989240.9904   22989246.9414
  20986395.519   -13156628.49649 -10235401.01549  20986395.3914   20986400.2054
  23533185.739   -11589780.79349  -8734678.29849  23533185.1754   23533192.1024
  19819851.410   -12942702.74949 -10052328.39549  19819851.0734   19819854.8194
  24180119.700    -6739287.30649  -4951165.82749  24180119.3124   24180126.3294
  20568931.857    -1456667.94149  -1128180.44149  20568931.2154   20568936.5704
  21897195.324     5723840.45049   4451341.77849  21897195.3374   21897201.4474
 98  1 28 17 37 29.9970000  0  8 22  3 19 31 18 27 16 14
  22618486.896     5280541.14549   4111792.73449  22618486.4284   22618491.1104
  22972825.132   -13462524.03049 -10477557.93449  22972824.5644   22972830.0124
  20969863.759   -13243503.53549 -10303095.82249  20969863.2164   20969868.2674
  23508615.515   -11718898.19549  -8835289.14349  23508614.5754   23508620.9814
  19804443.284   -13023673.17049 -10115422.21549  19804442.9394   19804446.6424
  24158482.775    -6852990.40549  -5039765.64349  24158482.6604   24158489.6934
  20573208.198    -1434195.73149  -1110669.65749  20573207.6054   20573213.0414
  21909089.560     5786344.81649   4500046.41449  21909089.6634   21909095.5164
 98  1 28 17 37 59.9970000  0  8 22  3 19 31 18 27 16 14
  22629879.318     5340408.43949   4158442.53949  22629878.8114   22629883.9644
  22956471.386   -13548463.22749 -10544523.48749  22956470.5864   22956477.0814
  20953367.264   -13330192.82949 -10370645.88949  20953366.8064   20953371.4584
  23484043.103   -11848026.82449  -8935908.71949  23484042.4764   23484049.2674
  19789097.196   -13104317.52349 -10178261.96049  19789096.9834   19789100.6374
  24136852.059    -6966660.87349  -5128340.04349  24136852.6954   24136857.7324
  20577570.296    -1411272.87749  -1092807.72049  20577569.7954   20577575.0754
  21921021.501     5849047.21349   4548905.35449  21921021.5534   21921026.5244
 98  1 28 17 38 29.9970000  0  8 22  3 19 31 18 27 16 14
  22641309.946     5400476.72449   4205248.96049  22641309.3884   22641314.7474
  22940178.790   -13634081.24949 -10611238.77149  22940178.5454   22940184.1904
  20936907.183   -13416691.05949 -10438047.08049  20936907.0014   20936911.7304
  23459471.186   -11977152.68849  -9036526.14549  23459470.9164   23459477.5564
  19773814.032   -13184630.82749 -10240843.74349  19773813.7144   19773817.4984
  24115226.766    -7080302.55249  -5216892.01949  24115226.3264   24115233.0304
  20582015.271    -1387914.48949  -1074606.41149  20582014.6984   20582020.0044
  21932993.839     5911961.95149   4597929.76349  21932993.6144   21932999.7664
 98  1 28 17 38 59.9970000  0  8 22  3 19 31 18 27 16 14
  22652779.725     5460751.22449   4252216.06449  22652778.6984   22652783.9604
  22923948.629   -13719371.71749 -10677698.81849  22923948.2914   22923954.4934
  20920483.634   -13502997.53449 -10505298.84949  20920483.4114   20920487.8814
  23434903.513   -12106256.57449  -9137126.45049  23434903.1644   23434909.6294
  19758596.719   -13264598.31849 -10303156.06249  19758596.2184   19758600.1534
  24093609.650    -7193901.16049  -5305410.41949  24093609.7314   24093616.4374
  20586541.042    -1364131.58949  -1056074.31249  20586540.4254   20586545.7974
  21945008.219     5975097.53649   4647126.26049  21945008.2474   21945013.4654
 98  1 28 17 39 29.9970000  0  8 22  3 19 31 18 27 16 14
  22664288.638     5521230.43349   4299342.67649  22664288.2104   22664292.4614
  22907782.231   -13804327.05249 -10743897.73449  22907782.5824   22907786.8544
  20904094.343   -13589123.82749 -10572410.21649  20904093.9674   20904098.3604
  23410344.413   -12235315.21849  -9237691.50449  23410343.7764   23410350.2304
  19743446.758   -13344211.88049 -10365192.59449  19743446.4764   19743450.3514
  24072001.589    -7307452.20249  -5393891.74649  24072001.5304   24072009.0774
  20591148.559    -1339918.93749  -1037207.34349  20591147.9654   20591153.5094
  21957062.958     6038445.24549   4696488.03949  21957062.4524   21957068.3674
 98  1 28 17 39 59.9970000  0  8 22  3 19 31 18 27 16 14
  22675834.459     5581904.00449   4346620.73449  22675833.4574   22675838.3744
  22891680.804   -13888940.66349 -10809830.36949  22891680.3094   22891685.1734
  20887737.734   -13675078.36449 -10639387.75049  20887737.4104   20887741.9434
  23385794.440   -12364326.20549  -9338219.41849  23385793.9224   23385800.4054
  19728361.130   -13423487.54949 -10426965.83449  19728360.6504   19728364.6454
  24050402.702    -7420954.66849  -5482335.24749  24050402.5634   24050409.5764
  20595836.037    -1315286.17449  -1018013.01549  20595835.6704   20595841.0114
  21969159.184     6102011.09049   4746019.79649  21969159.4674   21969165.0854
 98  1 28 17 40 29.9970000  0  8 22  3 19 31 18 27 16 14
  22687417.793     5642774.95049   4394052.59549  22687417.7684   22687422.2064
  22875646.271   -13973202.46249 -10875488.85349  22875645.5804   22875651.1734
  20871413.884   -13760860.32749 -10706230.81349  20871413.2914   20871418.2594
  23361255.653   -12493277.82049  -9438701.06749  23361254.2304   23361261.8944
  19713338.297   -13502433.02349 -10488481.77749  19713337.9004   19713341.7174
  24028816.135    -7534392.71849  -5570728.54149  24028813.7584   24028821.4494
  20600606.245    -1290218.76549   -998479.99749  20600605.5784   20600610.9804
  21981297.704     6165799.15749   4795724.71749  21981297.7944   21981303.6464
 98  1 28 17 40 59.9970000  0  9 22  3 19 31 18 27 16 13 14
  22699040.608     5703853.25349   4441646.03149  22699039.8224   22699044.3524
  22859681.646   -14057096.85849 -10940861.05449  22859681.7524   22859685.9444
  20855124.401   -13846462.23949 -10772933.57349  20855124.0684   20855128.6024
  23336727.609   -12622172.53049  -9539138.36549  23336726.5604   23336733.3714
  19698380.966   -13581034.37349 -10549729.57549  19698380.5954   19698384.3024
  24007242.729    -7647761.57749  -5659067.91649  24007240.9634   24007247.5574
  20605464.508    -1264688.50849   -978586.32049  20605463.7744   20605469.4914
  23697757.401     -276829.99649                  23697752.797    23697760.2114
  21993478.364     6229808.57249   4845602.11549  21993478.3024   21993484.2304
 98  1 28 17 41 29.9970000  0  9 22  3 19 31 18 27 16 13 14
  22710706.109     5765155.57149   4489414.01249  22710705.2264   22710711.0104
  22843791.385   -14140600.32049 -11005928.63449  22843791.1324   22843796.5184
  20838870.698   -13931876.00349 -10839489.72649  20838870.3704   20838875.1494
  23312208.952   -12751018.59149  -9639537.75349  23312208.3044   23312214.9914
  19683490.449   -13659284.52149 -10610703.70949  19683490.1434   19683493.8384
  23985683.514    -7761056.09649  -5747349.34249  23985683.6974   23985689.6194
  20610415.119    -1238673.02949   -958314.54649  20610414.7274   20610420.0794
  23672469.995     -507000.68249   -380379.82349  23672470.1304   23672472.3044
  22005701.917     6294043.38149   4895655.13549  22005701.8304   22005707.5344
 98  1 28 17 41 59.9970000  0  9 22  3 19 31 18 27 16 13 14
  22722414.035     5826680.99549   4537355.84849  22722413.4114   22722418.3394
  22827973.265   -14223724.42849 -11070700.60749  22827972.8834   22827978.9704
  20822653.621   -14017096.96549 -10905895.63649  20822653.1874   20822657.9754
  23287695.022   -12879839.61749  -9739917.62649  23287695.0244   23287700.8614
  19668668.223   -13737175.90549 -10671398.29049  19668667.7754   19668671.6844
  23964134.808    -7874294.75349  -5835587.24649  23964135.7844   23964139.7244
  20615454.961    -1212188.71749   -937677.44849  20615454.2684   20615459.8484
  23647173.358     -639933.65849   -483963.93949  23647172.8034   23647177.7854
  22017964.658     6358484.14949   4945868.64149  22017965.0204   22017970.2864
 98  1 28 17 42 29.9970000  0  9 22  3 19 31 18 27 16 13 14
  22734168.192     5888449.14449   4585486.81449  22734167.7034   22734172.8574
  22812226.361   -14306474.39449 -11135181.03249  22812225.5654   22812231.1634
  20806472.793   -14102127.81249 -10972153.41349  20806472.3994   20806476.9984
  23263185.177   -13008639.47249  -9840280.99849  23263184.8024   23263191.5064
  19653919.435   -13814681.32049 -10731792.11349  19653919.1854   19653922.7474
  23942595.274    -7987486.03449  -5923788.25849  23942594.7674   23942600.2144
  20620585.460    -1185227.78649   -916668.95949  20620584.9164   20620590.2374
  23621869.131     -772905.58349   -587578.39849  23621867.8614   23621872.6454
  22030264.033     6423117.15649   4996231.94449  22030264.4254   22030269.2454
 98  1 28 17 42 59.9970000  0  9 22  3 19 31 18 27 16 13 14
  22745965.060     5950441.44649   4633792.44449  22745964.0874   22745969.7914
  22796549.080   -14388858.50149 -11199376.39849  22796548.3984   22796554.8254
  20790326.568   -14186976.98149 -11038269.61749  20790326.2674   20790330.6194
  23238676.133   -13137435.11949  -9940641.09749  23238674.6404   23238682.1314
  19639241.149   -13891816.38249 -10791897.35249  19639240.7774   19639244.4904
  23921061.377    -8100648.42949  -6011966.76149  23921060.4344   23921067.5134
  20625802.298    -1157813.23449   -895307.00249  20625801.8454   20625807.2164
  23596555.211     -905930.34649   -691234.03449  23596555.0354   23596559.6364
  22042597.523     6487929.68449   5046735.13449  22042597.9474   22042603.2104
 98  1 28 17 43 29.9970000  0  9 22  3 19 31 18 27 16 13 14
  22757802.781     6012648.39249   4682265.33049  22757802.2014   22757807.4054
  22780942.529   -14470871.22049 -11263282.35949  22780942.1624   22780947.2744
  20774213.753   -14271650.36549 -11104248.84749  20774213.4414   20774217.9984
  23214170.797   -13266211.11949 -10040985.89649  23214169.8154   23214175.7844
  19624631.421   -13968590.85949 -10851721.61249  19624630.9314   19624634.7884
  23899533.962    -8213775.92749  -6100118.05249  23899534.1074   23899539.1554
  20631103.060    -1129957.84349   -873601.53049  20631102.5954   20631107.8194
  23571230.880    -1039009.88249   -794932.35049  23571230.6974   23571234.6954
  22054966.311     6552927.92649   5097383.03549  22054966.2454   22054971.7244
 98  1 28 17 43 59.9970000  0  9 22  3 19 31 18 27 16 13 14
  22769680.362     6075065.08249   4730901.64349  22769678.8994   22769684.8454
  22765408.098   -14552505.19849 -11326893.19049  22765407.5164   22765413.0794
  20758135.911   -14356139.82549 -11170084.76049  20758135.2724   20758140.0114
  23189675.636   -13394933.63849 -10141289.04449  23189675.1824   23189680.8394
  19610090.731   -14045002.41449 -10911263.07849  19610090.4874   19610094.2094
  23878015.440    -8326856.34649  -6188232.63649  23878015.3344   23878020.8984
  20636489.268    -1101653.45649   -851546.19649  20636488.7264   20636494.0754
  23545898.788    -1172130.76149   -898662.89549  23545899.1934   23545903.4904
  22067373.160     6618125.83749   5148186.52049  22067372.6464   22067378.9934
 98  1 28 17 44 29.9970000  0  9 22  3 19 31 18 27 16 13 14
  22781594.949     6137676.39949   4779689.62449  22781593.9414   22781599.7784
  22749949.787   -14633739.87549 -11390192.89149  22749948.6884   22749954.3674
  20742090.115   -14440461.04849 -11235789.57349  20742089.6604   20742094.2944
  23165194.028   -13523584.87949 -10241536.63849  23165194.2204   23165198.5474
  19595614.468   -14121075.82049 -10970541.04449  19595614.0794   19595617.7844
  23856508.423    -8439876.14349  -6276299.99149  23856507.8034   23856515.4424
  20641961.861    -1072894.90249   -829136.95649  20641961.2584   20641966.5224
  23520560.597    -1305283.73849  -1002418.42949  23520560.4954   23520564.1554
  22079818.203     6683524.34349   5199146.30849  22079817.9004   22079823.2334
 98  1 28 17 44 59.9970000  0  9 22  3 19 31 18 27 16 13 14
  22793544.975     6200474.14549   4828622.87249  22793544.3284   22793549.6534
  22734572.476   -14714548.46449 -11453160.58749  22734572.4534   22734576.4254
  20726078.981   -14524599.91949 -11301352.30349  20726078.5244   20726083.0924
  23140729.810   -13652145.46249 -10341713.61249  23140728.6374   23140734.0954
  19581200.688   -14196820.64849 -11029562.98049  19581200.3874   19581204.0364
  23835016.628    -8552816.13549  -6364305.14349  23835016.1324   23835022.9014
  20647520.237    -1043685.51849   -806376.43449  20647519.8594   20647525.1494
  23495219.995    -1438449.26249  -1106183.73149  23495220.2084   23495224.6374
  22092302.979     6749131.88349   5250268.97749  22092303.0874   22092309.2024
 98  1 28 17 45 29.9970000  0  9 22  3 19 31 18 27 16 13 14
  22805532.107     6263466.54649   4877707.78949  22805531.3494   22805536.4044
  22719277.397   -14794924.66649 -11515791.35049  22719277.1624   22719281.5324
  20710101.774   -14608560.83649 -11366776.36449  20710101.6554   20710105.9034
  23116283.741   -13780610.35849 -10441816.01149  23116283.2004   23116289.6334
  19566853.842   -14272213.89349 -11088310.95749  19566853.3694   19566857.0394
  23813540.028    -8665676.88949  -6452248.53849  23813539.8394   23813546.0344
  20653163.733    -1014028.78449   -783267.32449  20653163.1234   20653168.4514
  23469878.581    -1571619.10049  -1209952.40849  23469878.8714   23469882.6654
  22104824.257     6814931.42749   5301541.26449  22104824.6084   22104829.8444
 98  1 28 17 45 59.9970000  0  9 22  3 19 31 18 27 16 13 14
  22817553.029     6326636.62349   4926931.16749  22817552.5174   22817557.6754
  22704060.428   -14874890.05749 -11578101.99849  22704060.0564   22704064.9284
  20694155.729   -14692357.76949 -11432072.64649  20694155.0954   20694159.7364
  23091851.637   -13909001.76549 -10541861.16749  23091850.9544   23091856.5554
  19552573.668   -14347256.60649 -11146785.79149  19552573.2954   19552577.1314
  23792073.112    -8778486.29749  -6540151.92449  23792073.0514   23792079.8204
  20658888.916     -983943.03849   -759823.91449  20658888.4694   20658893.8214
  23444534.344    -1704803.04649  -1313732.04149  23444534.3274   23444538.9004
  22117375.478     6880888.56549   5352936.34449  22117375.4804   22117381.0934
 98  1 28 17 46 29.9970000  0  9 22  3 19 31 18 27 16 13 14
  22829614.515     6390019.96849   4976320.72949  22829614.2174   22829618.2764
  22688926.145   -14954421.23549 -11640074.31049  22688924.8544   22688931.0594
  20678244.458   -14775971.81849 -11497226.41749  20678244.0304   20678248.3594
  23067438.460   -14037293.86849 -10641828.93149  23067437.1764   23067443.7434
  19538367.478   -14421910.58649 -11204957.71649  19538367.1204   19538370.8334
  23770619.307    -8891226.81949  -6628001.62449  23770619.1234   23770625.6224
  20664696.934     -953421.75549   -736041.13049  20664696.4084   20664701.6384
  23419190.982    -1837983.08149  -1417508.63649  23419190.3824   23419195.2094
  22129959.815     6947019.79549   5404467.08149  22129959.7784   22129965.2274
 98  1 28 17 46 59.9970000  0  9 22  3 19 31 18 27 16 13 14
  22841715.714     6453611.73649   5025872.68049  22841715.8194   22841720.5474
  22673869.297   -15033545.26249 -11701729.35849  22673868.8574   22673874.1214
  20662366.227   -14859412.34849 -11562244.98449  20662365.8824   20662370.3714
  23043042.682   -14165493.62749 -10741724.72149  23043041.9844   23043047.4004
  19524236.575   -14496168.78449 -11262821.24149  19524236.3724   19524240.0254
  23749172.428    -9003930.89149  -6715822.92949  23749171.9104   23749178.1924
  20670581.993     -922495.78249   -711943.00549  20670581.5744   20670586.8454
  23393845.196    -1971175.53149  -1521294.91549  23393845.2084   23393849.5954
  22142576.040     7013317.97849   5456127.90349  22142577.0534   22142582.3974
 98  1 28 17 47 29.9970000  0  9 22  3 19 31 18 27 16 13 14
  22853855.613     6517406.91849   5075583.15649  22853855.3154   22853859.6354
  22658885.951   -15112282.90249 -11763083.32649  22658885.2904   22658889.9004
  20646519.451   -14942687.57049 -11627134.73749  20646518.9424   20646523.5174
  23018661.661   -14293616.17949 -10841560.36149  23018660.7934   23018667.6054
  19510183.118   -14570020.38149 -11320367.93649  19510182.8214   19510186.4314
  23727731.410    -9116604.08549  -6803620.17349  23727730.6944   23727737.6994
  20676542.855     -891171.41949   -687534.44549  20676542.2884   20676547.8124
  23368494.763    -2104392.76549  -1625100.51849  23368494.8484   23368497.6504
  22155221.476     7079769.77649   5507908.44649  22155221.3994   22155227.0334
 98  1 28 17 47 59.9970000  0  9 22  3 19 31 18 27 16 13 14
  22866036.770     6581419.60749   5125463.10549  22866035.8234   22866041.8584
  22643978.369   -15190621.84349 -11824126.63549  22643977.7804   22643982.6694
  20630709.810   -15025767.65449 -11691872.43549  20630709.5374   20630713.6504
  22994298.977   -14421642.69849 -10941321.16449  22994297.5594   22994304.3304
  19496207.786   -14643461.36149 -11377594.67049  19496207.3964   19496211.2144
  23706302.033    -9229216.06249  -6891369.72149  23706301.8894   23706308.2804
  20682582.935     -859430.65249   -662801.41749  20682582.2364   20682587.7644
  23343143.085    -2237616.89049  -1728911.45449  23343143.3784   23343147.2234
  22167903.911     7146416.42949   5559840.79949  22167903.9094   22167909.1134
 98  1 28 17 48 29.9970000  0  9 22  3 19 31 18 27 16 13 14
  22878255.451     6645629.42849   5175496.66149  22878253.9844   22878260.2344
  22629143.713   -15268578.37049 -11884871.95849  22629142.8204   22629148.6854
  20614935.020   -15108664.60949 -11756467.43349  20614934.6684   20614939.2074
  22969951.391   -14549589.37149 -11041019.76249  22969950.8444   22969956.0904
  19482304.379   -14716524.12749 -11434526.68949  19482304.1024   19482307.8324
  23684881.386    -9341782.17249  -6979083.51549  23684880.8484   23684887.5104
  20688695.916     -827306.81849   -637769.89749  20688695.3344   20688700.7404
  23317783.603    -2370881.75849  -1832754.16149  23317783.3354   23317787.9164
  22180619.673     7213237.74749   5611909.24749  22180619.5174   22180625.4484
 98  1 28 17 48 59.9970000  0  9 22  3 19 31 18 27 16 13 14
  22890512.754     6710041.66949   5225687.95349  22890512.4684   22890516.6314
  22614385.191   -15346134.43449 -11945305.22449  22614384.4274   22614390.7054
  20599202.957   -15191336.78049 -11820887.27949  20599202.6094   20599207.2474
  22945621.498   -14677443.40249 -11140646.17049  22945620.4974   22945626.9514
  19468476.224   -14789191.52449 -11491150.62849  19468475.8154   19468479.4684
  23663475.404    -9454270.91549  -7066737.03549  23663474.6774   23663481.3004
  20694886.388     -794775.74749   -612421.04749  20694885.8094   20694891.4064
  23292420.510    -2504165.71849  -1936611.74749  23292420.0534   23292424.0404
  22193372.880     7280255.92549   5664131.10749  22193372.8984   22193379.3794
 98  1 28 17 49 29.9970000  0  9 22  3 19 31 18 27 16 13 14
  22902801.387     6774618.85649   5276007.76549  22902800.9314   22902806.3594
  22599700.786   -15423301.50549 -12005435.37949  22599700.5334   22599705.6454
  20583511.162   -15273797.61749 -11885142.44649  20583510.9324   20583515.2654
  22921302.674   -14805239.49849 -11240227.45049  22921302.5624   22921308.2364
  19454717.192   -14861495.80349 -11547491.61549  19454716.7504   19454720.6114
  23642084.709    -9566679.32849  -7154327.95449  23642084.3064   23642090.6394
  20701152.099     -761849.33649   -586764.14249  20701151.6814   20701156.9704
  23267050.465    -2637486.02949  -2040497.64649  23267050.7764   23267054.6824
  22206158.504     7347444.33749   5716485.61749  22206157.9374   22206164.1954
 98  1 28 17 49 59.9970000  0  9 22  3 19 31 18 27 16 13 14
  22915121.341     6839360.48649   5326455.71949  22915121.6214   22915125.5204
  22585095.963   -15500050.32849 -12065239.62149  22585096.0834   22585100.7754
  20567863.227   -15356028.17249 -11949218.17149  20567863.2054   20567867.1164
  22897000.297   -14932949.26749 -11339741.47649  22896999.3774   22897005.7264
  19441026.663   -14933439.96749 -11603551.99149  19441026.3974   19441030.0214
  23620710.414    -9679001.56649  -7241851.71949  23620709.8834   23620716.1644
  20707496.466     -728509.54449   -560785.11449  20707495.8594   20707501.5684
  23241677.082    -2770823.72649  -2144397.09349  23241676.7624   23241680.8824
  22218979.698     7414819.95449   5768986.00349  22218979.2814   22218985.1764
 98  1 28 17 50 29.9970000  0  9 22  3 19 31 18 27 16 13 14
  22927468.480     6904244.60349   5377014.70449  22927467.0154   22927472.7894
  22570572.544   -15576371.33749 -12124710.51149  22570572.6384   22570577.2624
  20552255.560   -15438046.92049 -12013128.85749  20552255.2604   20552259.8274
  22872717.773   -15060554.42049 -11439174.00049  22872717.1174   22872721.9864
  19427406.214   -15005015.96749 -11659325.49149  19427405.8974   19427409.6264
  23599350.690    -9791248.02849  -7329316.43349  23599350.5104   23599356.9474
  20713918.759     -694760.20549   -534486.96549  20713918.3734   20713923.8264
  23216302.046    -2904170.07549  -2248303.28149  23216303.3184   23216305.4234
  22231831.905     7482358.79749   5821613.57149  22231831.7734   22231837.4294
 98  1 28 17 50 59.9970000  0  9 22  3 19 31 18 27 16 13 14
  22939839.764     6969255.94849   5427672.84049  22939839.1504   22939844.1054
  22556130.942   -15652262.75749 -12183846.65549  22556130.7664   22556135.0414
  20536683.967   -15519876.22749 -12076891.93049  20536683.5904   20536687.9764
  22848452.777   -15188067.76649 -11538535.00749  22848451.8264   22848457.4034
  19413857.614   -15076214.24949 -11714804.66149  19413857.1064   19413860.6794
  23578005.309    -9903419.20949  -7416722.48949  23578004.5074   23578011.2024
  20720422.479     -660583.24549   -507855.60449  20720422.1004   20720427.6754
  23190927.002    -3037516.38249  -2352209.44249  23190927.0554   23190930.9484
  22244713.952     7550054.24049   5874363.15449  22244713.9754   22244720.1184
 98  1 28 17 51 29.9970000  0  9 22  3 19 31 18 27 16 13 14
  22952241.102     7034425.62949   5478454.34049  22952240.1854   22952246.0214
  22541778.516   -15727685.62449 -12242617.71049  22541778.7114   22541782.6614
  20521148.748   -15601514.28649 -12140505.97849  20521148.3454   20521152.8484
  22824211.248   -15315457.67749 -11637799.82849  22824210.4884   22824216.1674
  19400387.034   -15147002.56349 -11769964.38049  19400386.5324   19400390.2314
  23556678.024   -10015495.34849  -7504054.47749  23556677.0024   23556683.6674
  20727013.934     -625945.06349   -480864.85249  20727013.1874   20727018.9604
  23165554.134    -3170851.12149  -2456106.59449  23165554.3304   23165559.2674
  22257627.301     7617913.76949   5927240.58849  22257626.9654   22257633.0174
 98  1 28 17 51 59.9970000  0  9 22  3 19 31 18 27 16 13 14
  22964671.614     7099748.25449   5529355.02549  22964670.9594   22964676.0984
  22527512.221   -15802655.66049 -12301035.88949  22527512.4284   22527517.6474
  20505645.317   -15682985.20749 -12203989.78949  20505644.9674   20505649.3894
  22799994.912   -15442714.88649 -11736961.22149  22799994.6024   22800000.2604
  19386994.596   -15217380.43149 -11824804.26849  19386994.2934   19386997.9494
  23535362.358   -10127509.98449  -7591338.55849  23535362.1784   23535368.2054
  20733687.632     -590874.60049   -453537.25949  20733687.0474   20733692.8284
  23140178.803    -3304198.87449  -2560013.88349  23140178.4284   23140182.3374
  22270566.444     7685908.74949   5980223.57849  22270566.6084   22270571.9204
 98  1 28 17 52 29.9970000  0  9 22  3 19 31 18 27 16 13 14
  22977133.151     7165234.19649   5580382.96449  22977132.1024   22977138.3564
  22513328.588   -15877191.45749 -12359115.72549  22513329.2174   22513332.9574
  20490171.496   -15764300.84049 -12267352.59249  20490171.2704   20490175.5764
  22775803.155   -15569842.60649 -11836021.72549  22775802.1304   22775808.1794
  19373680.738   -15287345.25949 -11879322.31149  19373680.2404   19373684.1014
  23514055.915   -10239475.50849  -7678584.34649  23514055.5684   23514061.4314
  20740442.086     -555379.83649   -425879.04349  20740441.4914   20740447.1794
  23114798.971    -3437570.67249  -2663939.89549  23114798.5084   23114803.7554
  22283528.111     7754022.35549   6033299.02849  22283527.8354   22283534.2084
 98  1 28 17 52 59.9970000  0  9 22  3 19 31 18 27 16 13 14
  22989629.210     7230901.02249   5631551.85949  22989628.9814   22989634.6704
  22499228.103   -15951289.97649 -12416854.80249  22499226.9794   22499232.8044
  20474731.703   -15845437.54649 -12330575.97249  20474731.1194   20474735.6194
  22751633.289   -15696855.81549 -11934992.98549  22751631.5434   22751638.6384
  19360444.110   -15356904.10149 -11933523.99949  19360443.6844   19360447.3524
  23492758.414   -10351393.95349  -7765793.45049  23492757.7724   23492763.1624
  20747276.346     -519465.92949   -397894.21849  20747275.8304   20747281.3114
  23089413.723    -3570970.91349  -2767888.06149  23089414.4814   23089418.1254
  22296514.776     7822266.98749   6086476.55349  22296514.4244   22296520.1454
 98  1 28 17 53 29.9970000  0  9 22  3 19 31 18 27 16 13 14
  23002161.595     7296758.62149   5682869.40249  23002160.2164   23002166.5744
  22485213.125   -16024939.21649 -12474243.81149  22485212.8214   22485217.3874
  20459330.752   -15926369.95849 -12393640.16749  20459330.6004   20459334.9534
  22727491.961   -15823718.98449 -12033847.33349  22727490.6064   22727496.9314
  19347284.495   -15426058.16149 -11987410.27549  19347284.0544   19347287.6494
  23471471.843   -10463254.64449  -7852957.56049  23471471.7584   23471477.8594
  20754186.542     -483152.69149   -369598.22749  20754185.9564   20754191.4884
  23064026.920    -3704379.99349  -2871843.12949  23064027.1264   23064029.9434
  22309530.882     7890666.20049   6139774.53049  22309531.1434   22309536.4584
 98  1 28 17 53 59.9970000  0  9 22  3 19 31 18 27 16 13 14
  23014726.505     7362787.25949   5734320.21949  23014725.7474   23014731.1564
  22471278.016   -16098168.10049 -12531305.25949  22471278.0784   22471283.7434
  20443967.728   -16007103.10449 -12456549.09149  20443967.1664   20443972.0714
  22703375.900   -15950448.91149 -12132597.86349  22703374.9414   22703381.0944
  19334197.830   -15494828.83249 -12040997.81149  19334197.4844   19334201.1064
  23450192.680   -10575077.07949  -7940091.86149  23450192.5504   23450198.2324
  20761168.727     -446461.15149   -341007.46449  20761168.2724   20761173.7884
  23038640.294    -3837787.97149  -2975797.35949  23038639.8324   23038643.7984
  22322575.545     7959215.40249   6193189.37449  22322575.2034   22322581.9794
 98  1 28 17 54 29.9960000  0  9 22  3 19 31 18 27 16 13 14
  23027320.495     7428968.21649   5785889.74649  23027320.2084   23027324.6504
  22457423.099   -16170976.12749 -12588038.75349  22457423.7694   22457427.2164
  20428640.579   -16087647.55549 -12519310.97649  20428640.1574   20428644.5974
  22679281.189   -16077066.76449 -12231261.05849  22679280.8314   22679286.4664
  19321181.303   -15563231.15449 -12094298.31649  19321181.0654   19321184.7714
  23428922.477   -10686852.80749  -8027189.78549  23428921.5254   23428928.3994
  20768221.292     -409400.18949   -312128.83149  20768220.9504   20768226.3794
  23013254.456    -3971191.36649  -3079748.01949  23013254.7254   23013257.6464
  22335648.518     8027913.73949   6246720.43549  22335648.5824   22335654.6434
 98  1 28 17 54 59.9960000  0  9 22  3 19 31 18 27 16 13 14
  23039941.160     7495289.72449   5837568.77249  23039940.6314   23039945.5244
  22443651.093   -16243348.36249 -12644432.68949  22443650.8244   22443655.8174
  20413346.368   -16168019.17749 -12581938.18349  20413346.0954   20413350.2934
  22655205.057   -16203587.65049 -12329848.69449  22655204.1984   22655210.0314
  19308235.365   -15631262.71349 -12147309.91349  19308235.0974   19308238.7814
  23407663.458   -10798569.01949  -8114241.31049  23407662.5524   23407669.0714
  20775342.912     -371976.07949   -282967.23049  20775342.3404   20775347.9524
  22987867.746    -4104599.73649  -3183702.53349  22987867.9704   22987870.5134
  22348751.588     8096770.62249   6300375.03749  22348751.2514   22348757.6304
 98  1 28 17 55 29.9960000  0  9 22  3 19 31 18 27 16 13 14
  23052587.900     7561748.03249   5889354.40349  23052587.8854   23052592.7044
  22429962.390   -16315283.42149 -12700485.97449  22429962.5404   22429967.2964
  20398081.921   -16248234.45449 -12644443.56549  20398081.8324   20398085.9244
  22631149.835   -16329998.37849 -12428350.46849  22631149.6614   22631154.8124
  19295364.381   -15698900.36349 -12200014.56949  19295364.0774   19295367.7824
  23386419.109   -10910208.94549  -8201233.38949  23386419.1694   23386424.7354
  20782536.018     -334176.16749   -253512.79149  20782535.3504   20782540.8724
  22962481.997    -4238002.79349  -3287652.92449  22962481.6054   22962484.7264
  22361882.471     8165773.61549   6354143.48049  22361882.0714   22361888.3824
 98  1 28 17 55 59.9960000  0  9 22  3 19 31 18 27 16 13 14
  23065262.826     7628354.67049   5941255.59849  23065262.5414   23065267.0714
  22416359.897   -16386764.75549 -12756185.68449  22416358.6784   22416364.3264
  20382847.750   -16328290.40849 -12706824.80349  20382847.3384   20382851.6064
  22607115.272   -16456300.55349 -12526767.65749  22607115.1204   22607121.2704
  19282572.339   -15766122.96949 -12252395.81849  19282571.9334   19282575.5954
  23365190.186   -11021767.32849  -8288161.92149  23365189.5164   23365196.5304
  20789803.285     -295986.75449   -223754.84749  20789802.6494   20789808.3164
  22937095.559    -4371409.10849  -3391605.84649  22937095.8694   22937098.4554
  22375039.209     8234912.49849   6408017.80449  22375039.5124   22375045.7924
 98  1 28 17 56 29.9960000  0  9 22  3 19 31 18 27 16 13 14
  23077965.802     7695108.67249   5993271.64149  23077965.3774   23077970.0194
  22402848.952   -16457765.08049 -12811510.59049  22402848.1714   22402853.1174
  20367646.094   -16408175.48349 -12769072.88649  20367645.7024   20367650.0844
  22583104.908   -16582475.44249 -12625085.63949  22583103.9024   22583110.4934
  19269861.386   -15832919.40249 -12304444.98049  19269861.0634   19269864.8134
  23343978.285   -11133235.66549  -8375020.29549  23343977.9404   23343983.8924
  20797142.832     -257417.17249   -193700.67049  20797142.3184   20797147.9294
  22911707.226    -4504825.73749  -3495566.80049  22911707.6454   22911710.6094
  22388221.996     8304187.99749   6461998.59449  22388221.8674   22388228.3854
 98  1 28 17 56 59.9960000  0  9 22  3 19 31 18 27 16 13 14
  23090695.740     7762004.92549   6045398.50549  23090694.0854   23090700.0524
  22389427.611   -16528294.58349 -12866468.62549  22389427.0624   22389433.1764
  20352479.475   -16487876.33849 -12831177.42149  20352479.1724   20352483.6754
  22559120.151   -16708514.88349 -12723298.06949  22559118.4674   22559125.6384
  19257233.754   -15899278.22449 -12356153.14849  19257233.3854   19257237.2314
  23322781.902   -11244622.70349  -8461815.30549  23322781.1454   23322787.4864
  20804553.647     -218473.36849   -163354.88649  20804552.8584   20804558.8184
  22886316.315    -4638255.71049  -3599538.13849  22886315.4344   22886319.1804
  22401428.629     8373588.43549   6516076.73449  22401428.6844   22401434.8954
 98  1 28 17 57 29.9960000  0  9 22  3 19 31 18 27 16 13 14
  23103453.403     7829046.47549   6097638.61049  23103452.8624   23103457.5484
  22376090.729   -16598380.11149 -12921080.70149  22376089.8054   22376096.3324
  20337349.138   -16567386.83149 -12893133.62749  20337348.8864   20337353.2434
  22535162.408   -16834412.12049 -12821399.69349  22535160.5534   22535167.2734
  19244688.194   -15965205.55849 -12407525.09249  19244687.7604   19244691.4254
  23301596.887   -11355950.20749  -8548563.92649  23301596.2214   23301602.3234
  20812033.783     -179165.23949   -132725.21449  20812033.3694   20812038.6904
  22860922.277    -4771701.41849  -3703521.75149  22860922.2034   22860927.4594
  22414656.205     8443099.36649   6570240.96349  22414655.3774   22414662.2284
 98  1 28 17 57 59.9960000  0  9 22  3 19 31 18 27 16 13 14
  23116237.072     7896224.76849   6149985.25849  23116236.7924   23116241.4324
  22362837.651   -16668025.19649 -12975349.57149  22362837.4504   22362842.5194
  20322258.671   -16646687.74649 -12954926.52649  20322258.3234   20322262.8714
  22511234.898   -16960150.92949 -12919377.86449  22511234.4174   22511240.3164
  19232223.702   -16030706.85449 -12458565.06349  19232223.5294   19232227.2244
  23280423.337   -11467218.05449  -8635266.06849  23280422.1494   23280428.9054
  20819582.368     -139497.39449   -101815.24649  20819581.8734   20819587.3034
  22835527.213    -4905152.78149  -3807509.76849  22835527.8034   22835529.9034
  22427906.223     8512729.21949   6624497.84849  22427905.8444   22427912.9654
 98  1 28 17 58 29.9960000  0  9 22  3 19 31 18 27 16 13 14
  23129045.192     7963531.99549   6202432.35549  23129043.4164   23129051.4264
  22349665.984   -16737242.35349 -13029284.99849  22349665.1994   22349670.7874
  20307207.417   -16725782.45849 -13016558.74649  20307207.0034   20307211.2714
  22487338.996   -17085724.18649 -13017227.04749  22487338.2304   22487344.1294
  19219841.665   -16095774.99849 -12509267.51049  19219841.2614   19219845.0264
  23259259.513   -11578434.75549  -8721928.35149  23259258.6304   23259264.7514
  20827200.637      -99463.14449    -70619.76649  20827200.2894   20827205.9364
  22810134.680    -5038591.23649  -3911487.73749  22810134.8124   22810138.4804
  22441178.817     8582477.26549   6678846.82949  22441179.2154   22441185.6604
 98  1 28 17 58 59.9960000  0  9 22  3 19 31 18 27 16 13 14
  23141877.456     8030966.17249   6254978.38249  23141877.2924   23141882.7194
  22336573.991   -16806040.83349 -13082894.18849  22336573.2624   22336578.7314
  20292191.610   -16804690.93549 -13078045.84949  20292191.4484   20292195.9454
  22463473.975   -17211135.37849 -13114949.94949  22463473.5514   22463479.5434
  19207543.090   -16160404.39349 -12559628.07849  19207542.7854   19207546.3874
  23238103.918   -11689607.69849  -8808556.53449  23238104.1654   23238110.0374
  20834890.404      -59053.18949    -39131.53149  20834889.6964   20834895.4944
  22784746.765    -5172005.41349  -4015446.80349  22784746.7984   22784750.8954
  22454472.399     8652334.58949   6733280.99849  22454473.2124   22454478.4444
 98  1 28 17 59 29.9960000  0  9 22  3 19 31 18 27 16 13 14
  23154731.766     8098515.48349   6307614.13449  23154731.2534   23154735.5454
  22323563.872   -16874409.47549 -13136168.43049  22323563.4994   22323569.0084
  20277208.870   -16883425.64049 -13139397.54949  20277208.2414   20277212.9024
  22439639.250   -17336387.33049 -13212548.77749  22439638.6414   22439645.3544
  19195324.646   -16224612.96749 -12609660.73549  19195324.4434   19195328.0754
  23216955.039   -11800745.69349  -8895157.49349  23216954.1974   23216960.6604
  20842651.456      -18268.67849     -7351.43649  20842650.9634   20842656.7404
  22759363.987    -5305392.99149  -4119385.13949  22759363.3714   22759367.2954
  22467785.993     8722297.16349   6787797.16649  22467785.9154   22467791.4794
 98  1 28 17 59 59.9960000  0  9 22  3 19 31 18 27 16 13 14
  23167604.202     8166160.16249   6360324.17649  23167602.9624   23167608.9584
  22310640.263   -16942323.53449 -13189088.44749  22310639.7754   22310644.2274
  20262257.386   -16961995.96249 -13200621.15649  20262257.0814   20262261.5004
  22415834.737   -17461481.29949 -13310024.50149  22415834.2514   22415841.0744
  19183185.573   -16288404.17449 -12659368.16649  19183185.2474   19183188.8904
  23195812.369   -11911850.73749  -8981732.77249  23195812.3834   23195818.0984
  20850482.471       22883.48049     24715.14049  20850482.1424   20850487.6024
  22733986.358    -5438752.86649  -4223301.88949  22733985.1604   22733990.0264
  22481117.158     8792352.38249   6842385.53149  22481116.5774   22481123.6044
 98  1 28 18  0 29.9960000  0  9 22  3 19 31 18 27 16 13 14
  23180497.796     8233916.39349   6413121.16949  23180496.8864   23180502.8554
  22297810.662   -17009743.49149 -13241623.46549  22297810.6674   22297815.5184
  20247337.350   -17040401.27049 -13261716.17949  20247336.9804   20247341.4454
  22392063.069   -17586402.56949 -13407365.66249  22392062.2384   22392069.0824
  19171127.864   -16351767.81849 -12708742.43249  19171127.3854   19171131.1254
  23174677.269   -12022916.23249  -9068277.25149  23174677.1954   23174682.2364
  20858383.130       64401.44249     57066.75949  20858382.8724   20858387.8994
  22708615.982    -5572074.62249  -4327188.91849  22708616.1224   22708621.1494
  22494465.719     8862499.14949   6897045.23449  22494465.9454   22494471.2534
 98  1 28 18  0 59.9960000  0  9 22  3 19 31 18 27 16 13 14
  23193410.693     8301774.20149   6465997.29649  23193410.0264   23193415.2474
  22285075.198   -17076668.94849 -13293773.14849  22285074.6144   22285080.2004
  20232450.638   -17118631.37949 -13322674.68649  20232450.3064   20232454.6584
  22368323.528   -17711154.50049 -13504574.88249  22368323.1724   22368329.5094
  19159145.791   -16414733.89649 -12757806.90949  19159145.3104   19159149.0324
  23153551.647   -12133931.93449  -9154782.91449  23153550.6104   23153557.1874
  20866352.157      106278.61549     89698.28449  20866351.8954   20866357.3454
  22683250.116    -5705372.73849  -4431057.55449  22683250.5324   22683254.1494
  22507831.012     8932734.19649   6951773.70649  22507830.8434   22507837.7124
 98  1 28 18  1 29.9960000  0  9 22  3 19 31 18 27 16 13 14
  23206344.856     8369743.49149   6518960.30049  23206344.3024   23206349.9794
  22272433.427   -17143102.10949 -13345539.22549  22272432.9664   22272438.6654
  20217600.774   -17196668.07149 -13383482.47849  20217600.4164   20217604.7444
  22344618.600   -17835724.79749 -13601642.57249  22344617.2934   22344623.7074
  19147237.336   -16477313.29249 -12806570.07449  19147236.9544   19147240.6754
  23132438.644   -12244881.40249  -9241236.98149  23132438.6264   23132444.6474
  20874387.926      148506.40849    122603.01549  20874387.3524   20874393.2204
  22657888.412    -5838649.22449  -4534909.32349  22657888.3604   22657892.1724
  22521213.977     9003062.15949   7006574.57749  22521213.9384   22521220.6074
 98  1 28 18  1 59.9960000  0  9 22  3 19 31 18 27 16 13 14
  23219303.248     8437840.06749   6572022.48849  23219303.8804   23219308.6624
  22259885.678   -17209040.95349 -13396920.12549  22259885.1824   22259890.6764
  20202788.935   -17274504.77749 -13444134.44149  20202788.6004   20202792.6724
  22320952.165   -17960092.41749 -13698552.35249  22320951.0474   22320958.0064
  19135406.280   -16539485.96249 -12855016.31649  19135405.9144   19135409.5104
  23111341.326   -12355748.50949  -9327626.87449  23111340.1624   23111346.4594
  20882491.521      191090.80749    155785.62749  20882490.8924   20882496.3824
  22632532.576    -5971895.40449  -4638737.48649  22632533.6534   22632536.5364
  22534616.329     9073491.50549   7061454.44449  22534617.2094   22534623.1474
 98  1 28 18  2 29.9960000  0  9 22  3 19 31 18 27 16 13 14
  23232285.341     8506060.96949   6625181.56549  23232284.1744   23232290.0524
  22247426.411   -17274514.85649 -13447938.74249  22247425.4784   22247430.4594
  20188016.112   -17352136.50149 -13504626.67849  20188015.8774   20188020.0184
  22297322.073   -18084269.15849 -13795313.41349  22297323.0544   22297326.8944
  19123649.831   -16601266.62449 -12903157.09549  19123649.4034   19123653.1884
  23090257.693   -12466543.54149  -9413960.59749  23090257.4674   23090263.9704
  20890660.768      234020.33749    189237.16349  20890660.6274   20890665.8714
  22607180.642    -6105121.03149  -4742549.61749  22607180.8644   22607184.8974
  22548037.681     9144020.24049   7116411.78049  22548037.9584   22548044.1434
 98  1 28 18  2 59.9960000  0  9 22  3 19 31 18 27 16 13 14
  23245291.565     8574408.64649   6678439.39349  23245291.0904   23245297.0404
  22235052.677   -17339539.16949 -13498607.01549  22235052.2644   22235056.6654
  20173282.855   -17429560.11349 -13564956.74649  20173282.3074   20173286.6664
  22273728.086   -18208256.80149 -13891927.13349  22273727.6494   22273731.8604
  19111970.805   -16662640.19449 -12950980.65849  19111970.4484   19111974.1654
  23069188.833   -12577261.15849  -9500234.00049  23069188.5034   23069194.2554
  20898897.726      277305.47649    222965.80449  20898897.2154   20898902.7874
  22581832.198    -6238328.13749  -4846347.32249  22581831.6134   22581835.2944
  22561477.877     9214648.31649   7171446.49449  22561477.7144   22561484.3784
 98  1 28 18  3 29.9960000  0  9 22  3 19 31 18 27 16 13 14
  23258321.921     8642883.03149   6731795.97549  23258320.7004   23258325.6814
  22222766.568   -17404102.97649 -13548916.46949  22222766.3494   22222771.2754
  20158586.200   -17506791.37449 -13625136.93449  20158585.7914   20158590.2304
  22250171.998   -18332044.99749 -13988385.44249  22250171.1574   22250176.9484
  19100375.473   -16723574.15649 -12998461.67249  19100375.2554   19100379.0674
  23048132.199   -12687914.37349  -9586457.22749  23048131.7704   23048137.3504
  20907201.294      320940.90649    256967.39149  20907200.6264   20907206.0754
  22556490.607    -6371498.75549  -4950116.60049  22556490.8764   22556494.4924
  22574936.836     9285375.23149   7226558.24749  22574935.9974   22574944.3824
 98  1 28 18  3 59.9960000  0  9 22  3 19 31 18 27 16 13 14
  23271373.300     8711467.90949   6785238.66549  23271372.8844   23271378.3714
  22210568.935   -17468201.89049 -13598863.66949  22210568.4534   22210573.9594
  20143924.949   -17583836.73749 -13685172.26349  20143924.6214   20143929.0964
  22226653.259   -18455636.71249 -14084690.64849  22226652.9484   22226658.4134
  19088867.771   -16784047.44249 -13045583.71649  19088867.3624   19088871.1644
  23027086.126   -12798512.49549  -9672637.50249  23027085.5304   23027092.0734
  20915571.761      364927.98549    291242.99249  20915571.1314   20915576.7224
  22531156.752    -6504628.91949  -5053854.35049  22531156.2254   22531160.2544
  22588412.608     9356190.35549   7281738.70849  22588413.0774   22588419.2634
 98  1 28 18  4 29.9960000  0  9 22  3 19 31 18 27 16 13 14
  23284444.446     8780156.90149   6838762.46149  23284443.1154   23284449.8294
  22198458.861   -17531840.65349 -13648452.29849  22198458.9374   22198464.0334
  20129298.263   -17660700.63349 -13745066.19149  20129297.8974   20129302.2454
  22203170.759   -18579037.97949 -14180847.44649  22203169.8154   22203176.1514
  19077446.835   -16844064.83349 -13092350.51849  19077446.5894   19077450.3954
  23006047.077   -12909073.11449  -9758788.56849  23006046.9654   23006052.8854
  20924005.665      409248.27449    325778.24049  20924005.1934   20924011.0284
  22505828.958    -6637727.49149  -5157567.47249  22505829.0394   22505832.4784
  22601901.913     9427076.67049   7336974.63349  22601902.2094   22601908.9114
 98  1 28 18  4 59.9960000  0  9 22  3 19 31 18 27 16 13 14
  23297535.186     8848948.74049   6892366.39149  23297533.9734   23297540.1414
  22186440.282   -17594998.58949 -13697666.26149  22186440.4074   22186445.0194
  20114701.654   -17737405.95549 -13804836.55349  20114701.2724   20114705.5504
  22179726.822   -18702235.77849 -14276845.68149  22179725.4764   22179732.3894
  19066115.886   -16903609.56149 -13138749.01049  19066115.4834   19066119.1414
  22985016.783   -13019587.39049  -9844903.50449  22985016.2244   22985022.1214
  20932502.990      453901.90649    360573.24049  20932502.5404   20932508.4294
  22480506.771    -6770796.19749  -5261257.33749  22480507.3394   22480509.1194
  22615404.296     9498031.28249   7392263.77049  22615404.6214   22615411.1854
 98  1 28 18  5 29.9960000  0  9 22  3 19 31 18 27 16 13 14
  23310646.568     8917849.09349   6946054.88449  23310645.5164   23310650.9384
  22174518.744   -17657646.89449 -13746483.12849  22174518.0814   22174523.5784
  20100137.454   -17813941.11549 -13864474.32149  20100136.9354   20100141.3244
  22156325.193   -18825211.45949 -14372670.83149  22156324.1264   22156330.2244
  19054876.083   -16962675.01449 -13184774.04149  19054875.5444   19054879.1104
  22964000.212   -13130029.82149  -9930962.48149  22964000.3234   22964005.4874
  20941062.305      498881.12849    395621.94349  20941061.4654   20941067.3604
  22455194.180    -6903814.59349  -5364907.99349  22455194.0934   22455197.1564
  22628921.242     9569062.52749   7447612.64249  22628920.8844   22628928.1854
 98  1 28 18  5 59.9960000  0  9 22  3 19 31 18 27 16 13 14
  23323780.066     8986865.68249   6999833.92949  23323779.0344   23323784.9534
  22162695.317   -17719779.78049 -13794898.35649  22162694.9264   22162699.4474
  20085607.432   -17890296.81649 -13923972.25949  20085607.1934   20085611.6714
  22132966.932   -18947959.08349 -14468318.25749  22132966.0064   22132972.2324
  19043724.327   -17021278.01249 -13230438.72249  19043724.0144   19043727.6344
  22942998.931   -13240392.33049 -10016959.17549  22942998.0634   22943004.6164
  20949682.356      544179.75849    430919.53149  20949681.8774   20949687.6514
  22429889.439    -7036791.89949  -5468526.63249  22429889.8704   22429892.7214
  22642451.285     9640162.94549   7503015.41049  22642451.5674   22642458.1164
 98  1 28 18  6 29.9960000  0  9 22  3 19 31 18 27 16 13 14
  23336934.239     9055990.95549   7053697.68149  23336932.8784   23336939.9474
  22150970.620   -17781393.77149 -13842909.27049  22150971.0324   22150975.4534
  20071110.593   -17966478.21249 -13983334.36549  20071110.2794   20071114.4604
  22109651.070   -19070484.05249 -14563792.20949  22109650.2784   22109656.0154
  19032656.565   -17079439.48649 -13275759.35449  19032656.2464   19032659.8744
  22922011.951   -13350679.57249 -10102897.19849  22922011.3324   22922017.5854
  20958361.530      589789.13849    466459.26949  20958360.7494   20958366.7754
  22404591.063    -7169735.23249  -5572118.80449  22404590.6554   22404594.6624
  22655994.103     9711330.04649   7558470.13249  22655994.3314   22656001.4644
 98  1 28 18  6 59.9960000  0  9 22  3 19 31 18 27 16 13 14
  23350107.578     9125217.37449   7107640.23649  23350105.3984   23350112.7854
  22139344.475   -17842489.35449 -13890516.20249  22139343.9414   22139349.4654
  20056646.893   -18042485.10049 -14042560.49849  20056646.7924   20056650.7444
  22086377.236   -19192788.77149 -14659094.53149  22086376.3104   22086382.2094
  19021673.535   -17137155.76949 -13320733.08849  19021673.2004   19021677.0184
  22901044.214   -13460865.38649 -10188756.18849  22901043.2784   22901049.4294
  20967103.602      635729.14049    502256.62749  20967102.9974   20967108.8524
  22379302.243    -7302628.74749  -5675672.15049  22379302.1124   22379305.2904
  22669552.493     9782578.64949   7613988.37549  22669553.1054   22669559.5914
 98  1 28 18  7 29.9960000  0  9 22  3 19 31 18 27 16 13 14
  23363299.915     9194543.57249   7161660.52149  23363300.2244   23363305.0724
  22127812.991   -17903087.43549 -13937735.48449  22127812.6644   22127818.1074
  20042220.476   -18118296.50649 -14101634.30549  20042220.0604   20042224.3514
  22063144.363   -19314877.79149 -14754228.77049  22063143.0844   22063150.0734
  19010772.825   -17194439.13249 -13365369.47749  19010772.4164   19010776.2864
  22880092.760   -13570965.20749 -10274548.17549  22880091.4724   22880098.4614
  20975908.315      681998.17749    538310.38549  20975907.9014   20975914.0324
  22354023.613    -7435468.99849  -5779184.00749  22354024.0614   22354025.7544
  22683125.615     9853906.27249   7669568.17949  22683124.7694   22683133.3514
 98  1 28 18  7 59.9960000  0  9 22  3 19 31 18 27 16 13 14
  23376508.001     9263952.34349   7215745.15449  23376508.2104   23376513.0094
  22116370.810   -17963216.50849 -13984589.31249  22116371.0554   22116375.3854
  20027831.461   -18193911.48149 -14160555.05649  20027831.2814   20027835.6014
  22039950.103   -19436763.78449 -14849204.81849  22039949.2514   22039955.2184
  18999950.869   -17251308.95749 -13409683.63149  18999950.5384   18999954.3134
  22859152.031   -13681009.09049 -10360296.58649  22859151.7794   22859157.2314
  20984776.286      728599.57949    574623.12249  20984775.7624   20984781.6514
  22328751.939    -7568272.37849  -5882667.11549  22328751.7074   22328755.4124
  22696712.982     9925308.11849   7725205.82149  22696713.4924   22696721.1354
 98  1 28 18  8 29.9960000  0  9 22  3 19 31 18 27 16 13 14
  23389729.129     9333428.99749   7269882.65149  23389728.6384   23389734.1204
  22105015.393   -18022889.12749 -14031087.46749  22105014.7374   22105020.7504
  20013478.211   -18269338.33249 -14219329.21149  20013477.8484   20013482.0934
  22016793.109   -19558454.29049 -14944028.53549  22016792.3524   22016798.3284
  18989208.154   -17307762.26049 -13453673.22149  18989207.7454   18989211.5154
  22838221.147   -13791001.32749 -10446004.75049  22838220.7794   22838226.9764
  20993706.923      775530.35949    611192.51549  20993706.3404   20993712.4854
  22303486.483    -7701042.84649  -5986124.58249  22303485.8284   22303489.3254
  22710313.254     9996777.06949   7780895.76049  22710314.9264   22710320.8914
 98  1 28 18  8 59.9960000  0  9 22  3 19 31 18 27 16 13 14
  23402964.229     9402979.17749   7324077.45949  23402964.7454   23402968.5554
  22093747.663   -18082101.05849 -14077226.63449  22093746.2584   22093753.2544
  19999162.623   -18344567.21649 -14277949.11049  19999162.1584   19999166.6484
  21993676.024   -19679935.12649 -15038688.85749  21993674.9664   21993681.3064
  18978546.192   -17363791.29349 -13497332.21349  18978545.8064   18978549.5664
  22817299.980   -13900942.89849 -10531673.44049  22817299.3724   22817305.3494
  21002700.700      822792.54449    648020.14949  21002700.4434   21002706.4674
  22278227.846    -7833777.43449  -6089554.08949  22278228.7934   22278230.8804
  22723925.315    10068307.63749   7836633.70349  22723925.8934   22723932.4494
 98  1 28 18  9 29.9960000  0  9 22  3 19 31 18 27 16 13 14
  23416212.885     9472600.75349   7378327.88849  23416213.1434   23416217.5124
  22082569.925   -18140840.18349 -14122997.38749  22082568.2564   22082574.6674
  19984887.309   -18419584.52849 -14336404.15149  19984886.7914   19984891.5254
  21970600.548   -19801196.65149 -15133178.28649  21970599.3414   21970605.8354
  18967964.598   -17419398.06049 -13540662.16649  18967964.4814   18967968.1874
  22796384.687   -14010853.09949 -10617317.67549  22796383.9024   22796389.6794
  21011753.835      870366.73049    685090.89949  21011753.3664   21011759.5274
  22252975.813    -7966477.58649  -6192956.75349  22252974.9964   22252979.4614
  22737545.404    10139880.87849   7892404.88949  22737545.0154   22737553.3924
 98  1 28 18  9 59.9960000  0  9 22  3 19 31 18 27 16 13 14
  23429473.152     9542283.61449   7432626.07949  23429472.4844   23429479.3144
  22071486.447   -18199084.45549 -14168382.54049  22071486.4884   22071491.9824
  19970649.795   -18494403.30649 -14394704.49049  19970649.2874   19970653.8354
  21947569.583   -19922225.25449 -15227486.21649  21947568.6544   21947575.4444
  18957466.992   -17474563.52749 -13583648.25149  18957466.6494   18957470.2454
  22775479.544   -14120709.94549 -10702920.33549  22775479.2844   22775485.1564
  21020866.270      918252.83449    722404.69649  21020865.6484   21020871.8314
  22227732.279    -8099133.10549  -6296324.63849  22227732.6814   22227735.9234
  22751172.309    10211489.77149   7948203.85649  22751173.7304   22751179.6914
 98  1 28 18 10 29.9960000  0  9 22  3 19 31 18 27 16 13 14
  23442747.192     9612039.28749   7486981.00649  23442747.1444   23442752.3394
  22060501.890   -18256809.22449 -14213362.87949  22060502.3324   22060506.2614
  19956449.056   -18569028.57949 -14452854.04549  19956448.7484   19956453.3024
  21924585.915   -20043005.05449 -15321600.27349  21924585.1864   21924591.8264
  18947059.889   -17529253.40249 -13626263.74449  18947059.6244   18947063.2034
  22754588.323   -14230493.34249 -10788465.76049  22754587.2874   22754593.7654
  21030037.545      966447.77949    759959.15249  21030037.2584   21030042.8604
  22202500.313    -8231727.88349  -6399645.19549  22202500.8294   22202503.5104
  22764806.909    10283139.28349   8004034.46349  22764808.8314   22764814.8994
 98  1 28 18 10 59.9960000  0  9 22  3 19 31 18 27 16 13 14
  23456038.262     9681883.31049   7541404.78949  23456037.6934   23456044.2594
  22049617.077   -18314009.95149 -14257934.87949  22049617.0484   22049621.3984
  19942288.270   -18643443.92049 -14510840.02049  19942288.0514   19942292.2094
  21901652.491   -20163521.28449 -15415508.95749  21901652.1724   21901658.0404
  18936748.874   -17583438.18549 -13668485.65949  18936748.5024   18936752.2164
  22733714.883   -14340183.72449 -10873938.70249  22733713.9374   22733719.9634
  21039269.275     1014960.58649    797761.29249  21039268.8274   21039274.4514
  22177284.809    -8364235.89349  -6502898.13949  22177284.1464   22177288.6954
  22778452.219    10354845.51049   8059909.29849  22778452.8954   22778460.0744
 98  1 28 18 11 29.9960000  0  9 22  3 19 31 18 27 16 13 14
  23469340.588     9751786.69749   7595874.82349  23469339.8444   23469347.2594
  22038827.856   -18370708.03049 -14302115.20149  22038827.5774   22038832.3824
  19928161.137   -18717682.89249 -14568688.56049  19928160.7514   19928164.8564
  21878765.556   -20283793.71849 -15509227.68249  21878765.2364   21878770.8614
  18926531.328   -17637131.80249 -13710324.84649  18926530.9154   18926534.6254
  22712855.586   -14449799.54149 -10959353.55849  22712854.7384   22712860.1104
  21048555.952     1063762.28649    835788.55149  21048555.0794   21048561.2074
  22152082.030    -8496677.45349  -6606099.31049  22152082.2134   22152085.5914
  22792105.281    10426592.26149   8115815.71249  22792105.1444   22792112.0584
 98  1 28 18 11 59.9960000  0  9 22  3 19 31 18 27 16 13 14
  23482652.128     9821739.39149   7650383.29449  23482652.1584   23482657.5044
  22028133.414   -18426907.83349 -14345907.25849  22028132.9314   22028137.3674
  19914062.541   -18791771.35849 -14626419.83249  19914062.1124   19914066.3624
  21855923.752   -20403828.60049 -15602761.30449  21855922.8194   21855928.5844
  18916407.178   -17690334.61749 -13751781.59049  18916406.6544   18916410.3654
  22692009.212   -14559347.74149 -11044715.71749  22692009.0894   22692015.5314
  21057896.003     1112844.42549    874034.32749  21057896.0424   21057901.4984
  22126889.511    -8629065.17449  -6709258.52649  22126889.3634   22126893.5214
  22805764.433    10498370.81249   8171746.90949  22805764.3184   22805772.5264
 98  1 28 18 12 29.9960000  0  9 22  3 19 31 18 27 16 13 14
  23495974.623     9891749.03649   7704936.15249  23495974.9354   23495979.7624
  22017531.922   -18482619.09349 -14389318.61449  22017530.7714   22017536.2884
  19899993.997   -18865701.92749 -14684028.06249  19899993.5414   19899997.9144
  21833125.418   -20523634.98249 -15696116.86449  21833124.8024   21833130.6274
  18906372.561   -17743066.82949 -13792871.62849  18906371.9714   18906375.7244
  22671171.581   -14668849.74049 -11130041.87049  22671171.0254   22671177.0424
  21067288.786     1162203.74849    912496.09149  21067288.0604   21067294.1394
  22101707.591    -8761396.90249  -6812374.11349  22101707.0674   22101711.3124
  22819428.388    10570174.66149   8227697.79549  22819429.2484   22819436.1764
 98  1 28 18 12 59.9960000  0  8  3 19 31 18 27 16 13 14
  22007021.174   -18537853.15549 -14432358.13349  22007021.9064   22007025.0604
  19885955.126   -18939476.62449 -14741514.83049  19885954.8304   19885959.1084
  21810371.412   -20643208.11149 -15789290.67249  21810371.3944   21810376.9784
  18896419.852   -17795368.47349 -13833626.15949  18896419.4914   18896423.1784
  22650336.859   -14778336.80249 -11215356.37749  22650335.9594   22650341.6944
  21076732.944     1211832.88349    951168.10049  21076732.5124   21076738.2464
  22076531.751    -8893696.95049  -6915465.01349  22076531.4254   22076535.6674
  22833093.375    10641983.88049   8283652.86149  22833093.3984   22833100.8434
 98  1 28 18 13 29.9960000  0  8  3 19 31 18 27 16 13 14
  21996603.703   -18592597.40449 -14475015.97449  21996603.2484   21996608.2934
  19871943.744   -19013106.94949 -14798889.10649  19871943.3104   19871947.3244
  21787660.608   -20762554.04149 -15882287.42849  21787659.5674   21787665.8044
  18886542.964   -17847272.25949 -13874070.67349  18886542.6494   18886546.3654
  22629501.114   -14887829.08249 -11300674.97349  22629500.2334   22629506.1974
  21086225.649     1261717.15049    990038.91749  21086224.9304   21086230.8294
  22051358.418    -9025983.20849  -7018545.16549  22051357.8534   22051361.7954
  22846755.321    10713777.24749   8339595.56549  22846754.9414   22846762.9504
 98  1 28 18 13 59.9960000  0  8  3 19 31 18 27 16 13 14
  21986282.864   -18646833.63349 -14517277.95349  21986281.9944   21986286.7824
  19857964.465   -19086568.63349 -14856131.97549  19857964.2874   19857968.4834
  21764996.137   -20881656.56749 -15975094.53049  21764995.0174   21765000.6214
  18876745.388   -17898758.88149 -13914190.12849  18876745.2214   18876748.8444
  22608669.000   -14997302.52349 -11385978.87349  22608669.0944   22608673.5604
  21095772.546     1311886.09049   1029131.54849  21095771.9114   21095777.9434
  22026193.889    -9158223.06749  -7121589.17849  22026193.7834   22026196.6684
  22860418.458    10785577.26849   8395543.45849  22860418.8514   22860425.7494
 98  1 28 18 14 29.9950000  0  8  3 19 31 18 27 16 13 14
  21976058.012   -18700565.53849 -14559146.96649  21976057.6624   21976063.4434
  19844020.304   -19159845.70549 -14913230.98449  19844019.9214   19844024.3464
  21742380.208   -21000503.89249 -16067702.76949  21742379.7244   21742384.8834
  18867028.115   -17949823.58349 -13953980.81049  18867027.7484   18867031.3214
  22587841.848   -15106749.86149 -11471262.43449  22587841.7034   22587846.6194
  21105375.466     1362349.50249   1068453.64749  21105374.5934   21105380.6454
  22001039.367    -9290411.05749  -7224592.76549  22001039.5474   22001042.3284
  22874086.088    10857400.47049   8451509.41749  22874086.0004   22874093.6824
 98  1 28 18 14 59.9950000  0  8  3 19 31 18 27 16 13 14
  21965933.763   -18753768.23449 -14600603.60349  21965933.3114   21965939.1134
  19830111.782   -19232935.43549 -14970184.01549  19830111.4694   19830115.5904
  21719814.203   -21119089.29749 -16160106.91249  21719813.5964   21719818.7504
  18857395.899   -18000441.34149 -13993423.23149  18857395.5674   18857399.1254
  22567023.478   -15216150.95449 -11556509.95549  22567022.2264   22567028.4344
  21115036.972     1413121.03149   1108015.82749  21115036.4544   21115042.4484
  21975894.640    -9422547.34949  -7327556.07149  21975895.4144   21975897.1254
  22887762.837    10929271.64249   8507512.76949  22887763.1914   22887771.3324
 98  1 28 18 15 29.9950000  0  8  3 19 31 18 27 16 13 14
  21955912.977   -18806427.53049 -14641636.80449  21955911.9984   21955917.0684
  19816239.551   -19305834.53849 -15026988.50549  19816239.1434   19816243.4604
  21697297.028   -21237417.61349 -16252310.73849  21697296.9044   21697302.2864
  18847855.333   -18050577.40949 -14032490.30549  18847854.7924   18847858.4754
  22546221.941   -15325463.43949 -11641688.44449  22546221.3964   22546226.8014
  21124756.939     1464199.34549   1147817.06649  21124756.3554   21124762.1934
  21950768.926    -9554583.41949  -7430441.27049  21950769.1794   21950771.4674
  22901449.547    11001195.48649   8563557.15949  22901448.8374   22901457.0214
 98  1 28 18 15 59.9950000  0  8  3 19 31 18 27 16 13 14
  21945993.773   -18858553.20549 -14682254.20449  21945992.9154   21945998.5424
  19802404.142   -19378540.10649 -15083642.18849  19802403.6914   19802408.0264
  21674829.504   -21355485.38749 -16344311.53549  21674828.8084   21674833.8344
  18838408.207   -18100222.34049 -14071174.67649  18838407.8224   18838411.6354
  22525436.836   -15434689.43449 -11726799.53749  22525436.8754   22525442.5504
  21134532.948     1515572.39749   1187847.97649  21134532.1684   21134538.4304
  21925663.216    -9686514.66449  -7533244.80849  21925663.7794   21925666.2824
  22915145.608    11073168.21049   8619639.66149  22915145.6354   22915152.7874
 98  1 28 18 16 29.9950000  0  8  3 19 31 18 27 16 13 14
  21936176.189   -18910145.17749 -14722455.72649  21936176.1814   21936180.2664
  19788604.595   -19451057.29749 -15140149.08349  19788604.4244   19788608.5764
  21652411.436   -21473292.55749 -16436109.26349  21652410.7184   21652416.2664
  18829052.845   -18149385.07749 -14109483.31049  18829052.3784   18829056.2454
  22504665.270   -15543844.43449 -11811855.31849  22504664.3454   22504670.3574
  21144358.177     1567204.30949   1228080.58949  21144357.6864   21144363.7694
  21900574.345    -9818357.52149  -7635979.46949  21900575.1074   21900577.1664
  22928845.595    11145161.19149   8675737.92049  22928844.7414   22928854.2814
 98  1 28 18 16 59.9950000  0  8  3 19 31 18 27 16 13 14
  21926460.381   -18961202.85749 -14762240.91949  21926460.1184   21926465.0534
  19774839.828   -19523391.56549 -15196513.43949  19774839.3644   19774843.5894
  21630044.464   -21590831.12849 -16527697.71149  21630043.2934   21630048.6624
  18819791.138   -18198055.72349 -14147408.49849  18819790.7104   18819794.4884
  22483908.035   -15652923.95149 -11896852.27549  22483907.3454   22483913.3284
  21154226.785     1619064.14049   1268490.80249  21154226.3744   21154232.4764
  21875506.026    -9950092.38749  -7738629.97649  21875506.1024   21875510.2144
  22942545.190    11217152.31849   8731834.71849  22942546.4564   22942553.7364
 98  1 28 18 17 29.9950000  0  8  3 19 31 18 27 16 13 14
  21916840.057   -19011758.19049 -14801634.66549  21916840.0174   21916844.5004
  19761110.336   -19595540.39849 -15252733.30449  19761110.0984   19761114.1104
  21607731.068   -21708088.35649 -16619066.91449  21607730.9394   21607735.7754
  18810621.061   -18246244.74749 -14184958.39549  18810620.8084   18810624.4624
  22463162.086   -15761944.44549 -11981803.23949  22463161.4674   22463168.1174
  21164135.868     1671136.56649   1309066.67149  21164135.3544   21164141.6234
  21850455.380   -10081734.26549  -7841208.03549  21850455.2954   21850458.7414
  22956241.934    11289129.02649   8787920.28449  22956242.1744   22956251.6794
 98  1 28 18 17 59.9950000  0  8  3 19 31 18 27 16 13 14
  21907312.862   -19061824.10249 -14840647.04549  21907311.8644   21907317.6224
  19747415.923   -19667504.93949 -15308809.56449  19747415.6394   19747419.7784
  21585474.220   -21825048.40749 -16710204.56449  21585473.8974   21585478.8884
  18801541.061   -18293960.60249 -14222139.59349  18801540.6344   18801544.4334
  22442422.600   -15870930.89349 -12066727.69249  22442422.3644   22442427.8284
  21174084.651     1723417.56949   1349805.06749  21174084.0874   21174090.3874
  21825415.135   -10213321.38649  -7943743.42649  21825415.2194   21825419.1664
  22969936.937    11361096.40149   8843998.55849  22969936.1544   22969946.1304
 98  1 28 18 18 29.9950000  0  8  3 19 31 18 27 16 13 14
  21897878.279   -19111402.75349 -14879279.74849  21897877.5454   21897883.5664
  19733755.957   -19739288.57849 -15364744.85949  19733755.4754   19733759.6554
  21563276.429   -21941698.70549 -16801100.84649  21563276.2154   21563281.7534
  18792551.729   -18341199.79049 -14258949.36049  18792551.4174   18792555.0474
  22421688.753   -15979888.00749 -12151629.27249  22421688.8084   22421694.3394
  21184074.754     1775915.78649   1390712.72249  21184074.7004   21184080.5654
  21800384.301   -10344859.16049  -8046240.36149  21800384.7084   21800386.6834
  22983631.758    11433063.42249   8900076.55149  22983632.1434   22983639.8214
 98  1 28 18 18 59.9950000  0  8  3 19 31 18 27 16 13 14
  21888531.542   -19160519.92249 -14917552.84949  21888530.9154   21888536.3264
  19720128.939   -19810899.10749 -15420545.25749  19720128.5294   19720132.7914
  21541137.680   -22058038.45949 -16891755.15249  21541137.5614   21541142.6264
  18783650.176   -18387977.84249 -14295399.79849  18783649.7704   18783653.5554
  22400959.977   -16088818.88949 -12236510.40149  22400958.8194   22400965.4904
  21194109.024     1828646.07849   1431801.21549  21194108.1844   21194114.3464
  21775360.533   -10476359.65749  -8148708.25849  21775359.2624   21775363.7854
  22997326.769    11505030.18149   8956154.35549  22997327.4124   22997336.3674
 98  1 28 18 19 29.9950000  0  8  3 19 31 18 27 16 13 14
  21879273.836   -19209169.67149 -14955461.72449  21879273.8344   21879278.5284
  19706534.487   -19882338.46349 -15476212.28049  19706534.2904   19706538.4364
  21519057.253   -22174071.98849 -16982170.84349  21519056.6174   21519062.2644
  18774832.252   -18434316.46649 -14331507.82749  18774831.9444   18774835.7324
  22380236.553   -16197720.74949 -12321368.91949  22380236.1454   22380240.8554
  21204190.697     1881625.45449   1473083.79949  21204190.0854   21204195.9624
  21750342.214   -10607831.70449  -8251153.98849  21750343.2314   21750346.0234
  23011022.061    11576997.96249   9012232.95449  23011021.9014   23011030.8324
 98  1 28 18 19 59.9950000  0  8  3 19 31 18 27 16 13 14
  21870111.114   -19257320.08749 -14992981.51449  21870110.4684   21870115.5934
  19692971.490   -19953612.40949 -15531750.41049  19692970.9604   19692975.3974
  21497034.363   -22289802.86149 -17072350.68849  21497033.2944   21497038.6554
  18766099.819   -18480205.81249 -14367265.76549  18766099.5304   18766103.2314
  22359521.337   -16306579.80849 -12406194.06849  22359520.5464   22359526.5214
  21214319.749     1934854.12549   1514560.64449  21214319.4424   21214325.4394
  21725335.196   -10739244.67249  -8353553.66849  21725334.8444   21725338.6744
  23024717.006    11648963.98949   9068310.18949  23024717.0504   23024725.2224
 98  1 28 18 20 29.9950000  0  8  3 19 31 18 27 16 13 14
  21861047.916   -19304947.41649 -15030093.70249  21861047.0824   21861052.1624
  19679441.432   -20024713.28449 -15587153.68449  19679440.8174   19679445.1854
  21475068.936   -22405231.41649 -17162294.97849  21475067.5604   21475074.0644
  18757456.628   -18525626.12049 -14402658.22449  18757456.3034   18757460.0094
  22338821.351   -16415358.83749 -12490956.87649  22338820.0274   22338826.6314
  21224498.926     1988345.98149   1556242.56949  21224498.2664   21224504.8834
  21700345.705   -10870565.31049  -8455881.41349  21700345.4934   21700349.8914
  23038410.459    11720922.22749   9124381.37349  23038410.3104   23038417.8114
 98  1 28 18 20 59.9950000  0  8  3 19 31 18 27 16 13 14
  21852088.825   -19352027.77249 -15066779.67449  21852088.3844   21852093.9344
  19665943.921   -20095642.86349 -15642423.47549  19665943.6214   19665947.8464
  21453160.060   -22520362.97749 -17252007.83349  21453159.5074   21453164.4194
  18748905.996   -18570559.92649 -14437671.58649  18748905.5034   18748909.2004
  22318143.841   -16524019.23949 -12575627.23349  22318143.4914   22318148.0314
  21234729.446     2042107.36749   1598134.51549  21234728.8034   21234735.1204
  21675376.373   -11001779.77649  -8558126.43249  21675376.1094   21675379.2884
  23052101.327    11792867.41849   9180442.37549  23052100.8134   23052109.3344
 98  1 28 18 21 29.9950000  0  8  3 19 31 18 27 16 13 14
  21843237.674   -19398540.47649 -15103023.31449  21843237.1324   21843242.9414
  19652478.854   -20166402.43849 -15697560.79749  19652478.5924   19652482.8104
  21431305.496   -22635209.25149 -17341498.39449  21431305.1164   21431309.7984
  18740450.665   -18614992.98449 -14472294.75949  18740450.5164   18740454.2434
  22297489.987   -16632555.62849 -12660200.97049  22297489.1994   22297494.6634
  21245009.855     2096131.00149   1640230.80249  21245009.5264   21245014.8044
  21650429.313   -11132877.30949  -8660280.32949  21650429.5104   21650432.4624
  23065788.304    11864792.56149   9236487.74249  23065785.8294   23065795.8334
 98  1 28 18 21 59.9950000  0  8  3 19 31 18 27 16 13 14
  21834490.652   -19444506.02349 -15138840.60549  21834490.4774   21834495.0454
  19639041.783   -20237014.76849 -15752583.38549  19639041.5344   19639045.6814
  21409501.973   -22749787.70549 -17430780.29049  21409501.2714   21409506.8894
  18732091.694   -18658919.74749 -14506523.41349  18732091.3434   18732095.1804
  22276854.610   -16740995.19049 -12744699.24549  22276853.9454   22276858.9644
  21255336.224     2150396.19449   1682515.32949  21255335.7874   21255341.5224
  21625498.195   -11263890.89649  -8762368.80949  21625498.7694   21625501.3864
  23079468.726    11936682.80049   9292505.88849  23079468.3874   23079476.7434
 98  1 28 18 22 29.9950000  0  8  3 19 31 18 27 16 13 14
  21825850.691   -19489909.49549 -15174219.93049  21825850.7884   21825855.0954
  19625637.134   -20307456.80449 -15807473.27449  19625636.7944   19625640.9924
  21387754.762   -22864070.29749 -17519831.63049  21387754.5064   21387758.6244
  18723832.249   -18702323.35849 -14540344.41649  18723831.8514   18723835.5134
  22256239.507   -16849328.01949 -12829114.35449  22256238.7774   22256244.2014
  21265713.955     2204931.26149   1725010.14249  21265713.6734   21265719.5364
  21600582.290   -11394824.77649  -8864395.18449  21600583.5574   21600586.3534
  23093145.549    12008554.83749   9348509.86049  23093145.3084   23093153.8884
 98  1 28 18 22 59.9950000  0  8  3 19 31 18 27 16 13 14
  21817314.092   -19534769.41949 -15209175.70549  21817313.2984   21817319.1554
  19612264.231   -20377731.90149 -15862233.08549  19612264.0724   19612268.3934
  21366064.605   -22978052.84449 -17608649.16149  21366063.3524   21366068.6064
  18715665.927   -18745237.73849 -14573784.20049  18715665.6244   18715669.3514
  22235635.147   -16957604.45549 -12913485.52749  22235634.5514   22235640.2754
  21276139.784     2259718.89749   1767701.76149  21276139.1654   21276145.5794
  21575679.487   -11525689.90849  -8966367.99149  21575679.7684   21575681.8484
  23106815.772    12080391.41949   9404486.18849  23106815.6044   23106824.6254
 98  1 28 18 23 29.9950000  0  8  3 19 31 18 27 16 13 14
  21808878.811   -19579096.76649 -15243716.47349  21808878.6084   21808883.9594
  19598926.650   -20447821.37049 -15916848.24849  19598926.2464   19598930.2494
  21344436.789   -23091707.49849 -17697211.18749  21344436.3844   21344441.7304
  18707591.170   -18787670.95549 -14606849.05549  18707590.9844   18707594.6154
  22215035.658   -17065854.94849 -12997836.48449  22215034.5524   22215041.8214
  21286613.211     2314756.87149   1810588.44449  21286612.6554   21286619.2314
  21550791.847   -11656475.45649  -9068278.79049  21550791.8374   21550794.9524
  23120479.278    12152192.37949   9460434.76049  23120479.9654   23120487.8434
 98  1 28 18 23 59.9950000  0  8  3 19 31 18 27 16 13 14
  21800546.178   -19622884.99249 -15277837.17149  21800545.5764   21800551.0964
  19585625.911   -20517717.22249 -15971312.53649  19585625.5644   19585629.7654
  21322876.212   -23205008.98749 -17785498.00549  21322875.2514   21322880.5614
  18699607.739   -18829624.35949 -14639540.02949  18699607.3914   18699610.9554
  22194438.924   -17174090.89049 -13082176.09049  22194438.3904   22194443.9024
  21297131.951     2370032.57349   1853660.37649  21297131.5634   21297138.0274
  21525921.958   -11787167.57449  -9170116.78049  21525921.5354   21525924.7054
  23134135.944    12223957.33049   9516355.27249  23134136.4714   23134145.2594
 98  1 28 18 24 29.9950000  0  8  3 19 31 18 27 16 13 14
  21792313.966   -19666145.45549 -15311546.61649  21792313.9054   21792317.9264
  19572364.064   -20587408.72549 -16025617.59549  19572363.8844   19572368.1044
  21301384.886   -23317946.35349 -17873501.09249  21301384.4484   21301389.1224
  18691711.658   -18871118.56549 -14671873.18549  18691711.3084   18691715.0174
  22173843.623   -17282319.57149 -13166510.04549  22173843.6074   22173848.5644
  21307692.253     2425526.87049   1896902.63849  21307691.4824   21307697.8724
  21501074.571   -11917741.37149  -9271862.57749  21501074.9764   21501077.5044
  23147781.863    12295665.88249   9572231.82849  23147782.6044   23147791.3334
 98  1 28 18 24 59.9950000  0  8  3 19 31 18 27 16 13 14
  21784180.308   -19708888.30449 -15344852.72049  21784179.5764   21784185.2454
  19559140.599   -20656898.77049 -16079765.67449  19559140.1894   19559144.4914
  21279964.330   -23430512.15249 -17961214.66349  21279964.0074   21279968.5604
  18683904.355   -18912146.30149 -14703842.85749  18683903.9924   18683907.8234
  22153252.245   -17390527.60249 -13250827.91049  22153251.4934   22153257.1644
  21318291.494     2481226.07449   1940304.58049  21318291.1244   21318297.4994
  21476254.522   -12048171.22249  -9373496.19249  21476254.1694   21476258.0674
  23161417.257    12367319.66449   9628065.69249  23161417.4944   23161426.1034
 98  1 28 18 25 29.9950000  0  8  3 19 31 18 27 16 13 14
  21776146.681   -19751105.54249 -15377749.27549  21776146.1584   21776151.6924
  19545955.751   -20726185.63949 -16133755.44049  19545955.5574   19545959.9474
  21258615.316   -23542701.79849 -18048635.12249  21258615.1874   21258619.4814
  18676190.597   -18952682.46649 -14735429.49449  18676190.2434   18676193.9124
  22132670.635   -17498684.63949 -13335106.04249  22132669.3624   22132674.9844
  21328929.042     2537126.43149   1983863.24749  21328928.5104   21328934.4964
  21451462.023   -12178456.81849  -9475017.41149  21451462.7714   21451465.3174
  23175045.560    12438936.16249   9683870.49349  23175045.9704   23175054.7714
 98  1 28 18 25 59.9950000  0  8  3 19 31 18 27 16 13 14
  21768213.376   -19792795.53249 -15410234.99349  21768212.8704   21768217.3614
  19532806.428   -20795285.74749 -16187599.67349  19532805.9704   19532809.9874
  21237333.583   -23654538.11049 -18135780.25749  21237333.0104   21237337.2904
  18668569.400   -18992732.27349 -14766637.14649  18668569.0094   18668572.6754
  22112098.843   -17606789.74549 -13419343.71349  22112097.9934   22112103.5634
  21339603.659     2593221.61249   2027573.73549  21339603.0704   21339609.1484
  21426695.642   -12308604.95049  -9576431.52149  21426695.2984   21426698.0954
  23188667.383    12510517.99649   9739648.26049  23188666.9204   23188676.5654
 98  1 28 18 26 29.9950000  0  8  3 19 31 18 27 16 13 14
  21760375.503   -19833983.62049 -15442329.60349  21760374.7664   21760379.7884
  19519688.967   -20864218.38749 -16241313.41349  19519688.6114   19519692.8484
  21216114.073   -23766047.37449 -18222670.54349  21216113.6404   21216118.6084
  18661038.349   -19032308.40749 -14797475.70249  18661037.7724   18661041.5474
  22091537.717   -17714838.72649 -13503537.63749  22091536.7874   22091542.5094
  21350314.722     2649508.31749   2071433.45349  21350314.1454   21350320.7454
  21401950.643   -12438640.56949  -9677757.95149  21401950.3384   21401954.5834
  23202281.072    12582057.05449   9795392.70949  23202280.7354   23202289.3004
 98  1 28 18 26 59.9950000  0  9  3 19 31 18 27 16  2 13 14
  21752637.813   -19874645.31949 -15474014.05949  21752637.3634   21752642.4154
  19506604.650   -20932977.03649 -16294891.57349  19506604.1694   19506608.5094
  21194955.140   -23877238.00649 -18309312.53249  21194954.7084   21194959.4214
  18653601.387   -19071389.58749 -14827928.58049  18653601.0014   18653604.6694
  22070989.819   -17822818.33749 -13587677.51149  22070989.1024   22070994.6694
  21361063.861     2705995.36849   2115449.28849  21361063.4434   21361069.2604
  23575468.511    -4338253.94549  -3041117.96949  23575468.2334   23575478.0284
  21377226.364   -12568567.34149  -9778999.55749  21377225.8544   21377229.8414
  23215889.989    12653571.44049   9851117.92649  23215890.3844   23215898.0184
 98  1 28 18 27 29.9950000  0  9  3 19 31 18 27 16  2 13 14
  21745007.297   -19914743.92949 -15505259.73949  21745007.3154   21745012.0534
  19493560.117   -21001526.44549 -16348306.69549  19493559.8094   19493563.9404
  21173859.276   -23988097.19849 -18395696.26849  21173858.4034   21173863.6504
  18646263.134   -19109952.41849 -14857977.54949  18646262.8314   18646266.4694
  22050457.169   -17930718.10249 -13671755.17049  22050456.3174   22050461.8844
  21371854.746     2762701.78849   2159636.06549  21371854.2334   21371860.0394
  23550366.174    -4470167.35649  -3143907.54649  23550364.6024   23550375.9064
  21352525.467   -12698371.17149  -9880145.37249  21352525.3544   21352529.5524
  23229500.434    12725093.28149   9906848.95949  23229500.5114   23229509.3804
 98  1 28 18 27 59.9950000  0  9  3 19 31 18 27 16  2 13 14
  21737477.462   -19954313.72249 -15536093.36049  21737476.6784   21737481.6814
  19480549.879   -21069895.79549 -16401581.51249  19480549.3564   19480553.5894
  21152820.141   -24098658.54249 -18481847.91149  21152819.3284   21152824.2724
  18639018.407   -19148023.77149 -14887643.55049  18639018.1364   18639021.7044
  22029932.811   -18038574.34149 -13755798.92349  22029932.1954   22029937.4224
  21382679.096     2819584.02949   2203959.83949  21382678.1204   21382684.7834
  23525295.329    -4601915.65849  -3246568.45049  23525294.8174   23525304.3114
  21327846.199   -12828061.81749  -9981203.00349  21327846.5594   21327850.4284
  23243103.947    12796578.93349   9962551.78449  23243104.2244   23243113.4734
 98  1 28 18 28 29.9950000  0  9  3 19 10 31 18 27 16  2 13
  21730041.047   -19993392.75349 -15566544.55749  21730041.0464   21730044.4714
  19467571.352   -21138098.23249 -16454726.26549  19467570.9214   19467575.0804
  23300154.789    -3757932.99249  -2904735.39049  23300154.0394   23300159.4484
  21131835.306   -24208934.79149 -18567777.39649  21131834.7554   21131839.3004
  18631865.862   -19185610.94649 -14916932.26849  18631865.6284   18631869.2894
  22009414.616   -18146398.05249 -13839817.33849  22009414.2504   22009419.7654
  21393529.772     2876604.59049   2248391.39449  21393528.6584   21393535.1624
  23500252.934    -4733514.92849  -3349113.22049  23500252.4644   23500261.2324
  21303184.656   -12957659.12249 -10082187.90049  21303185.1824   21303188.4364
 98  1 28 18 28 59.9950000  0  9  3 19 10 31 18 27 16  2 13
  21722700.548   -20031967.35949 -15596602.71049  21722700.9274   21722704.9364
  19454625.604   -21206128.43049 -16507736.80649  19454625.1334   19454629.6354
  23279374.816    -3867132.68149  -2989826.03549  23279373.5954   23279379.3204
  21110908.669   -24318905.08949 -18653468.48149  21110908.3424   21110912.8094
  18624807.777   -19222701.65449 -14945834.12949  18624807.4044   18624810.9694
  21988901.872   -18254192.70949 -13923813.10749  21988901.7304   21988906.1634
  21404406.745     2933763.50749   2292930.75249  21404405.9084   21404412.8984
  23475237.800    -4864970.51949  -3451546.03849  23475236.7624   23475246.3134
  21278544.475   -13087143.96349 -10183085.16149  21278544.1604   21278548.0184
 98  1 28 18 29 29.9950000  0  9  3 19 10 31 18 27 16  2 13
  21715457.826   -20070028.24949 -15626260.54649  21715457.3724   21715462.5764
  19441712.939   -21273985.10449 -16560612.13649  19441712.4734   19441716.7524
  23258671.418    -3975929.21749  -3074602.53449  23258670.3784   23258676.3614
  21090046.982   -24428534.02649 -18738893.58249  21090045.6054   21090051.1594
  18617846.756   -19259282.14149 -14974338.41649  18617846.4934   18617850.1464
  21968399.864   -18361931.27749 -14007765.18249  21968399.0444   21968404.4514
  21415314.848     2991085.87449   2337597.47649  21415314.2164   21415320.4214
  23450251.914    -4996272.34849  -3553859.02149  23450251.0694   23450259.8924
  21253929.924   -13216494.24249 -10283877.56849  21253929.6414   21253933.6404
 98  1 28 18 29 59.9950000  0  9  3 19 10 31 18 27 16  2 13
  21708310.746   -20107586.61549 -15655526.82649  21708309.7804   21708315.5324
  19428829.508   -21341687.97249 -16613367.61349  19428829.1914   19428833.4654
  23238042.962    -4084332.11049  -3159072.30849  23238042.4384   23238047.5074
  21069252.783   -24537808.19649 -18824042.23849  21069251.8804   21069256.2544
  18610982.160   -19295355.88749 -15002447.83849  18610981.8454   18610985.6134
  21947909.816   -18469607.09149 -14091668.35949  21947909.1894   21947914.1094
  21426257.087     3048587.91649   2382404.20549  21426256.4614   21426263.3364
  23425289.868    -5127448.46949  -3656074.03549  23425289.0304   23425298.0404
  21229340.503   -13345712.76549 -10384567.31149  21229340.8734   21229343.2264
 98  1 28 18 30 29.9950000  0  9  3 19 10 31 18 27 16  2 13
  21701266.022   -20144606.58549 -15684373.56149  21701266.5464   21701271.1194
  19415978.652   -21409219.60449 -16665989.65949  19415978.0484   19415982.5224
  23217493.927    -4192317.73449  -3243216.94249  23217492.7144   23217500.0924
  21048532.673   -24646692.88149 -18908887.40649  21048531.3054   21048536.4264
  18604214.999   -19330917.66149 -15030158.32149  18604214.7204   18604218.3474
  21927436.614   -18577193.97049 -14175502.23949  21927435.9424   21927440.8824
  21437241.112     3106308.81949   2427381.48149  21437240.7074   21437247.0784
  23400351.726    -5258498.94849  -3758191.12749  23400350.7644   23400360.0054
  21204774.902   -13474805.89149 -10485159.34049  21204775.3994   21204778.3844
 98  1 28 18 30 59.9950000  0  9  3 19 10 31 18 27 16  2 13
  21694330.890   -20181051.08749 -15712771.88549  21694330.1884   21694335.6094
  19403160.155   -21476581.25849 -16718479.25849  19403159.6724   19403163.9974
  23197025.377    -4299880.66149  -3327032.17649  23197024.9844   23197030.9014
  21027888.882   -24755176.70449 -18993420.21649  21027888.1664   21027892.0384
  18597542.936   -19365979.59149 -15057479.31649  18597542.5994   18597546.2984
  21906980.434   -18684691.71049 -14259266.65549  21906979.6044   21906984.8544
  21448270.361     3164267.32649   2472543.89549  21448269.6824   21448276.2764
  23375438.221    -5389420.05149  -3860207.38549  23375436.4824   23375446.5284
  21180233.188   -13603773.08949 -10585653.23449  21180232.5304   21180237.4254
 98  1 28 18 31 29.9950000  0  9  3 19 10 31 18 27 16  2 13
  21687504.703   -20216922.61549 -15740723.74649  21687504.9334   21687509.5154
  19390376.088   -21543762.09349 -16770827.96349  19390375.8924   19390379.9364
  23176636.626    -4407024.86649  -3410521.15249  23176635.4094   23176641.3504
  21007320.735   -24863262.80849 -19077643.11749  21007320.2154   21007324.2664
  18590966.467   -19400539.32849 -15084408.99349  18590966.0224   18590969.7524
  21886541.151   -18792101.00349 -14342962.15849  21886540.1444   21886545.6024
  21459345.291     3222466.30449   2517893.69649  21459344.2854   21459350.1744
  23350550.841    -5520203.36649  -3962116.26649  23350550.1114   23350558.5724
  21155715.118   -13732616.19349 -10686050.44249  21155715.1434   21155718.3054
 98  1 28 18 31 59.9950000  0  9  3 19 10 31 18 27 16  2 13
  21680782.391   -20252248.84149 -15768250.69249  21680781.9974   21680786.6964
  19377623.496   -21610777.50449 -16823047.76249  19377623.0814   19377627.0064
  23156322.241    -4513777.44549  -3493704.93949  23156320.4234   23156327.1114
  20986821.986   -24970984.24949 -19161581.88049  20986820.8264   20986826.8724
  18584478.964   -19434631.18149 -15110974.08549  18584478.5134   18584482.4024
  21866109.733   -18899468.60749 -14426625.16049  21866108.9584   21866113.5514
  21470456.861     3280858.06949   2563393.71149  21470456.4824   21470462.4184
  23325685.250    -5650872.46849  -4063936.13249  23325684.2154   23325692.6944
  21131215.835   -13861360.65449 -10786370.76849  21131215.5944   21131219.6584
 98  1 28 18 32 29.9950000  0  9  3 19 10 31 18 27 16  2 13
  21674167.236   -20287011.88549 -15795338.78749  21674167.2564   21674172.3504
  19364907.852   -21677598.78249 -16875116.28649  19364907.4144   19364911.4894
  23136083.242    -4620133.61049  -3576579.84749  23136082.4234   23136089.0004
  20966394.359   -25078331.65249 -19245229.18149  20966392.9084   20966398.7854
  18578082.930   -19468242.44249 -15137164.68649  18578082.5314   18578086.2454
  21845686.333   -19006794.19449 -14510255.42949  21845685.2374   21845691.4584
  21481602.523     3339428.68749   2609033.10149  21481602.2264   21481607.9414
  23300846.425    -5781400.69249  -4165646.21749  23300845.0914   23300853.4814
  21106736.861   -13989998.95049 -10886608.38249  21106735.9514   21106740.5094
 98  1 28 18 32 59.9950000  0  9  3 19 10 31 18 27 16  2 13
  21667658.108   -20321217.92249 -15821992.87449  21667657.9834   21667662.2064
  19352230.392   -21744219.25549 -16927028.34349  19352229.9704   19352234.1724
  23115919.197    -4726096.87249  -3659148.60149  23115919.1324   23115924.6934
  20946038.027   -25185304.39249 -19328584.53449  20946037.0004   20946041.9154
  18571781.407   -19501357.34349 -15162968.51849  18571781.2834   18571785.0184
  21825268.519   -19114090.14649 -14593862.61749  21825267.8414   21825273.2974
  21492779.045     3398161.24049   2654798.66649  21492778.5794   21492784.8414
  23276037.201    -5911772.79949  -4267234.65349  23276034.9864   23276044.5604
  21082281.638   -14118511.89549 -10986748.32649  21082281.9104   21082285.3794
 98  1 28 18 33 29.9950000  0  9  3 19 10 31 18 27 16  2 13
  21661254.715   -20354868.32749 -15848213.98449  21661255.0154   21661258.6634
  19339596.090   -21810612.85149 -16978763.61149  19339595.6674   19339599.8644
  23095831.548    -4831658.47049  -3741404.38149  23095830.4294   23095836.6854
  20925757.635   -25291878.34549 -19411629.15049  20925756.7004   20925761.2514
  18565579.514   -19533948.56949 -15188364.29449  18565579.3574   18565582.8464
  21804859.432   -19221340.42949 -14677434.21149  21804858.3914   21804863.5414
  21503988.262     3457065.83549   2700698.28649  21503987.6694   21503994.0914
  23251261.398    -6041969.61749  -4368686.49049  23251259.9284   23251268.8554
  21057856.334   -14246867.91649 -11086765.98549  21057857.0094   21057859.4144
 98  1 28 18 33 59.9950000  0  9  3 19 10 31 18 27 16  2 13
  21654950.722   -20387995.94249 -15874027.73249  21654950.8594   21654955.5534
  19326995.608   -21876828.83449 -17030360.47749  19326995.3304   19326999.4864
  23075815.254    -4936844.40349  -3823367.43249  23075814.7264   23075819.6344
  20905548.341   -25398078.56949 -19494382.54949  20905548.1104   20905552.2654
  18559467.791   -19566066.06649 -15213390.92849  18559467.6084   18559471.2624
  21784453.820   -19328572.76949 -14760991.83649  21784453.8264   21784457.9804
  21515220.374     3516090.36349   2746691.35749  21515219.3044   21515226.8724
  23226510.924    -6172033.27549  -4470034.56649  23226509.4524   23226518.9944
  21033453.049   -14375107.96349 -11186693.27649  21033452.6444   21033455.8904
 98  1 28 18 34 29.9940000  0  9  3 19 10 31 18 27 16  2 13
  21648750.821   -20420576.60549 -15899415.27949  21648750.5824   21648755.4564
  19314431.589   -21942853.33249 -17081808.13749  19314431.2974   19314435.5854
  23055878.174    -5041614.48549  -3905006.42449  23055877.3584   23055883.5244
  20885416.895   -25503869.98349 -19576817.39549  20885416.7474   20885420.4534
  18553452.155   -19597678.67449 -15238024.14549  18553451.7934   18553455.6254
  21764058.564   -19435750.41349 -14844506.85949  21764058.2864   21764062.5574
  21526478.953     3575254.19749   2792792.98649  21526478.4894   21526484.9664
  23201788.183    -6301951.21049  -4571269.09249  23201786.6474   23201794.8134
  21009075.405   -14503213.24849 -11286515.55249  21009074.8704   21009078.4174
 98  1 28 18 34 59.9940000  0  9  3 19 10 31 18 27 16  2 13
  21642654.227   -20452614.76049 -15924380.07749  21642653.8234   21642657.5164
  19301901.241   -22008700.66349 -17133117.74949  19301900.7524   19301905.1074
  23036022.712    -5145955.45349  -3986311.06649  23036021.3244   23036028.3714
  20865362.735   -25609255.16849 -19658935.70149  20865362.0104   20865366.7414
  18547532.083   -19628788.86449 -15262265.86549  18547531.7314   18547535.4264
  21743675.244   -19542864.95949 -14927972.70849  21743675.4874   21743680.0854
  21537765.839     3634566.88449   2839010.60149  21537765.0164   21537771.2554
  23177090.549    -6431736.63349  -4672400.38449  23177090.0744   23177098.0094
  20984725.355   -14631173.74549 -11386225.01949  20984725.1274   20984727.6704
 98  1 28 18 35 29.9940000  0  9  3 19 10 31 18 27 16  2 13
  21636661.659   -20484105.89349 -15948918.62849  21636661.4514   21636666.3044
  19289403.171   -22074378.44649 -17184295.24049  19289402.7644   19289407.0364
  23016252.641    -5249847.59449  -4067265.94649  23016252.2304   23016257.4184
  20845389.247   -25714215.93149 -19740723.28449  20845388.5784   20845394.0764
  18541709.407   -19659387.34349 -15286108.84449  18541708.7424   18541712.7254
  21723309.198   -19649889.75649 -15011368.62449  21723309.1464   21723313.3424
  21549080.909     3694028.00649   2885343.88049  21549080.8624   21549086.9504
  23152420.147    -6561379.66249  -4773420.72449  23152418.5344   23152427.6004
  20960405.427   -14758975.51049 -11485810.78649  20960405.6634   20960408.4854
 98  1 28 18 35 59.9940000  0  9  3 19 10 31 18 27 16  2 13
  21630773.736   -20515047.39149 -15973028.91149  21630773.5874   21630778.0094
  19276934.464   -22139901.92449 -17235352.50149  19276934.0664   19276938.5174
  22996569.691    -5353282.06949  -4147864.22149  22996568.5774   22996575.2454
  20825496.226   -25818753.70549 -19822181.25849  20825495.7894   20825500.4704
  18535984.938   -19689469.28649 -15309549.33149  18535984.5054   18535988.2694
  21702959.286   -19756829.18549 -15094698.01149  21702959.1444   21702963.6804
  21560421.909     3753624.96849   2931782.99549  21560421.0814   21560428.4614
  23127775.831    -6690886.24049  -4874334.73649  23127774.9654   23127782.8584
  20936113.764   -14886629.26249 -11585281.22749  20936113.0914   20936116.4114
 98  1 28 18 36 29.9940000  0  9  3 19 10 31 18 27 16  2 13
  21624990.609   -20545438.09449 -15996709.97649  21624990.3814   21624995.4894
  19264496.950   -22205261.37449 -17286281.94049  19264496.5474   19264500.7934
  22976971.852    -5456269.31249  -4228114.01049  22976970.5144   22976977.0044
  20805681.150   -25922882.26749 -19903320.37349  20805680.7674   20805685.6034
  18530362.271   -19719016.71449 -15332573.30949  18530361.8674   18530365.7164
  21682623.557   -19863693.96649 -15177969.23549  21682623.2924   21682628.6584
  21571788.690     3813357.67249   2978327.88849  21571788.1624   21571794.1174
  23103159.442    -6820245.93049  -4975134.31149  23103158.7664   23103166.5024
  20911851.699   -15014127.20349 -11684630.26149  20911851.3074   20911854.6364
 98  1 28 18 36 59.9940000  0  9  3 19 10 31 18 27 16  2 13
  21619319.665   -20575238.80749 -16019931.31149  21619319.5374   21619325.0034
  19252101.729   -22270398.67749 -17337038.27849  19252101.2684   19252105.6754
  22957464.715    -5558780.01949  -4307992.46849  22957463.8884   22957469.8204
  20785950.533   -26026566.94749 -19984113.60849  20785949.4174   20785955.1404
  18524847.808   -19747995.53349 -15355154.21449  18524847.4554   18524851.2174
  21662308.993   -19970447.76049 -15261153.99549  21662308.3364   21662313.8984
  21583190.370     3873273.97149   3025015.85349  21583189.0894   21583196.6844
  23078580.805    -6949406.42249  -5075778.65949  23078579.8624   23078588.1504
  20887630.461   -15141410.41749 -11783811.96749  20887630.5344   20887633.6644
 98  1 28 18 37 29.9940000  0  9  3 19 10 31 18 27 16  2 13
  21613752.202   -20604495.96849 -16042729.11849  21613752.4214   21613756.5044
  19239739.840   -22335360.85649 -17387658.15949  19239739.5054   19239743.7044
  22938039.826    -5660859.01849  -4387534.53149  22938039.2264   22938044.9834
  20766294.710   -26129858.91349 -20064600.83549  20766294.1244   20766299.1494
  18519432.411   -19776453.49049 -15377329.25749  18519432.2144   18519436.0994
  21642003.523   -20077153.60049 -15344301.37049  21642004.0524   21642008.3834
  21594618.412     3933328.63549   3071811.63249  21594617.8374   21594624.5244
  23054030.746    -7078417.26949  -5176306.39749  23054029.6774   23054037.6694
  20863442.284   -15268519.92349 -11882858.31949  20863442.2294   20863445.8374
 98  1 28 18 37 59.9940000  0  9  3 19 10 31 18 27 16  2 13
  21608290.101   -20633199.55049 -16065095.54549  21608289.6024   21608293.6434
  19227419.021   -22400107.20549 -17438109.86149  19227418.7554   19227422.8504
  22918699.999    -5762490.38849  -4466727.78549  22918698.5654   22918705.3284
  20746712.751   -26232762.83049 -20144785.69449  20746712.1304   20746717.4194
  18514116.968   -19804386.51949 -15399095.26149  18514116.5944   18514120.1574
  21621707.005   -20183812.63549 -15427412.27349  21621706.0644   21621710.6774
  21606076.577     3993541.63749   3118730.78849  21606075.6354   21606081.8524
  23029510.984    -7207269.06449  -5276710.20949  23029510.2224   23029519.1774
  20839290.165   -15395440.08749 -11981757.12849  20839290.1104   20839293.1614
 98  1 28 18 38 29.9940000  0  9  3 19 10 31 18 27 16  2 13
  21602930.624   -20661363.92449 -16087041.83149  21602930.8124   21602935.3354
  19215141.618   -22464625.38549 -17488383.76449  19215141.2354   19215145.4644
  22899445.676    -5863672.18849  -4545570.74249  22899444.8144   22899450.5024
  20727203.961   -26335282.16449 -20224670.86349  20727202.7164   20727208.2634
  18508898.001   -19831812.55849 -15420466.20849  18508897.4774   18508901.2734
  21601420.533   -20290418.30649 -15510481.60049  21601420.1584   21601424.1284
  21617564.228     4053909.19149   3165770.36249  21617564.2524   21617570.2194
  23005020.957    -7335964.40749  -5376992.10649  23005019.3664   23005027.3864
  20815174.392   -15522169.58849 -12080507.36849  20815175.3144   20815177.3324
 98  1 28 18 38 59.9940000  0  9  3 19 10 31 18 27 16  2 13
  21597669.390   -20689012.21749 -16108585.94749  21597668.7354   21597674.2944
  19202902.723   -22528941.36149 -17538500.11049  19202902.1174   19202906.3944
  22880275.921    -5964409.91049  -4624067.64549  22880274.7054   22880280.8214
  20707769.231   -26437412.38049 -20304252.82349  20707768.9704   20707773.9084
  18503770.750   -19858756.53049 -15441461.52349  18503770.3964   18503774.2494
  21581143.022   -20396976.84549 -15593514.19649  21581142.1664   21581147.0964
  21629079.294     4114421.13549   3212922.45449  21629079.0404   21629085.2224
  22980557.419    -7464520.08549  -5477165.15549  22980556.5424   22980564.4134
  20791092.719   -15648719.54649 -12179117.71449  20791092.9264   20791096.0044
 98  1 28 18 39 29.9940000  0  9  3 19 10 31 18 27 16  2 13
  21592504.510   -20716154.02049 -16129735.43249  21592504.3604   21592509.3984
  19190698.317   -22593075.98649 -17588475.14349  19190697.9564   19190702.2994
  22861189.255    -6064710.56949  -4702224.00149  22861188.1794   22861193.9544
  20688409.434   -26539149.24049 -20383528.26249  20688409.0924   20688413.4744
  18498734.543   -19885222.01449 -15462083.99049  18498734.1834   18498737.9104
  21560871.805   -20503502.35949 -15676521.06349  21560871.2794   21560876.1014
  21640616.993     4175051.47549   3260166.79249  21640616.4934   21640622.4964
  22956120.110    -7592938.23149  -5577231.04449  22956118.0904   22956127.1194
  20767040.294   -15775116.01149 -12277608.45549  20767039.8874   20767043.7524
 98  1 28 18 39 59.9940000  0  9  3 19 10 31 18 27 16  2 13
  21587439.004   -20742773.39649 -16150477.80249  21587439.3674   21587443.9934
  19178533.713   -22657001.34549 -17638287.11149  19178533.2184   19178537.5964
  22842187.578    -6164564.45049  -4780032.20949  22842185.8944   22842191.9974
  20669130.088   -26640463.31549 -20462474.26249  20669129.3794   20669135.0194
  18493792.957   -19911190.38549 -15482319.09349  18493792.5844   18493796.3644
  21540612.088   -20609967.77949 -15759481.09849  21540610.6164   21540616.3894
  21652178.722     4235808.21349   3307509.62849  21652177.3004   21652184.3444
  22931713.069    -7721197.25349  -5677172.92449  22931711.7164   22931720.2614
  20743016.634   -15901361.19349 -12375981.30949  20743016.4694   20743019.5854
 98  1 28 18 40 29.9940000  0  9  3 19 10 31 18 27 16  2 13
  21582476.977   -20768849.22849 -16170796.65949  21582477.0224   21582482.8274
  19166405.522   -22720735.32449 -17687949.95449  19166405.1444   19166409.3594
  22823271.047    -6263971.40549  -4857492.16249  22823270.3394   22823276.1274
  20649934.521   -26741337.10649 -20541077.18349  20649933.8184   20649938.7994
  18488947.834   -19936651.75249 -15502159.13049  18488947.4584   18488951.0754
  21520366.263   -20716360.10749 -15842384.17549  21520365.4814   21520370.0154
  21663764.741     4296692.68949   3354951.99249  21663764.3384   21663770.2934
  22907338.936    -7849283.44949  -5776980.14649  22907338.2004   22907346.2244
  20719021.228   -16027457.73849 -12474238.34149  20719020.9604   20719024.1914
 98  1 28 18 40 59.9940000  0  9  3 19 10 31 18 27 16  2 13
  21577623.131   -20794356.43349 -16190672.42749  21577623.7124   21577628.2854
  19154311.757   -22784288.60049 -17737471.98649  19154311.3364   19154315.8714
  22804439.438    -6362932.55249  -4934604.74049  22804438.4864   22804443.7894
  20630823.969   -26841764.12049 -20619331.95749  20630823.7884   20630827.9014
  18484202.362   -19961589.29949 -15521590.99549  18484201.9834   18484205.8084
  21500132.246   -20822690.60949 -15925239.08449  21500131.5294   21500136.5384
  21675377.939     4357720.19249   3402505.81249  21675376.5894   21675383.6464
  22883001.393    -7977177.55249  -5876637.68949  22883000.8684   22883008.3274
  20695056.558   -16153393.23849 -12572369.88149  20695056.4514   20695059.3734
 98  1 28 18 41 29.9940000  0  9  3 19 10 31 18 27 16  2 13
  21572877.823   -20819293.14449 -16210103.64449  21572878.0574   21572881.2984
  19142251.498   -22847665.77849 -17786856.79749  19142251.0454   19142255.2394
  22785692.349    -6461449.57249  -5011371.23449  22785691.6844   22785698.0134
  20611796.731   -26941752.99049 -20697245.33049  20611796.3504   20611800.1054
  18479556.469   -19986003.58749 -15540615.12549  18479556.1294   18479559.8754
  21479906.174   -20928979.44649 -16008061.51749  21479905.4914   21479910.1194
  21687017.063     4418883.60349   3450165.52349  21687016.9014   21687022.3584
  22858698.978    -8104887.28149  -5976151.55649  22858697.3834   22858705.2324
  20671121.557   -16279172.28349 -12670379.50349  20671121.6504   20671124.8424
 98  1 28 18 41 59.9940000  0  9  3 19 10 31 18 27 16  2 13
  21568240.841   -20843660.38549 -16229091.13649  21568239.8184   21568245.7574
  19130222.031   -22910881.07649 -17836115.47349  19130221.6634   19130225.9304
  22767029.201    -6559524.77149  -5087793.47049  22767028.3744   22767033.6834
  20592849.379   -27041322.19649 -20774831.68349  20592848.4784   20592853.1794
  18475009.148   -20009899.99249 -15559235.71449  18475008.7884   18475012.4424
  21459689.460   -21035218.42949 -16090845.10749  21459688.4474   21459693.1964
  21698681.464     4480179.66949   3497928.60449  21698681.5854   21698688.6654
  22834430.019    -8232420.40149  -6075527.79749  22834428.3144   22834437.2564
  20647218.846   -16404781.83649 -12768257.06749  20647218.9884   20647222.4514
 98  1 28 18 42 29.9940000  0  9  3 19 10 31 18 27 16  2 13
  21563712.132   -20867458.94449 -16247635.50149  21563710.9744   21563717.0744
  19118219.437   -22973955.17949 -17885264.11849  19118219.0524   19118223.3154
  22748450.559    -6657156.38449  -5163870.03849  22748449.4564   22748455.3164
  20573982.184   -27140469.81549 -20852089.52849  20573981.4294   20573985.8564
  18470559.531   -20033283.10149 -15577456.32449  18470559.2384   18470562.9154
  21439480.750   -21141415.74549 -16173596.22749  21439480.1874   21439485.3204
  21710369.609     4541601.03249   3545789.31249  21710369.1444   21710375.9284
  22810195.458    -8359772.42849  -6174762.92249  22810195.5804   22810201.9894
  20623351.467   -16530205.61649 -12865989.86949  20623351.5214   20623354.1714
 98  1 28 18 42 59.9940000  0  9  3 19 10 31 18 27 16  2 13
  21559287.917   -20890708.48149 -16265752.05749  21559287.2064   21559292.6634
  19106243.180   -23036890.91949 -17934304.95549  19106242.8534   19106246.9594
  22729957.106    -6754340.38349  -5239597.82249  22729957.1784   22729962.1564
  20555198.101   -27239180.53649 -20929006.94249  20555197.3934   20555201.7614
  18466206.117   -20056160.60049 -15595282.95749  18466205.6524   18466209.4324
  21419277.177   -21247586.39549 -16256326.56749  21419276.2744   21419282.3344
  21722077.379     4603125.51149   3593730.37649  21722077.1494   21722083.2274
  22785993.030    -8486956.32549  -6273867.04749  22785991.8964   22785999.8744
  20599523.188   -16655423.87749 -12963562.52749  20599522.8474   20599526.0254
 98  1 28 18 43 29.9940000  0  9  3 19 10 31 18 27 16  2 13
  21554966.593   -20913417.44249 -16283447.38249  21554965.6084   21554971.2184
  19094296.758   -23099669.86249 -17983223.61149  19094296.3044   19094300.6074
  22711550.371    -6851068.83249  -5314970.63049  22711549.4414   22711555.1354
  20536500.223   -27337438.21849 -21005571.32849  20536499.0684   20536503.8084
  18461948.098   -20078536.56249 -15612718.78349  18461947.7894   18461951.4804
  21399081.512   -21353715.26949 -16339024.35949  21399081.4144   21399085.5944
  21733800.872     4664732.74849   3641735.92449  21733800.5934   21733807.0304
  22761820.822    -8613981.53549  -6372847.51849  22761819.7804   22761827.3854
  20575735.620   -16780428.26949 -13060968.54349  20575736.0244   20575738.8444
 98  1 28 18 43 59.9940000  0  9  3 19 10 31 18 27 16  2 13
  21550747.199   -20935590.60149 -16300725.19449  21550747.4384   21550751.0354
  19082382.239   -23162281.11949 -18032011.60049  19082381.7724   19082386.0254
  22693231.279    -6947336.51449  -5389984.41249  22693230.4734   22693236.2004
  20517890.295   -27435233.78249 -21081775.63049  20517889.5114   20517893.8144
  18457785.455   -20100411.51449 -15629764.20749  18457784.9914   18457788.9054
  21378898.034   -21459780.00149 -16421672.16349  21378897.7974   21378902.3334
  21745538.029     4726411.54349   3689797.24049  21745537.7974   21745544.5214
  22737680.781    -8740837.64449  -6471696.22949  22737680.3714   22737687.2884
  20551988.302   -16905221.42849 -13158209.94649  20551988.8644   20551991.3404
 98  1 28 18 44 29.9940000  0  9  3 19 10 31 18 27 16  2 13
  21546628.858   -20957232.85049 -16317589.31849  21546628.0804   21546634.0554
  19070503.104   -23224706.36249 -18080654.64149  19070502.6764   19070506.9474
  22675001.635    -7043133.67049  -5464631.54549  22675000.3344   22675005.9524
  20499371.759   -27532548.96149 -21157605.60949  20499370.7314   20499376.0524
  18453718.089   -20121785.58949 -15646419.33749  18453717.9174   18453721.6354
  21358726.746   -21565780.93449 -16504270.25549  21358726.3514   21358730.2784
  21757288.807     4788162.05249   3737914.42449  21757287.9234   21757295.3824
  22713574.727    -8867514.59449  -6570405.33349  22713572.8914   22713581.7214
  20528279.994   -17029809.31949 -13255291.41049  20528280.7974   20528283.0414
 98  1 28 18 44 59.9940000  0  9  3 19 10 31 18 27 16  2 13
  21542610.398   -20978349.86149 -16334044.15449  21542610.3214   21542615.2704
  19058660.795   -23286938.33449 -18129147.08949  19058660.3044   19058664.6254
  22656859.319    -7138471.93849  -5538921.10549  22656858.5434   22656863.7034
  20480941.941   -27629397.96249 -21233072.33949  20480941.1104   20480946.4764
  18449745.212   -20142663.42249 -15662687.79049  18449744.9174   18449748.7624
  21338566.586   -21671723.22049 -16586822.65049  21338565.9984   21338570.6184
  21769052.017     4849978.11849   3786082.69749  21769051.3294   21769057.7414
  22689501.069    -8994021.71849  -6668982.10749  22689500.4864   22689507.3874
  20504606.880   -17154212.19449 -13352228.71449  20504607.1764   20504610.1814
 98  1 28 18 45 29.9940000  0  9  3 19 10 31 18 27 16  2 13
  21538693.316   -20998934.47949 -16350084.16049  21538693.0834   21538698.6374
  19046858.540   -23348959.47749 -18177475.25149  19046858.0754   19046862.3774
  22638805.106    -7233347.78849  -5612850.32149  22638805.0714   22638809.9684
  20462598.785   -27725791.71049 -21308184.32149  20462597.8584   20462602.4224
  18445870.175   -20163026.98749 -15678555.51449  18445869.8304   18445873.6924
  21318422.276   -21777581.85649 -16669309.85349  21318422.0744   21318426.4974
  21780831.112     4911877.30049   3834315.72049  21780830.9254   21780837.0584
  22665463.164    -9120340.88649  -6767412.44549  22665462.0774   22665469.8244
  20480966.379   -17278443.77349 -13449032.53549  20480966.2624   20480969.7824
 98  1 28 18 45 59.9940000  0  9  3 19 10 31 18 27 16  2 13
  21534882.818   -21018959.06949 -16365687.76149  21534881.7024   21534886.6514
  19035100.179   -23410750.07649 -18225623.76749  19035099.9744   19035104.1234
  22620842.755    -7327741.18149  -5686403.60549  22620841.0584   22620847.3904
  20444343.683   -27821722.77549 -21382935.77349  20444343.0764   20444347.5634
  18442098.957   -20182844.85549 -15693998.02249  18442098.4414   18442102.4154
  21298298.528   -21883332.82849 -16751713.17649  21298298.5354   21298303.0374
  21792633.450     4973898.75749   3882644.03049  21792632.9444   21792639.6434
  22641467.127    -9246440.31549  -6865671.56049  22641466.2994   22641473.2734
  20457361.460   -17402488.70349 -13545690.91049  20457362.0134   20457364.8394
 98  1 28 18 46 29.9940000  0  9  3 19 10 31 18 27 16  2 13
  21531178.122   -21038427.37449 -16380857.89049  21531178.2154   21531183.8094
  19023384.453   -23472316.58449 -18273597.66649  19023384.0854   19023388.3634
  22602969.808    -7421663.79849  -5759590.06049  22602968.5704   22602974.7434
  20426173.839   -27917205.88549 -21457338.17749  20426173.1354   20426178.0524
  18438430.499   -20202122.82949 -15709019.83149  18438430.2404   18438434.1714
  21278189.570   -21989006.19949 -16834056.02349  21278188.8464   21278193.7744
  21804458.799     5036040.77749   3931066.28649  21804458.2284   21804465.2944
  22617507.429    -9372348.63349  -6963781.76149  22617505.7174   22617513.5524
  20433792.623   -17526343.67449 -13642201.26349  20433792.5104   20433795.6354
 98  1 28 18 46 59.9940000  0  9  3 19 10 31 18 27 16  2 13
  21527581.118   -21057330.08749 -16395587.30749  21527581.2764   21527586.1734
  19011713.090   -23533649.92749 -18321389.87749  19011712.7754   19011716.8864
  22585189.322    -7515100.40649  -5832397.78749  22585188.2104   22585193.7254
  20408093.470   -28012219.06149 -21531374.39149  20408092.9514   20408097.7414
  18434870.251   -20220832.40749 -15723598.73449  18434870.0554   18434873.7844
  21258095.665   -22094600.10249 -16916336.93849  21258095.4974   21258099.8034
  21816309.693     5098317.35349   3979593.39249  21816309.1434   21816315.9854
  22593583.424    -9498069.61449  -7061745.98349  22593582.4884   22593588.8644
  20410264.054   -17649987.17049 -13738546.83249  20410264.1084   20410267.1804
 98  1 28 18 47 29.9940000  0  9  3 19 10 31 18 27 16  2 13
  21524080.705   -21075724.90649 -16409920.96249  21524080.5994   21524085.4044
  19000076.675   -23594799.86049 -18369039.16649  19000076.3914   19000080.5054
  22567495.423    -7608082.15749  -5904851.09949  22567494.3094   22567500.5274
  20390094.415   -28106804.71049 -21605077.46649  20390093.7724   20390098.6494
  18431408.659   -20239023.23449 -15737773.41749  18431408.2024   18431411.9584
  21238009.448   -22200154.09749 -16998586.75949  21238008.2034   21238014.5584
  21828176.214     5160676.60549   4028184.91649  21828175.0794   21828182.4664
  22569686.255    -9623649.57349  -7159600.31149  22569684.7724   22569692.9104
  20386768.510   -17773457.30849 -13834757.32249  20386768.7144   20386771.9764
 98  1 28 18 47 59.9940000  0  9  3 19 10 31 18 27 16  2 13
  21520680.557   -21093592.98749 -16423844.18249  21520679.9334   21520685.3884
  18988474.669   -23655768.86049 -18416547.48049  18988474.3034   18988478.5494
  22549891.458    -7700591.14649  -5976936.00849  22549890.7654   22549895.7344
  20372182.548   -28200932.14349 -21678423.49049  20372181.6224   20372186.8874
  18428045.498   -20256696.72749 -15751544.98749  18428045.1304   18428048.8634
  21217930.540   -22305669.61549 -17080806.60549  21217929.6334   21217934.7084
  21840059.410     5223122.96049   4076844.30849  21840059.6314   21840065.2644
  22545815.516    -9749090.54749  -7257346.34149  22545814.6074   22545821.7594
  20363310.225   -17896731.36549 -13930815.01649  20363310.3444   20363313.3534
 98  1 28 18 48 29.9940000  0  9  3 19 10 31 18 27 16  2 13
  21517381.391   -21110930.06749 -16437353.64549  21517380.6574   21517386.5804
  18976905.458   -23716565.43549 -18463921.42949  18976905.1324   18976909.4834
  22532380.703    -7792610.35149  -6048639.27749  22532380.2184   22532386.5914
  20354363.829   -28294570.08749 -21751388.09149  20354363.1284   20354368.0354
  18424782.021   -20273846.37449 -15764908.36149  18424781.7094   18424785.6694
  21197859.812   -22411141.66849 -17162992.58249  21197859.4874   21197864.0544
  21851958.494     5285652.87849   4125568.81949  21851957.6154   21851964.9464
  22521974.505    -9874375.35249  -7354970.67749  22521973.1024   22521980.6924
  20339894.370   -18019782.45349 -14026698.97849  20339894.3344   20339897.3154
 98  1 28 18 48 59.9940000  0  9  3 19 10 31 18 27 16  2 13
  21514186.718   -21127717.98549 -16450435.18949  21514186.1594   21514191.4144
  18965369.695   -23777186.45449 -18511158.58749  18965369.3584   18965373.3774
  22514967.881    -7884115.72449  -6119942.15849  22514967.1634   22514972.4884
  20336642.068   -28387698.79949 -21823955.90049  20336641.4664   20336645.6414
  18421620.359   -20290461.20749 -15777854.99749  18421620.0084   18421623.7284
  21177803.705   -22516537.16549 -17245118.90849  21177803.2524   21177807.2824
  21863875.896     5348278.20949   4174367.68149  21863876.1634   21863881.8544
  22498171.177    -9999461.84349  -7452440.46949  22498170.0014   22498177.4874
  20316524.502   -18142591.86049 -14122394.61149  20316524.6134   20316527.7344
 98  1 28 18 49 29.9940000  0  9  3 19 10 31 18 27 16  2 13
  21511094.340   -21143968.62849 -16463098.05849  21511093.6804   21511099.4434
  18953862.180   -23837658.85949 -18558279.94249  18953861.7054   18953866.0824
  22497646.622    -7975139.91249  -6190870.07949  22497645.7244   22497651.9884
  20319009.266   -28480359.84349 -21896159.28949  20319008.7234   20319012.7944
  18418551.673   -20306587.20949 -15790420.72849  18418551.2724   18418555.3154
  21157759.089   -22621872.32349 -17327198.21849  21157758.4694   21157762.8464
  21875804.853     5410964.33749   4223213.90649  21875804.6064   21875810.4864
  22474402.906   -10124364.07849  -7549766.68849  22474401.6164   22474408.8134
  20293196.270   -18265182.34749 -14217919.65349  20293196.4424   20293199.3274
 98  1 28 18 49 59.9940000  0  9  3 19 10 31 18 27 16  2 13
  21508114.921   -21159626.01049 -16475298.64049  21508115.1824   21508120.8024
  18942392.351   -23897933.21549 -18605246.97049  18942392.0054   18942396.2154
  22480422.888    -8065651.11249  -6261398.28749  22480422.1084   22480427.8354
  20301473.984   -28572508.22949 -21967963.19749  20301473.2634   20301477.8324
  18415585.832   -20322172.81249 -15802565.36549  18415585.5454   18415589.3884
  21137732.795   -22727111.17949 -17409202.48249  21137731.8834   21137736.6494
  21887753.274     5473752.99949   4272140.01949  21887753.3444   21887760.3844
  22450679.021   -10249033.45049  -7646911.45849  22450677.1804   22450684.8234
  20269920.279   -18387498.58149 -14313231.00049  20269920.4664   20269923.4084
 98  1 28 18 50 29.9940000  0  9  3 19 10 31 18 27 16  2 13
  21505238.268   -21174743.21749 -16487078.34149  21505238.3134   21505242.6024
  18930956.718   -23958027.80649 -18652073.92649  18930956.0624   18930960.2454
  22463288.177    -8155694.84449  -6331562.22249  22463286.9604   22463292.7064
  20284025.972   -28664198.24749 -22039409.93849  20284025.0124   20284029.9744
  18412715.838   -20337254.91649 -15814317.67049  18412715.4524   18412719.3804
  21117717.626   -22832291.39649 -17491161.06349  21117717.2894   21117721.2124
  21899713.904     5536606.06149   4321116.31549  21899714.2234   21899720.0764
  22426995.294   -10373491.19049  -7743891.31749  22426993.8454   22427001.6254
  20246688.775   -18509580.90849 -14408360.07949  20246689.0994   20246691.5054
 98  1 28 18 50 59.9940000  0  9  3 19 10 31 18 27 16  2 13
  21502467.264   -21189305.09349 -16498425.28049  21502468.1414   21502472.0644
  18919559.887   -24017918.50449 -18698742.00649  18919559.5114   18919563.5974
  22446240.834    -8245279.01549  -6401368.07049  22446239.6524   22446245.6514
  20266665.731   -28755426.65349 -22110496.97549  20266664.9604   20266669.3344
  18409942.946   -20351826.63149 -15825672.26849  18409942.5524   18409946.5364
  21097716.565   -22937397.57649 -17573061.94449  21097716.0654   21097720.4354
  21911687.091     5599524.97049   4370143.93149  21911687.2454   21911692.9324
  22403349.237   -10497750.73349  -7840716.73949  22403347.8354   22403355.5094
  20223498.801   -18631444.85449 -14503318.99049  20223499.1334   20223501.8674
 98  1 28 18 51 29.9940000  0  9  3 19 10 31 18 27 16  2 13
  21499805.561   -21203293.14149 -16509325.12049  21499805.1454   21499810.8764
  18908206.024   -24077583.38949 -18745234.13049  18908205.5624   18908209.8854
  22429281.590    -8334400.99349  -6470813.76449  22429281.4724   22429286.5994
  20249398.302   -28846167.46649 -22181204.06549  20249397.4244   20249401.8444
  18407271.223   -20365866.69749 -15836612.59249  18407270.7424   18407274.4734
  21077732.109   -23042416.06249 -17654894.49949  21077731.7204   21077736.1534
  21923676.004     5662526.37349   4419235.83149  21923675.8254   21923681.5464
  22379742.195   -10621806.29249  -7937383.22449  22379741.3974   22379748.1834
  20200353.257   -18753075.48649 -14598096.08949  20200353.2964   20200356.2564
 98  1 28 18 51 59.9940000  0  9  3 19 10 31 18 27 16  2 13
  21497246.876   -21216739.24749 -16519802.64749  21497246.7464   21497251.6734
  18896889.250   -24137053.44649 -18791574.44049  18896888.8764   18896893.0584
  22412406.308    -8423081.44349  -6539915.41849  22412404.8054   22412410.3544
  20232221.349   -28936432.75349 -22251540.62149  20232220.4554   20232225.2384
  18404696.881   -20379394.83949 -15847154.01849  18404696.6344   18404700.3344
  21057756.509   -23147388.45149 -17736691.13649  21057755.4394   21057760.4074
  21935675.179     5725581.77649   4468369.80249  21935673.8494   21935681.8804
  22356169.723   -10745679.93449  -8033907.96549  22356168.5074   22356175.9524
  20177246.636   -18874501.68149 -14692713.89949  20177246.5534   20177249.6724
 98  1 28 18 52 29.9940000  0  9  3 19 10 31 18 27 16  2 13
  21494795.351   -21229622.27749 -16529841.41849  21494793.9944   21494800.1254
  18885611.994   -24196315.76949 -18837752.88149  18885611.7034   18885615.7704
  22395619.890    -8511294.76949  -6608653.07749  22395619.0664   22395624.1474
  20215140.570   -29026192.61649 -22321483.34549  20215139.6304   20215143.7844
  18402220.604   -20392407.97149 -15857294.14049  18402220.2284   18402224.0544
  21037793.867   -23252292.70149 -17818434.67949  21037793.0394   21037797.8884
  21947686.236     5788699.96749   4517552.69749  21947686.4434   21947693.6674
  22332635.070   -10869354.01449  -8130277.19549  22332633.5694   22332640.9664
  20154179.389   -18995721.05949 -14787170.55049  20154179.5924   20154182.6044
 98  1 28 18 52 59.9940000  0  9  3 19 10 31 18 27 16  2 13
  21492446.085   -21241968.08349 -16539461.56949  21492446.2894   21492451.1094
  18874365.756   -24255415.25749 -18883804.43849  18874365.3794   18874369.4934
  22378917.769    -8599065.11649  -6677045.56049  22378916.5484   22378922.3604
  20198152.080   -29115467.57449 -22391048.22149  20198150.9314   20198155.8124
  18399835.759   -20404940.50549 -15867059.76749  18399835.4394   18399839.2074
  21017836.066   -23357171.73549 -17900158.57149  21017835.3754   21017840.4054
  21959700.572     5851835.62549   4566749.20649  21959700.2664   21959707.9054
  22309131.073   -10992867.28549  -8226521.13749  22309130.2014   22309136.5104
  20131145.597   -19116764.42649 -14881490.04749  20131145.3084   20131148.6054
 98  1 28 18 53 29.9940000  0  9  3 19 10 31 18 27 16  2 13
  21490207.017   -21253734.19149 -16548629.99349  21490206.1804   21490211.4324
  18863163.157   -24314285.30849 -18929677.21049  18863162.7944   18863166.9014
  22362314.360    -8686316.23849  -6745033.45849  22362313.2934   22362319.4504
  20181265.473   -29204206.96749 -22460195.77549  20181264.5214   20181269.3534
  18397552.828   -20416937.53449 -15876408.11949  18397552.5194   18397556.4054
  20997887.985   -23461999.31549 -17981842.37249  20997887.6354   20997892.3854
  21971726.775     5915032.95849   4615993.74949  21971725.4814   21971732.0804
  22285672.696   -11116141.30549  -8322578.62849  22285671.0814   22285678.9824
  20108157.745   -19237566.47949 -14975621.50949  20108158.0024   20108161.0074
 98  1 28 18 53 59.9940000  0  9  3 19 10 31 18 27 16  2 13
  21488074.197   -21264942.08249 -16557363.45549  21488073.5764   21488080.3964
  18852003.091   -24372932.06049 -18975375.99049  18852003.0204   18852007.1094
  22345808.115    -8773056.82549  -6812623.54149  22345807.0504   22345812.2474
  20164476.896   -29292431.24549 -22528941.94649  20164476.2644   20164480.9794
  18395370.218   -20428407.33849 -15885345.64649  18395369.8504   18395373.6424
  20977945.839   -23566796.09949 -18063502.17749  20977944.6014   20977949.6104
  21983759.435     5978264.53049   4665264.96549  21983758.4014   21983765.8904
  22262258.492   -11239183.14949  -8418455.21649  22262257.3504   22262264.3394
  20085212.350   -19358145.39649 -15069579.09549  20085212.8464   20085215.6704
 98  1 28 18 54 29.9940000  0  9  3 19 10 31 18 27 16  2 13
  21486040.975   -21275626.95649 -16565689.37649  21486040.9834   21486045.5584
  18840882.028   -24431373.81349 -19020915.02449  18840881.7094   18840885.7604
  22329397.220    -8859296.55549  -6879823.32749  22329396.6204   22329401.6094
  20147782.283   -29380161.98649 -22597303.53249  20147781.5114   20147786.7344
  18393285.776   -20439361.10349 -15893881.05849  18393285.4834   18393289.4084
  20958009.724   -23671561.03849 -18145137.16849  20958008.6434   20958013.5734
  21995795.505     6041514.40549   4714550.45449  21995794.9484   21995802.4924
  22238882.945   -11362022.08049  -8514173.70149  22238881.6034   22238889.6434
  20062307.069   -19478513.48649 -15163372.39949  20062307.0844   20062310.1244
 98  1 28 18 54 59.9930000  0  9  3 19 10 31 18 27 16  2 13
  21484106.908   -21285790.63749 -16573609.16349  21484106.7824   21484112.5014
  18829800.874   -24489605.65349 -19066290.49049  18829800.6004   18829804.7714
  22313083.897    -8945023.60249  -6946623.64149  22313082.6344   22313089.0284
  20131182.277   -29467395.46849 -22665277.65749  20131181.7334   20131186.1134
  18391304.895   -20449770.65749 -15901992.41949  18391304.5754   18391308.3284
  20938081.610   -23776283.51949 -18226739.08249  20938080.4794   20938085.4314
  22007837.085     6104793.12649   4763858.42149  22007836.4424   22007844.5434
  22215545.837   -11484658.96349  -8609734.73949  22215544.5894   22215551.4964
  20039446.421   -19598646.92149 -15256982.86449  20039446.5904   20039449.8124
 98  1 28 18 55 29.9930000  0  9  3 19 10 31 18 27 16  2 13
  21482274.458   -21295420.69049 -16581113.13749  21482273.8214   21482279.8784
  18818759.235   -24547629.76049 -19111504.08949  18818758.7644   18818762.7924
  22296868.713    -9030235.03749  -7013022.17349  22296868.0294   22296874.3384
  20114676.982   -29554131.60849 -22732864.24249  20114676.4494   20114680.8934
  18389433.147   -20459606.86449 -15909657.00949  18389432.8514   18389436.8884
  20918167.128   -23880934.57349 -18308285.33449  20918166.6454   20918171.3624
  22019889.118     6168126.88949   4813209.27749  22019889.0884   22019896.3584
  22192247.054   -11607094.10749  -8705138.59549  22192246.1884   22192252.3214
  20016632.200   -19718536.53849 -15350403.34249  20016631.9344   20016635.1384
 98  1 28 18 55 59.9930000  0  9  3 19 10 31 18 27 16  2 13
  21480541.447   -21304528.17449 -16588209.90849  21480541.3514   21480546.4754
  18807749.454   -24605486.72349 -19156587.43849  18807749.1264   18807753.2544
  22280749.746    -9114941.24349  -7079027.01749  22280748.9684   22280753.9244
  20098266.890   -29640367.15849 -22800060.75849  20098266.0804   20098270.3914
  18387666.449   -20468890.95149 -15916891.37749  18387665.7544   18387669.7604
  20898272.087   -23985483.57949 -18389752.07249  20898271.0684   20898276.5294
  22031950.563     6231509.81049   4862598.42949  22031949.9784   22031957.6444
  22168982.629   -11729348.86849  -8800401.88349  22168981.5734   22168987.9994
  19993866.070   -19838173.30649 -15443626.78549  19993866.1154   19993869.3414
 98  1 28 18 56 29.9930000  0  9  3 19 10 31 18 27 16  2 13
  21478911.655   -21313093.25549 -16594884.04149  21478911.2294   21478916.5634
  18796772.080   -24663173.09849 -19201537.86449  18796771.7164   18796776.0624
  22264731.176    -9199119.40849  -7144620.39649  22264730.0384   22264736.2344
  20081958.012   -29726070.80849 -22866842.80749  20081957.4604   20081961.3034
  18386005.529   -20477619.21049 -15923692.63449  18386005.1434   18386009.2094
  20878399.919   -24089912.28449 -18471125.06949  20878399.5654   20878404.2324
  22044023.660     6294953.83149   4912035.18949  22044022.8614   22044031.0004
  22145753.270   -11851419.65949  -8895521.84049  22145751.6454   22145758.9034
  19971153.058   -19957531.30149 -15536633.00949  19971153.0884   19971155.7054
 98  1 28 18 56 59.9930000  0  9  3 19 10 31 18 27 16  2 13
  21477384.362   -21321119.19149 -16601138.05749  21477384.6864   21477389.9904
  18785822.833   -24720711.80149 -19246373.21849  18785822.3664   18785826.6754
  22248806.210    -9282805.99349  -7209830.73049  22248806.0524   22248810.7884
  20065747.025   -29811259.97449 -22933223.95349  20065746.4534   20065750.6834
  18384444.348   -20485823.27149 -15930085.42049  18384443.8544   18384447.7594
  20858544.029   -24194255.65049 -18552431.57349  20858543.6214   20858548.2534
  22056101.612     6358423.64349   4961492.04649  22056101.0194   22056109.1934
  22122556.963   -11973316.24149  -8990506.03749  22122555.6234   22122562.5724
  19948488.752   -20076632.66649 -15629439.25949  19948488.5694   19948491.8284
 98  1 28 18 57 29.9930000  0  9  3 19 10 31 18 27 16  2 13
  21475958.876   -21328610.22249 -16606975.26349  21475958.2434   21475964.1494
  18774901.785   -24778102.17049 -19291092.99049  18774901.4364   18774905.7134
  22232973.944    -9366004.85749  -7274661.01949  22232972.5434   22232979.0274
  20049635.309   -29895927.71649 -22999198.80449  20049634.0774   20049638.7554
  18382977.068   -20493533.92749 -15936093.73949  18382976.8204   18382980.6204
  20838705.146   -24298509.66049 -18633668.44249  20838704.6154   20838709.1844
  22068181.794     6421905.30549   5010958.15049  22068181.2464   22068189.8254
  22099396.703   -12095023.78149  -9085342.95349  22099394.9474   22099402.0594
  19925873.194   -20195478.19349 -15722046.15849  19925873.3654   19925876.1254
 98  1 28 18 57 59.9930000  0  9  3 19 10 31 18 27 16  2 13
  21474641.047   -21335535.70049 -16612371.77949  21474640.8954   21474645.9174
  18764017.503   -24835299.51249 -19335662.34749  18764016.8714   18764021.4394
  22217240.880    -9448682.12549  -7339084.87649  22217239.2854   22217245.3444
  20033630.848   -29980031.52549 -23064734.22949  20033630.1664   20033634.4214
  18381605.060   -20500744.11949 -15941712.08349  18381604.9104   18381608.6974
  20818884.836   -24402665.97149 -18714829.17749  20818884.1064   20818888.9494
  22080267.418     6485415.46349   5060446.46049  22080267.3794   22080274.8454
  22076277.320   -12216516.23249  -9180012.25949  22076276.1224   22076282.4404
  19903312.174   -20314036.95849 -15814429.60149  19903312.2144   19903314.9904
 98  1 28 18 58 29.9930000  0  9  3 19 10 31 18 27 16  2 13
  21473429.255   -21341903.66349 -16617333.86149  21473428.8954   21473434.3504
  18753170.863   -24892299.14449 -19380077.64649  18753170.4104   18753174.6034
  22201603.441    -9530857.07049  -7403117.29849  22201602.1114   22201608.6664
  20017729.319   -30063594.50149 -23129848.22349  20017728.5454   20017733.0614
  18380327.213   -20507459.24549 -15946944.66349  18380326.9244   18380330.7544
  20799076.518   -24506759.20949 -18795940.77349  20799075.5004   20799080.5944
  22092355.713     6548939.33749   5109945.45449  22092355.7604   22092362.3144
  22053197.211   -12337802.48849  -9274520.90349  22053195.9104   22053203.1894
  19880801.643   -20432330.67949 -15906606.51749  19880801.8474   19880804.7354
 98  1 28 18 58 59.9930000  0  9  3 19 10 31 18 27 16  2 13
  21472317.041   -21347748.65149 -16621888.43249  21472316.2754   21472322.2124
  18742358.681   -24949117.66049 -19424351.81549  18742358.4554   18742362.6844
  22186056.642    -9612556.17949  -7466778.95949  22186055.6834   22186061.8294
  20001923.930   -30146652.09549 -23194568.41749  20001923.0074   20001927.7414
  18379137.728   -20513710.24949 -15951815.58849  18379137.4984   18379141.2604
  20779276.225   -24610810.16349 -18877019.42449  20779275.7074   20779280.2684
  22104441.600     6612450.13249   5159434.24849  22104441.8634   22104448.4674
  22030152.394   -12458903.18149  -9368884.96849  22030151.1344   22030157.0414
  19858334.767   -20550394.65949 -15998604.41649  19858334.6214   19858337.7874
 98  1 28 18 59 29.9930000  0  9  3 19 10 31 18 27 16  2 13
  21471305.228   -21353066.11649 -16626031.95149  21471304.7754   21471310.3394
  18731587.445   -25005720.94949 -19468458.27749  18731587.0324   18731591.3014
  22170607.760    -9693740.87449  -7530039.76649  22170606.6284   22170613.3824
  19986219.423   -30229179.85449 -23258875.75349  19986218.5594   19986223.1954
  18378041.088   -20519473.15149 -15956306.17449  18378040.7374   18378044.5374
  20759487.484   -24714800.87349 -18958051.13249  20759487.1564   20759491.5154
  22116530.014     6675974.66749   5208933.75249  22116530.1854   22116537.0014
  22007145.149   -12579806.49549  -9463095.22849  22007143.8314   22007150.3974
  19835916.729   -20668202.28249 -16090402.55649  19835916.6814   19835919.7684
 98  1 28 18 59 59.9930000  0  9  3 19 10 31 18 27 16  2 13
  21470395.104   -21357848.94449 -16629758.88149  21470395.1754   21470400.1544
  18720858.350   -25062102.66149 -19512392.08449  18720858.0904   18720862.0754
  22155257.267    -9774408.43449  -7592897.60049  22155255.4864   22155261.5484
  19970615.412   -30311179.37849 -23322771.48349  19970614.8114   19970618.8324
  18377042.892   -20524718.77349 -15960393.68549  18377042.6084   18377046.4244
  20739707.825   -24818743.80049 -19039045.59649  20739706.9104   20739711.3234
  22128623.001     6739523.86849   5258452.48149  22128622.2844   22128629.6744
  21984175.425   -12700512.55349  -9557151.77149  21984174.5134   21984181.2194
  19813550.454   -20785737.89849 -16181988.74749  19813550.1854   19813553.4424
 98  1 28 19  0 29.9930000  0  9  3 19 10 31 18 27 16  2 13
  21469581.015   -21362127.22349 -16633092.64349  21469581.3884   21469585.3164
  18710168.817   -25118276.77149 -19556164.12249  18710168.3904   18710172.6964
  22140001.163    -9854580.21849  -7655369.12049  22139999.4374   22140005.2604
  19955107.900   -30392672.10449 -23386272.30449  19955107.5374   19955111.6624
  18376143.156   -20529447.07149 -15964078.08849  18376142.8114   18376146.7414
  20719936.101   -24922644.64349 -19120007.27849  20719935.3574   20719939.9134
  22140717.473     6803079.75149   5307976.41849  22140717.6204   22140724.9724
  21961243.459   -12821020.37149  -9651053.86749  21961242.1884   21961248.7604
  19791233.472   -20903014.25549 -16273372.91249  19791233.5744   19791236.6924
 98  1 28 19  0 59.9930000  0  9  3 19 10 31 18 27 16  2 13
  21468864.879   -21365890.72249 -16636025.29149  21468864.0154   21468870.2644
  18699520.397   -25174234.54949 -19599767.58949  18699520.0624   18699524.2734
  22124842.610    -9934239.02649  -7717440.93849  22124842.0514   22124847.0714
  19939701.277   -30473634.75549 -23449360.08349  19939700.9324   19939705.2594
  18375346.876   -20533631.55649 -15967338.74049  18375346.7124   18375350.4994
  20700175.833   -25026485.45049 -19200922.17649  20700175.1074   20700179.5984
  22152815.670     6866656.01649   5357516.22749  22152814.2164   22152823.1784
  21938352.905   -12941310.39149  -9744786.24749  21938351.7454   21938357.8464
  19768968.455   -21020017.73249 -16364544.45449  19768968.6784   19768971.3144
 98  1 28 19  1 29.9930000  0  9  3 19 10 31 18 27 16  2 13
  21468248.135   -21369131.97249 -16638550.98149  21468248.2114   21468252.4004
  18688912.325   -25229980.44849 -19643205.95749  18688912.1154   18688916.1594
  22109780.632   -10013390.45449  -7779117.36649  22109779.3984   22109785.5254
  19924395.959   -30554065.00549 -23512033.00649  19924395.5084   19924399.7304
  18374657.600   -20537254.03449 -15970161.46649  18374657.3094   18374661.0604
  20680425.393   -25130274.77349 -19281796.95749  20680425.2894   20680429.2234
  22164920.462     6930266.42549   5407082.62249  22164922.5334   22164927.3864
  21915506.963   -13061366.42049  -9838336.28649  21915506.0014   21915512.4704
  19746758.574   -21136731.63549 -16455490.35149  19746759.0034   19746761.1084
 98  1 28 19  1 59.9930000  0  9  3 19 10 31 18 27 16  2 13
  21467736.364   -21371821.24949 -16640646.56849  21467736.3454   21467741.0254
  18678343.839   -25285518.31049 -19686482.22249  18678343.2624   18678347.4764
  22094815.255   -10092034.11949  -7840398.15049  22094814.5984   22094820.3964
  19909192.490   -30633959.89449 -23574288.76449  19909191.4744   19909196.3314
  18374077.490   -20540302.57049 -15972536.96249  18374077.1514   18374081.1244
  20660689.495   -25233987.73649 -19362612.24049  20660689.4124   20660693.4794
  22177033.251     6993919.10749   5456681.95649  22177032.0804   22177041.0874
  21892710.278   -13181163.23449  -9931684.34649  21892709.1534   21892716.1274
  19724605.666   -21253146.09149 -16546202.91449  19724605.6304   19724608.8814
 98  1 28 19  2 29.9930000  0  9  3 19 10 31 18 27 16  2 13
  21467323.924   -21373988.78649 -16642335.59849  21467323.6514   21467328.7394
  18667806.963   -25340889.82649 -19729628.86349  18667806.5164   18667810.8324
  22079941.437   -10170196.79849  -7901304.13949  22079940.6654   22079945.6004
  19894084.375   -30713353.54649 -23636153.94649  19894083.4034   19894088.1114
  18373597.094   -20542827.06349 -15974504.11349  18373596.5244   18373600.6044
  20640962.969   -25337651.38949 -19443389.10249  20640962.4994   20640966.5174
  22189145.271     7057568.43449   5506278.67449  22189145.5844   22189151.9754
  21869956.282   -13300735.98049 -10024857.81149  21869955.5954   21869961.9684
  19702498.942   -21369317.67549 -16636726.22749  19702499.0244   19702502.0854
 98  1 28 19  2 59.9930000  0  9  3 19 10 31 18 27 16  2 13
  21467013.432   -21375620.82049 -16643607.36449  21467013.1864   21467018.7024
  18657300.092   -25396103.85849 -19772652.79149  18657299.6904   18657303.9104
  22065160.653   -10247870.32149  -7961828.97349  22065158.9484   22065165.9874
  19879073.043   -30792238.71549 -23697622.90649  19879072.4654   19879076.3234
  18373214.421   -20544838.06949 -15976071.14549  18373213.8694   18373217.8244
  20621245.025   -25441269.60249 -19524130.55349  20621244.6094   20621249.0114
  22201257.582     7121218.53949   5555875.99049  22201257.1404   22201265.2654
  21847243.029   -13420094.72149 -10117864.50949  21847242.0594   21847248.6744
  19680437.871   -21485249.39349 -16727062.63349  19680437.9264   19680440.6164
 98  1 28 19  3 29.9930000  0  9  3 19 10 31 18 27 16  2 13
  21466804.026   -21376721.16349 -16644464.82249  21466803.9014   21466809.3154
  18646825.597   -25451147.77249 -19815544.16249  18646825.1224   18646829.3074
  22050474.174   -10325047.98249  -8021967.41649  22050472.8954   22050479.9604
  19864159.404   -30870610.41549 -23758691.76449  19864158.7794   19864163.1824
  18372926.288   -20546352.29149 -15977251.07449  18372925.8584   18372929.9904
  20601536.664   -25544837.88049 -19604833.09349  20601536.1934   20601541.1604
  22213366.608     7184851.30249   5605459.80449  22213366.5364   22213374.3494
  21824569.272   -13539246.07849 -10210709.62049  21824568.6954   21824574.0464
  19658425.212   -21600926.64649 -16817200.75049  19658425.0064   19658428.1144
 98  1 28 19  3 59.9930000  0  9  3 19 10 31 18 27 16  2 13
  21466699.029   -21377273.25849 -16644895.06949  21466698.9144   21466704.7194
  18636389.385   -25505990.48749 -19858278.75549  18636388.8964   18636393.1274
  22035889.834   -10401689.06049  -8081687.74649  22035888.7124   22035894.4374
  19849351.172   -30948428.23449 -23819329.02149  19849350.1114   19849354.6934
  18372735.419   -20547355.19649 -15978032.57149  18372735.0404   18372738.9954
  20581844.407   -25648321.17749 -19685469.41649  20581844.0264   20581848.4544
  22225471.210     7248460.24949   5655025.05049  22225471.4064   22225479.0404
  21801935.175   -13658188.86349 -10303392.19849  21801933.5854   21801940.0924
  19636465.498   -21716325.90249 -16907122.23849  19636465.5684   19636468.2844
 98  1 28 19  4 29.9930000  0  9  3 19 10 31 18 27 16  2 13
  21466691.319   -21377313.99349 -16644926.84449  21466691.3894   21466697.1684
  18625989.901   -25560640.08549 -19900862.87049  18625989.4864   18625993.7144
  22021405.990   -10477802.27249  -8140996.74849  22021405.3484   22021411.3244
  19834648.699   -31025689.91549 -23879532.92249  19834647.5394   19834652.4884
  18372639.091   -20547861.40849 -15978427.03949  18372638.7174   18372642.7114
  20562164.529   -25751739.58949 -19766055.18749  20562163.9104   20562168.6894
  22237567.815     7312027.17949   5704557.55949  22237567.5524   22237575.4464
  21779336.235   -13776946.79849 -10395930.73949  21779335.3204   21779341.9044
  19614556.828   -21831456.52249 -16996834.40749  19614556.9154   19614559.5854
 98  1 28 19  4 59.9930000  0  9  3 19 10 31 18 27 16  2 13
  21466781.014   -21376843.07149 -16644559.94249  21466780.5774   21466785.9584
  18615631.686   -25615072.84849 -19943278.02549  18615631.2074   18615635.4304
  22007024.297   -10553378.46949  -8199887.29549  22007023.3454   22007029.8194
  19820057.443   -31102366.99549 -23939281.28449  19820056.6104   19820061.2414
  18372640.315   -20547854.93749 -15978422.01349  18372639.9764   18372643.9114
  20542500.706   -25855073.96149 -19846575.46449  20542500.0434   20542504.7074
  22249659.451     7375568.12949   5754069.81849  22249658.9024   22249667.0174
  21756775.946   -13895501.52149 -10488310.93649  21756774.5884   21756781.0384
  19592708.128   -21946272.11649 -17086301.09849  19592708.1904   19592710.9424
 98  1 28 19  5 29.9930000  0  9  3 19 10 31 18 27 16  2 13
  21466968.345   -21375858.95749 -16643793.14249  21466967.4684   21466972.9614
  18605315.563   -25669284.55249 -19985520.92549  18605315.0484   18605319.4604
  21992745.417   -10628414.37649  -8258356.84549  21992744.5304   21992749.8404
  19805579.203   -31178450.33149 -23998566.98649  19805578.3434   19805583.0654
  18372740.344   -20547329.47149 -15978012.57549  18372739.9874   18372743.9504
  20522855.021   -25958312.99449 -19927021.44249  20522854.3444   20522859.3544
  22261746.100     7439082.82949   5803561.60649  22261746.0244   22261754.0524
  21734257.244   -14013837.93749 -10580521.02449  21734255.7984   21734262.8484
  19570922.140   -22060758.17149 -17175511.00149  19570922.1834   19570925.1564
 98  1 28 19  5 59.9930000  0  9  3 19 10 31 18 27 16  2 13
  21467254.789   -21374353.60249 -16642620.18949  21467254.5794   21467260.0154
  18595038.833   -25723289.07249 -20027602.38549  18595038.5234   18595042.9394
  21978567.752   -10702919.01049  -8316412.41249  21978566.4754   21978572.5644
  19791212.941   -31253945.62949 -24057394.47549  19791212.4994   19791217.3234
  18372939.926   -20546280.92649 -15977195.54649  18372939.7384   18372943.5664
  20503227.949   -26061453.91749 -20007390.98449  20503226.9314   20503232.4294
  22273831.641     7502592.18149   5853049.21049  22273831.7374   22273839.6544
  21711783.388   -14131938.21949 -10672547.11749  21711782.1564   21711788.0694
  19549197.887   -22174919.89049 -17264468.17649  19549198.0524   19549200.8104
 98  1 28 19  6 29.9930000  0  9  3 19 10 31 18 27 16  2 13
  21467642.545   -21372315.91049 -16641032.43549  21467643.5304   21467647.7504
  18584802.563   -25777081.27149 -20069518.40049  18584802.2594   18584806.5624
  21964490.849   -10776893.95849  -8374055.25549  21964490.3204   21964495.4904
  19776958.678   -31328852.33049 -24115763.31849  19776958.2074   19776962.2574
  18373239.797   -20544705.39449 -15975967.87949  18373239.4414   18373243.3924
  20483622.080   -26164483.24349 -20087673.56749  20483621.7044   20483626.6074
  22285920.565     7566118.58849   5902550.11549  22285920.4784   22285927.7174
  21689358.412   -14249781.65349 -10764373.07249  21689357.0814   21689363.4664
  19527536.049   -22288753.83449 -17353169.94249  19527536.2484   19527539.2454
 98  1 28 19  6 59.9930000  0  9  3 19 10 31 18 27 16  2 13
  21468130.301   -21369752.91749 -16639035.37449  21468129.9434   21468136.3934
  18574603.537   -25830677.56949 -20111281.76049  18574603.2004   18574607.4704
  21950512.219   -10850351.41749  -8431294.83649  21950511.2974   21950516.5874
  19762811.430   -31403196.90549 -24173694.13349  19762811.2704   19762815.0544
  18373636.348   -20542621.53049 -15974344.10849  18373636.1564   18373639.8984
  20464035.264   -26267412.60249 -20167878.24949  20464034.4044   20464039.1464
  22298006.593     7629630.09449   5952039.41749  22298007.5414   22298014.9824
  21666978.822   -14367386.47049 -10856013.08949  21666977.3044   21666983.2964
  19505932.181   -22402283.08749 -17441634.28849  19505932.3944   19505935.4614
 98  1 28 19  7 29.9930000  0  9  3 19 10 31 18 27 16  2 13
  21468719.324   -21366657.82349 -16636623.66849  21468719.8744   21468725.7324
  18564441.831   -25884077.76649 -20152892.31449  18564441.4354   18564445.7864
  21936630.034   -10923302.61149  -8488139.93849  21936629.4374   21936634.7134
  19748767.385   -31476999.06549 -24231202.28249  19748767.0134   19748771.5924
  18374129.064   -20540032.53649 -15972326.72949  18374128.7454   18374132.5704
  20444464.175   -26370259.46649 -20248018.64849  20444463.4424   20444468.5084
  22310086.388     7693108.86749   6001503.22649  22310086.3594   22310093.8824
  21644641.941   -14484767.26149 -10947478.56149  21644640.7874   21644646.6874
  19484381.529   -22515532.40349 -17529880.50149  19484381.3634   19484384.7544
 98  1 28 19  7 59.9930000  0  9  3 19 10 31 18 27 16  2 13
  21469409.329   -21363032.43849 -16633798.75849  21469409.3374   21469415.3794
  18554320.802   -25937264.43349 -20194336.47949  18554320.3814   18554324.5364
  21922846.038   -10995737.82149  -8544582.95949  21922844.8304   21922851.1674
  19734828.063   -31550251.03249 -24288281.71349  19734827.5634   19734831.4164
  18374719.373   -20536930.48149 -15969909.56249  18374718.9774   18374722.9914
  20424906.972   -26473033.01949 -20328101.92949  20424906.4814   20424910.7674
  22322157.982     7756544.68549   6050933.55049  22322158.2214   22322165.7064
  21622345.739   -14601934.28349 -11038777.45949  21622344.8324   21622350.3574
  19462886.469   -22628489.68149 -17617899.14649  19462886.4844   19462889.6684
 98  1 28 19  8 29.9930000  0  9  3 19 10 31 18 27 16  2 13
  21470195.777   -21358899.85849 -16630578.63049  21470195.2134   21470200.6854
  18544238.776   -25990245.85449 -20235620.71249  18544238.3614   18544242.7404
  21909158.396   -11067666.98249  -8600631.66449  21909157.9264   21909162.9324
  19720991.310   -31622963.22549 -24344940.53549  19720990.1934   19720994.9084
  18375405.467   -20533325.05649 -15967100.15949  18375405.0824   18375408.9774
  20405356.498   -26575771.53449 -20408157.90949  20405356.2664   20405360.9334
  22334214.807     7819902.88849   6100303.39449  22334215.5444   22334221.9514
  21600085.201   -14718913.57349 -11129930.08049  21600084.2234   21600090.2834
  19441444.386   -22741168.45549 -17705700.78049  19441444.3084   19441447.5174
 98  1 28 19  8 59.9930000  0  9  3 19 10 31 18 27 16  2 13
  21471080.206   -21354252.56849 -16626957.42249  21471079.4214   21471086.3844
  18534196.258   -26043019.67049 -20276743.18049  18534195.9434   18534200.3574
  21895565.992   -11139095.92349  -8656290.59149  21895565.5754   21895571.0844
  19707257.846   -31695133.03849 -24401176.73349  19707257.2404   19707261.4034
  18376188.952   -20529207.83249 -15963891.95449  18376188.3504   18376192.2824
  20385807.964   -26678499.46049 -20488205.63049  20385807.3094   20385812.0654
  22346256.984     7883183.97449   6149613.14049  22346255.9894   22346264.0234
  21577863.289   -14835690.06549 -11220924.68149  21577862.7364   21577868.3184
  19420058.754   -22853550.52449 -17793271.21649  19420058.8234   19420061.7524
 98  1 28 19  9 29.9930000  0  9  3 19 10 31 18 27 16  2 13
  21472063.131   -21349087.58649 -16622932.82949  21472063.1604   21472069.0194
  18524193.310   -26095585.55449 -20317703.62049  18524192.9784   18524197.3754
  21882067.992   -11210028.47449  -8711562.72049  21882067.3904   21882072.8294
  19693632.131   -31766736.17949 -24456971.36749  19693631.3434   19693635.9534
  18377070.214   -20524576.90549 -15960283.45849  18377069.9494   18377073.8184
  20366261.447   -26781216.92449 -20568245.20149  20366260.8714   20366265.7264
  22358288.976     7946412.00549   6198881.51349  22358288.4894   22358297.2814
  21555682.455   -14952250.42749 -11311750.86549  21555681.8124   21555687.6404
  19398734.619   -22965609.60849 -17880589.97049  19398734.7654   19398737.6214
 98  1 28 19  9 59.9930000  0  9  3 19 10 31 18 27 16  2 13
  21473143.061   -21343412.54949 -16618510.77949  21473142.9824   21473148.3274
  18514226.686   -26147960.38949 -20358515.19149  18514226.3484   18514230.3954
  21868668.644   -11280443.02049  -8766431.21549  21868667.8064   21868673.5214
  19680117.057   -31837758.10049 -24512313.10549  19680115.8294   19680120.8784
  18378048.911   -20519433.94849 -15956275.98049  18378048.6224   18378052.3604
  20346722.786   -26883893.26249 -20648252.73149  20346722.4074   20346727.2674
  22370313.214     8009599.58149   6248118.35649  22370311.6364   22370321.4774
  21533545.704   -15068578.95249 -11402396.39749  21533545.2274   21533550.7834
  19377474.831   -23077330.62649 -17967645.30149  19377474.8634   19377477.8194
 98  1 28 19 10 29.9930000  0  9  3 19 10 31 18 27 16  2 13
  21474323.574   -21337208.77549 -16613676.71949  21474323.5054   21474329.0624
  18504298.602   -26200132.86349 -20399169.07449  18504298.3014   18504302.4834
  21855371.575   -11350319.77749  -8820880.65849  21855371.5614   21855376.2444
  19666714.440   -31908188.92749 -24567194.25349  19666713.6674   19666718.2624
  18379127.663   -20513765.06049 -15951858.68549  18379127.2154   18379131.2284
  20327198.844   -26986492.43049 -20728200.12549  20327198.2144   20327203.1454
  22382335.109     8072774.11649   6297345.04649  22382334.5424   22382343.0104
  21511459.978   -15184640.01349 -11492833.51649  21511459.5764   21511464.9704
  19356280.932   -23188705.19049 -18054430.65949  19356280.9164   19356283.9194
 98  1 28 19 10 59.9930000  0  9  3 19 10 31 18 27 16  2 13
  21475600.977   -21330496.46749 -16608446.39749  21475599.8124   21475606.4944
  18494408.137   -26252107.92249 -20439669.13349  18494407.8484   18494412.0924
  21842176.460   -11419660.78049  -8874912.61349  21842175.9264   21842180.9204
  19653422.053   -31978040.84549 -24621624.31049  19653421.5894   19653426.2984
  18380301.348   -20507597.37149 -15947052.71349  18380300.9924   18380304.8404
  20307692.612   -27088998.27749 -20808074.80849  20307692.0074   20307696.4524
  22394352.482     8135924.89649   6346553.25349  22394352.9524   22394361.1834
  21489420.573   -15300457.49349 -11583080.84449  21489420.0944   21489425.4294
  19335150.800   -23299744.63349 -18140954.88849  19335150.8844   19335153.9224
 98  1 28 19 11 29.9930000  0  9  3 19 10 31 18 27 16  2 13
  21476970.480   -21323299.88249 -16602838.71649  21476971.0324   21476976.1474
  18484552.787   -26303898.18949 -20480025.19849  18484552.4114   18484556.7104
  21829085.266   -11488455.19049  -8928518.65549  21829083.8104   21829090.5664
  19640239.308   -32047316.46049 -24675605.29949  19640238.6064   19640243.4344
  18381567.567   -20500943.41249 -15941867.83449  18381567.2564   18381571.3404
  20288206.701   -27191397.23849 -20887866.20149  20288206.0674   20288211.0054
  22406362.993     8199039.31549   6395733.13349  22406362.3084   22406370.4144
  21467423.463   -15416053.35349 -11673155.48149  21467422.5234   21467428.4534
  19314080.618   -23410469.15949 -18227233.73749  19314080.7804   19314083.7284
 98  1 28 19 11 59.9930000  0  9  3 19 10 31 18 27 16  2 13
  21478435.566   -21315601.01049 -16596839.64049  21478435.7284   21478441.2344
  18474740.355   -26355462.90249 -20520205.50849  18474740.0544   18474744.4124
  21816104.002   -11556672.12149  -8981674.70849  21816102.7064   21816108.9604
  19627168.645   -32116003.55249 -24729127.69949  19627168.0744   19627172.5504
  18382932.034   -20493773.29549 -15936280.75349  18382931.8514   18382935.6184
  20268744.901   -27293669.56949 -20967558.92649  20268744.6204   20268749.1144
  22418368.365     8262127.01049   6444892.17949  22418367.3174   22418376.9524
  21445473.722   -15531400.15149 -11763036.05449  21445472.5584   21445478.5194
  19293071.902   -23520870.74249 -18313260.94049  19293071.7744   19293075.0914
 98  1 28 19 12 29.9930000  0  9  3 19 10 31 18 27 16  2 13
  21479994.113   -21307410.90549 -16590457.77449  21479993.0904   21479999.4744
  18464969.931   -26406806.82849 -20560213.77049  18464969.5184   18464973.7454
  21803225.398   -11624349.49449  -9034410.33649  21803224.1924   21803229.9464
  19614208.141   -32184111.74249 -24782199.00849  19614207.8064   19614211.9814
  18384390.711   -20486108.10649 -15930307.90149  18384390.5214   18384394.3514
  20249298.628   -27395860.40749 -21047188.14449  20249298.1334   20249302.5884
  22430363.795     8325162.73149   6494010.72449  22430362.9734   22430371.3434
  21423566.700   -15646522.33049 -11852741.60049  21423565.7644   21423570.7994
  19272119.838   -23630974.39549 -18399055.98849  19272119.9994   19272122.9234
 98  1 28 19 12 59.9930000  0  9  3 19 10 31 18 27 16  2 13
  21481650.584   -21298706.74249 -16583675.35449  21481650.4634   21481656.7014
  18455244.432   -26457914.67249 -20600038.07649  18455244.0104   18455248.3804
  21790450.550   -11691481.61149  -9086721.09149  21790450.1854   21790455.4134
  19601364.913   -32251603.71449 -24834790.14949  19601364.4284   19601368.5034
  18385947.402   -20477927.61149 -15923933.51149  18385946.8644   18385950.8784
  20229872.086   -27497947.59249 -21126736.59149  20229871.6714   20229876.4374
  22442353.112     8388167.13849   6543104.87649  22442352.4534   22442363.5254
  21401703.860   -15761412.13049 -11942266.05849  21401702.3804   21401709.7004
  19251231.237   -23740744.98849 -18484591.51049  19251231.5704   19251234.1514
 98  1 28 19 13 29.9930000  0  9  3 19 10 31 18 27 16  2 13
  21483401.782   -21289504.49349 -16576504.81449  21483401.5214   21483406.6754
  18445558.097   -26508816.94449 -20639702.19649  18445557.6864   18445562.1074
  21777771.824   -11758109.20649  -9138638.70549  21777771.6624   21777777.0514
  19588635.020   -32318499.91349 -24886917.05849  19588634.1314   19588638.7354
  18387599.423   -20469246.10349 -15917168.72449  18387598.9904   18387603.1924
  20210459.260   -27599962.86649 -21206229.00649  20210458.6714   20210463.5094
  22454331.670     8451114.98849   6592154.92149  22454331.8304   22454340.1694
  21379884.966   -15876070.87949 -12031610.48449  21379884.1444   21379889.4474
  19230402.652   -23850200.04549 -18569881.16149  19230402.5894   19230405.7584
 98  1 28 19 13 59.9930000  0  9  3 19 10 31 18 27 16  2 13
  21485250.241   -21279791.26949 -16568936.10949  21485250.0714   21485255.1024
  18435912.277   -26559506.07349 -20679200.23649  18435911.7144   18435916.0204
  21765186.907   -11824243.80049  -9190172.15949  21765185.8054   21765190.8224
  19576016.649   -32384809.95249 -24938587.21949  19576015.9564   19576020.3894
  18389347.142   -20460061.97749 -15910012.28749  18389346.6604   18389350.7794
  20191059.603   -27701908.67649 -21285667.29749  20191058.8314   20191064.1724
  22466297.004     8513992.78049   6641150.37149  22466296.9964   22466305.4534
  21358110.430   -15990496.51249 -12120773.26249  21358109.7684   21358115.2384
  19209635.495   -23959332.14849 -18654919.15649  19209635.6664   19209638.6604
 98  1 28 19 14 29.9930000  0  9  3 19 10 31 18 27 16  2 13
  21487196.343   -21269564.45949 -16560967.19349  21487195.4844   21487200.8034
  18426304.881   -26609993.21649 -20718540.87849  18426304.4154   18426308.8024
  21752695.768   -11889884.99149  -9241321.15749  21752695.3724   21752700.4704
  19563507.540   -32450545.86949 -24989810.01649  19563506.5164   19563511.2024
  18391188.817   -20450383.75649 -15902470.84349  18391188.4654   18391192.6274
  20171673.533   -27803783.14149 -21365049.99249  20171672.7224   20171677.8704
  22478249.203     8576801.10149   6690091.67949  22478248.4924   22478258.1324
  21336378.778   -16104696.83649 -12209760.46949  21336378.0534   21336383.5184
  19188930.941   -24068135.19949 -18739700.75049  19188931.1294   19188934.0584
 98  1 28 19 14 59.9920000  0  9  3 19 10 31 18 27 16  2 13
  21489236.921   -21258841.20149 -16552611.45349  21489236.7414   21489242.1584
  18416737.112   -26660272.38049 -20757719.46349  18416736.5694   18416740.8364
  21740302.816   -11955010.68149  -9292068.46449  21740302.5224   21740307.6184
  19551104.715   -32515722.81549 -25040597.25849  19551103.6834   19551108.0934
  18393126.397   -20440201.92249 -15894536.97049  18393126.0544   18393130.2814
  20152302.219   -27905580.22349 -21444372.38949  20152301.5424   20152306.4054
  22490188.424     8639541.42349   6738980.00149  22490188.0574   22490198.0344
  21314691.739   -16218662.79749 -12298565.06049  21314690.6174   21314697.1394
  19168291.643   -24176595.45349 -18824215.22649  19168291.6484   19168294.5244
 98  1 28 19 15 29.9920000  0  9  3 19 10 31 18 27 16  2 13
  21491372.865   -21247616.65149 -16543865.08349  21491372.6424   21491378.8404
  18407208.832   -26710343.83749 -20796736.19749  18407208.4154   18407212.5984
  21728011.388   -12019602.74849  -9342399.96349  21728010.1624   21728016.0304
  19538804.905   -32580358.37049 -25090962.63349  19538804.1274   19538808.4424
  18395158.714   -20429522.22549 -15886215.15649  18395158.3474   18395162.4384
  20132941.554   -28007321.20949 -21523651.07349  20132940.9754   20132945.4154
  22502112.632     8702203.01349   6787806.97049  22502112.4224   22502121.2664
  21293050.193   -16332389.75049 -12387183.41049  21293049.7684   21293055.2534
  19147713.903   -24284731.88949 -18908477.38049  19147714.1034   19147717.0044
 98  1 28 19 15 59.9920000  0  9  3 19 10 31 18 27 16  2 13
  21493604.053   -21235892.02149 -16534729.04349  21493603.5784   21493608.4794
  18397719.873   -26760208.83949 -20835592.05449  18397719.2944   18397723.7334
  21715824.319   -12083645.94149  -9392303.76849  21715823.1184   21715830.1894
  19526608.320   -32644451.76249 -25140905.54749  19526607.7014   19526611.9794
  18397284.633   -20418350.42949 -15877509.88649  18397284.3854   18397288.2704
  20113591.211   -28109007.88349 -21602887.42649  20113590.6314   20113595.0424
  22514020.221     8764777.00449   6836565.67249  22514019.7584   22514029.7784
  21271452.097   -16445888.04649 -12475623.58049  21271451.1914   21271456.7654
  19127199.341   -24392536.65549 -18992481.08749  19127199.3654   19127202.2274
 98  1 28 19 16 29.9920000  0  9  3 19 10 31 18 27 16  2 13
  21495929.755   -21223670.63749 -16525205.92949  21495929.6984   21495934.9774
  18388270.390   -26809866.20749 -20874286.12249  18388270.0764   18388274.3624
  21703744.783   -12147124.15549  -9441767.32049  21703744.0014   21703749.8004
  19514519.318   -32707979.87049 -25190407.98349  19514518.6904   19514523.0784
  18399504.852   -20406683.52849 -15868418.82249  18399504.3184   18399508.4584
  20094253.497   -28210628.37149 -21682072.20949  20094252.7884   20094257.5824
  22525913.566     8827275.53249   6885265.57049  22525913.4554   22525922.3794
  21249897.467   -16559157.80849 -12563885.68149  21249896.7134   21249902.8074
  19106750.864   -24499994.23749 -19076214.26749  19106751.0024   19106753.7224
 98  1 28 19 16 59.9920000  0  9  3 19 10 31 18 27 16  2 13
  21498347.183   -21210967.17549 -16515307.15149  21498347.2844   21498352.4964
  18378856.309   -26859337.68349 -20912835.33549  18378856.1134   18378860.2134
  21691769.542   -12210054.54649  -9490804.03149  21691769.1814   21691773.7214
  19502539.073   -32770936.68749 -25239465.25849  19502538.7434   19502542.8314
  18401817.743   -20394529.10649 -15858947.87349  18401817.3374   18401821.3544
  20074928.133   -28312184.05849 -21761206.50749  20074927.7774   20074932.1614
  22537787.590     8889673.13549   6933886.81849  22537787.2454   22537796.3134
  21228383.837   -16672212.77749 -12651980.40749  21228383.1564   21228389.3204
  19086367.028   -24607112.15749 -19159682.77149  19086367.0634   19086369.9664
 98  1 28 19 17 29.9920000  0  9  3 19 10 31 18 27 16  2 13
  21500860.093   -21197762.12649 -16505017.54449  21500859.9044   21500866.4654
  18369477.992   -26908621.36549 -20951238.21649  18369477.6454   18369481.7294
  21679896.168   -12272449.63049  -9539423.56749  21679894.9714   21679900.9134
  19490673.559   -32833290.83749 -25288052.91949  19490673.1684   19490677.1204
  18404224.800   -20381880.11149 -15849091.53749  18404224.4314   18404228.5814
  20055618.739   -28413655.84149 -21840275.42049  20055617.9054   20055622.0084
  22549642.936     8951971.85149   6982431.00149  22549643.3774   22549652.8134
  21206911.872   -16785048.72749 -12739904.47649  21206911.1814   21206916.8694
  19066051.955   -24713868.65749 -19242869.65149  19066052.1974   19066055.0344
 98  1 28 19 17 59.9920000  0  9  3 19 10 31 18 27 16  2 13
  21503470.482   -21184044.73649 -16494328.70449  21503470.2574   21503475.7564
  18360142.636   -26957679.01949 -20989464.97249  18360142.3484   18360146.4074
  21668127.123   -12334296.38549  -9587615.87049  21668126.0184   21668132.6384
  19478928.851   -32895009.89649 -25336145.70249  19478928.3784   19478932.4794
  18406732.929   -20368700.09349 -15838821.42149  18406732.6744   18406736.8054
  20036331.839   -28515008.73149 -21919251.68449  20036331.2664   20036335.5384
  22561486.517     9014209.38449   7030927.49249  22561485.8384   22561495.6064
  21185484.469   -16897650.47749 -12827646.04149  21185483.2454   21185489.5524
  19045811.848   -24820231.12649 -19325749.49949  19045812.0694   19045814.8344
 98  1 28 19 18 29.9920000  0  9  3 19 10 31 18 27 16  2 13
  21506171.946   -21169848.48749 -16483266.73549  21506171.7774   21506177.5724
  18350844.625   -27006540.30849 -21027538.71649  18350844.0754   18350848.5464
  21656455.157   -12395633.09949  -9635410.72249  21656454.1094   21656460.0214
  19467300.533   -32956117.33749 -25383761.90049  19467300.0294   19467304.2314
  18409337.476   -20355013.18349 -15828156.32249  18409337.1214   18409341.2034
  20017061.407   -28616275.51949 -21998160.86349  20017060.9074   20017065.2094
  22573312.293     9076353.30449   7079351.03849  22573310.2524   22573321.3604
  21164096.868   -17010042.95949 -12915224.54749  21164095.7214   21164101.8314
  19025640.037   -24926234.63649 -19408349.63549  19025639.9644   19025642.8814
 98  1 28 19 18 59.9920000  0  8  3 19 10 31 18 27  2 13
  21508966.874   -21155161.23449 -16471822.17849  21508965.9334   21508973.1064
  18341587.314   -27055187.73749 -21065445.81849  18341586.7844   18341591.3824
  21644878.380   -12456469.37149  -9682815.63449  21644878.0134   21644883.1024
  19455789.773   -33016606.66549 -25430896.45349  19455788.7484   19455793.2554
  18412039.070   -20340815.99249 -15817093.60249  18412038.4614   18412042.7164
  19997806.407   -28717461.20349 -22077006.84449  19997805.7774   19997810.3554
  21142752.949   -17122205.63449 -13002623.98549  21142752.3874   21142758.1254
  19005537.440   -25031874.60049 -19490666.48649  19005537.5604   19005540.3994
 98  1 28 19 19 29.9920000  0  8  3 19 10 31 18 27  2 13
  21511854.332   -21139988.07149 -16459998.98149  21511853.9834   21511859.1644
  18332374.205   -27103602.99749 -21103172.00649  18332373.8024   18332378.1594
  21633397.143   -12516803.86249  -9729829.53649  21633396.8614   21633402.2064
  19444397.524   -33076473.15849 -25477545.67949  19444396.8444   19444400.9834
  18414835.964   -20326117.95349 -15805640.61449  18414835.4054   18414839.6424
  19978564.445   -28818578.47349 -22155799.51949  19978564.3484   19978568.5494
  21121454.031   -17234132.30149 -13089839.52449  21121453.0924   21121459.0084
  18985504.239   -25137149.83749 -19572699.13749  18985504.2894   18985507.1304
 98  1 28 19 19 59.9920000  0  8  3 19 10 31 18 27  2 13
  21514835.131   -21124324.04749 -16447793.29349  21514834.4304   21514841.3324
  18323206.819   -27151778.00549 -21140710.99249  18323206.5384   18323210.9274
  21622015.798   -12576613.80149  -9776434.70649  21622015.0904   21622020.4844
  19433123.268   -33135719.66449 -25523711.79749  19433122.5794   19433126.9574
  18417729.031   -20310914.80149 -15793794.03049  18417728.7624   18417733.1374
  19959336.903   -28919619.92249 -22234533.11149  19959336.6494   19959340.7454
  21100202.426   -17345810.06049 -13176861.10449  21100201.7944   21100206.4684
  18965539.169   -25242066.76049 -19654452.58849  18965539.3104   18965541.9734
 98  1 28 19 20 29.9920000  0  8  3 19 10 31 18 27  2 13
  21517909.954   -21108165.14249 -16435201.99949  21517909.0424   21517916.0644
  18314082.985   -27199723.97749 -21178071.50349  18314082.5344   18314086.9634
  21610736.203   -12635889.04249  -9822623.22749  21610735.8194   21610741.4894
  19421966.750   -33194347.64449 -25569395.95149  19421965.7434   19421970.6104
  18420716.463   -20295216.05249 -15781561.26649  18420716.1944   18420720.3314
  19940123.861   -29020585.06349 -22313207.24249  19940123.1004   19940127.9294
  21079000.866   -17457224.78649 -13263677.72849  21079000.1424   21079004.8194
  18945645.906   -25346606.53849 -19735912.15249  18945646.0724   18945649.0044
 98  1 28 19 20 59.9920000  0  8  3 19 10 31 18 27  2 13
  21521080.439   -21091504.09849 -16422219.42449  21521080.8764   21521087.1604
  18305007.536   -27247415.73949 -21215233.92949  18305007.1274   18305011.5024
  21599564.497   -12694596.89649  -9868369.62549  21599563.9634   21599568.9524
  19410930.646   -33252342.65249 -25614586.87749  19410930.3234   19410934.2674
  18423799.232   -20279016.33549 -15768938.14049  18423798.8394   18423803.0114
  19920930.386   -29121447.45349 -22391801.30749  19920929.8174   19920934.3334
  21057854.273   -17568350.79249 -13350269.38049  21057853.2024   21057859.2034
  18925828.614   -25450747.15049 -19817060.68349  18925828.8014   18925831.6644
 98  1 28 19 21 29.9920000  0  8  3 19 10 31 18 27  2 13
  21524336.839   -21074392.04349 -16408885.41349  21524337.4014   21524342.3444
  18295971.864   -27294898.75949 -21252233.70349  18295971.2634   18295975.8154
  21588496.384   -12752759.90149  -9913691.46049  21588494.7264   21588501.3304
  19400004.997   -33309757.15349 -25659325.44949  19400004.3564   19400008.6144
  18426971.691   -20262344.92449 -15755947.45649  18426971.5134   18426975.4374
  19901751.179   -29222234.78849 -22470336.89449  19901750.6554   19901755.1314
  21036756.935   -17679217.76749 -13436659.19349  21036755.7574   21036761.6354
  18906079.719   -25554528.43049 -19897929.21149  18906079.9734   18906082.4604
 98  1 28 19 21 59.9920000  0  8  3 19 10 31 18 27  2 13
  21527680.739   -21056820.06749 -16395193.02949  21527679.4284   21527685.0954
  18286973.787   -27342184.04949 -21289079.39649  18286973.4724   18286977.8244
  21577534.007   -12810367.88049  -9958580.80749  21577532.8154   21577539.2014
  19389188.934   -33366596.23149 -25703615.64349  19389188.5944   19389192.9944
  18430235.752   -20245192.38049 -15742581.86549  18430235.4734   18430239.5594
  19882587.521   -29322940.34249 -22548808.74449  19882587.1714   19882591.4894
  21015709.879   -17789820.67949 -13522843.23149  21015708.9774   21015714.3204
  18886399.836   -25657947.01949 -19978515.12149  18886399.9774   18886402.7444
 98  1 28 19 22 29.9920000  0  8  3 19 10 31 18 27  2 13
  21531112.165   -21038788.03749 -16381142.16649  21531111.3024   21531117.7254
  18278014.025   -27389267.99049 -21325768.20249  18278013.6044   18278017.7584
  21566676.753   -12867423.22049 -10003039.53749  21566675.2914   21566681.2314
  19378484.893   -33422846.31749 -25747446.88649  19378483.9954   19378488.4404
  18433590.480   -20227563.37049 -15728845.00649  18433590.0614   18433594.1534
  19863439.019   -29423566.46849 -22627218.71349  19863438.2284   19863443.0534
  20994712.550   -17900162.12149 -13608823.54149  20994712.2634   20994717.3094
  18866789.131   -25761002.04149 -20058817.73449  18866789.1144   18866792.1354
 98  1 28 19 22 59.9920000  0  8  3 19 10 31 18 27  2 13
  21534634.577   -21020277.54049 -16366718.49649  21534635.0324   21534640.4464
  18269094.025   -27436142.96249 -21362294.16849  18269093.5204   18269097.9824
  21555923.518   -12923932.08949 -10047072.43949  21555922.9654   21555928.7254
  19367897.183   -33478485.41849 -25790802.03649  19367896.5844   19367900.9844
  18437039.886   -20209437.02549 -15714720.61149  18437039.7134   18437043.6604
  19844308.045   -29524100.57349 -22705556.97749  19844307.8724   19844312.3264
  20973765.441   -18010239.79449 -13694598.30949  20973764.7154   20973770.0134
  18847246.794   -25863697.78849 -20138840.39249  18847246.8134   18847249.5794
 98  1 28 19 23 29.9920000  0  8  3 19 10 31 18 27  2 13
  21538256.378   -21001244.66349 -16351887.75449  21538256.8854   21538262.7334
  18260215.420   -27482800.22549 -21398650.49049  18260215.0164   18260219.4904
  21545274.247   -12979894.15949 -10090679.27249  21545273.3184   21545278.7374
  19357430.571   -33533487.97349 -25833661.16649  19357430.1104   19357434.3754
  18440589.145   -20190785.83849 -15700187.24849  18440588.8664   18440592.9554
  19825198.553   -29624521.91849 -22783807.38049  19825197.6614   19825202.3134
  20952869.197   -18120049.70149 -13780164.43149  20952869.1514   20952873.8664
  18827778.445   -25966004.81549 -20218560.15049  18827778.2004   18827781.3264
 98  1 28 19 23 59.9920000  0  8  3 19 10 31 18 27  2 13
  21541975.169   -20981702.06749 -16336659.83949  21541975.0614   21541980.0544
  18251373.343   -27529265.73349 -21434857.39849  18251372.7884   18251377.3464
  21534722.868   -13035342.31249 -10133885.65749  21534721.3734   21534728.4094
  19347084.873   -33587854.92849 -25876025.03149  19347084.0324   19347089.0644
  18444231.882   -20171643.25449 -15685270.98449  18444231.6744   18444235.8904
  19806104.693   -29724860.77449 -22861993.50849  19806104.3594   19806108.4754
  20932014.820   -18229639.97149 -13865559.41749  20932014.3284   20932020.2484
  18808381.204   -26067937.87649 -20297988.50849  18808381.2694   18808384.0024
 98  1 28 19 24 29.9920000  0  8  3 19 10 31 18 27  2 13
  21545792.589   -20961641.69049 -16321028.46349  21545792.1984   21545797.7664
  18242572.256   -27575515.96049 -21470896.54549  18242571.8704   18242576.2684
  21524270.938   -13090267.81649 -10176684.77649  21524270.1284   21524275.2594
  19336863.398   -33641569.10449 -25917880.22849  19336862.7284   19336867.0124
  18447970.418   -20151997.26649 -15669962.44749  18447970.1764   18447974.3464
  19787029.929   -29825099.40549 -22940101.52749  19787029.1054   19787033.8914
  20911203.241   -18339005.42249 -13950779.20049  20911202.6164   20911207.3434
  18789058.730   -26169478.08049 -20377110.74249  18789058.7154   18789061.7244
 98  1 28 19 24 59.9920000  0  8  3 19 10 31 18 27  2 13
  21549707.822   -20941067.56749 -16304996.75949  21549708.1184   21549714.2644
  18233815.139   -27621534.86949 -21506755.44649  18233814.7534   18233819.2464
  21513919.808   -13144663.39149 -10219070.94149  21513918.8944   21513925.3514
  19326764.858   -33694637.22249 -25959232.00949  19326764.3094   19326768.6034
  18451807.124   -20131835.32049 -15654251.87049  18451806.7104   18451811.0114
  19767975.935   -29925228.74549 -23018124.39149  19767975.1964   19767979.8094
  20890436.132   -18448137.48149 -14035817.13249  20890435.3334   20890440.7084
  18769815.377   -26270602.64649 -20455909.10149  18769815.2774   18769818.3754
 98  1 28 19 25 29.9920000  0  8  3 19 10 31 18 27  2 13
  21553714.966   -20920010.04549 -16288588.37449  21553714.0644   21553720.6164
  18225104.936   -27667307.29149 -21542422.27749  18225104.5234   18225108.9924
  21503673.105   -13198510.18549 -10261029.49749  21503671.2684   21503677.5994
  19316787.598   -33747068.20449 -26000087.31849  19316787.1574   19316791.5544
  18455740.509   -20111165.31949 -15638145.40549  18455740.1974   18455744.3014
  19748941.744   -30025253.92249 -23096066.08749  19748941.2824   19748945.9184
  20869713.001   -18557038.04949 -14120674.67749  20869712.0594   20869717.2764
  18750651.913   -26371307.27549 -20534380.23649  18750651.9144   18750654.7274
 98  1 28 19 25 59.9920000  0  8  3 19 10 31 18 27  2 13
  21557802.982   -20898527.67849 -16271848.93749  21557802.5744   21557810.1354
  18216440.617   -27712838.59449 -21577901.22349  18216440.2214   18216444.7744
  21493530.051   -13251811.97949 -10302563.37649  21493529.1694   21493534.7594
  19306926.756   -33798887.20849 -26040465.76049  19306926.0534   19306930.5744
  18459764.459   -20090019.43249 -15621668.11949  18459764.0714   18459768.3064
  19729921.738   -30125204.61249 -23173949.74549  19729921.3104   19729925.5304
  20849031.774   -18665718.42849 -14205360.64649  20849030.9664   20849036.5474
  18731562.298   -26471623.90249 -20612549.03049  18731562.3594   18731565.1784
 98  1 28 19 26 29.9920000  0  8  3 19 10 31 18 27  2 13
  21561968.538   -20876637.80749 -16254791.96549  21561968.9994   21561975.0124
  18207822.845   -27758125.45349 -21613189.69649  18207822.5074   18207826.8654
  21483492.410   -13304560.06849 -10343665.80349  21483492.2684   21483497.2414
  19297179.732   -33850108.23749 -26080378.25149  19297179.3514   19297183.3794
  18463880.128   -20068391.31049 -15604815.07149  18463880.0124   18463884.3644
  19710918.481   -30225067.79749 -23251765.21449  19710917.7964   19710922.4044
  20828397.074   -18774154.63549 -14289856.35549  20828396.2814   20828401.8044
  18712547.467   -26571547.50849 -20690411.58449  18712547.4534   18712550.3564
 98  1 28 19 26 59.9920000  0  8  3 19 10 31 18 27  2 13
  21566210.468   -20854346.92249 -16237422.50449  21566211.0334   21566216.5294
  18199250.630   -27803172.95949 -21648291.65249  18199250.3314   18199254.8424
  21473559.567   -13356757.32649 -10384339.00749  21473558.4954   21473563.9764
  19287546.741   -33900730.06449 -26119823.82149  19287546.0604   19287550.2414
  18468085.054   -20046294.50649 -15587596.80949  18468084.7214   18468088.9614
  19691930.848   -30324848.56049 -23329516.45649  19691930.2604   19691934.9334
  20807810.737   -18882336.31649 -14374153.72749  20807809.5934   20807815.3304
  18693607.769   -26671076.48249 -20767966.62549  18693607.7654   18693610.7024
 98  1 28 19 27 29.9920000  0  8  3 19 10 31 18 27  2 13
  21570529.065   -20831652.93549 -16219738.93249  21570528.3744   21570535.0284
  18190717.706   -27848014.07849 -21683232.79649  18190717.2194   18190721.7274
  21463728.153   -13408422.08049 -10424597.27749  21463727.9404   21463733.4734
  19278026.429   -33950759.67949 -26158807.93749  19278025.8504   19278030.0514
  18472375.162   -20023750.08749 -15570029.76349  18472374.6914   18472379.0414
  19672955.612   -30424564.11949 -23407216.88949  19672954.9874   19672959.4064
  20787271.093   -18990272.86449 -14458260.09249  20787269.7634   20787276.0044
  18674739.339   -26770230.65949 -20845229.62449  18674739.4574   18674742.2564
 98  1 28 19 27 59.9920000  0  8  3 19 10 31 18 27  2 13
  21574932.153   -20808514.71049 -16201709.20449  21574932.5954   21574938.6454
  18182223.425   -27892651.71449 -21718015.38049  18182223.1394   18182227.3384
  21453998.033   -13459554.33449 -10464440.61349  21453998.0264   21454003.7524
  19268620.499   -34000188.07349 -26197323.56849  19268620.0124   19268623.9614
  18476751.149   -20000754.13349 -15552110.87849  18476751.0314   18476755.0284
  19653996.469   -30524194.74749 -23484851.14449  19653995.8724   19654000.2894
  20766780.753   -19097950.50849 -14542164.72949  20766780.2074   20766785.6444
  18655946.727   -26868986.44049 -20922182.18249  18655946.7274   18655949.6454
 98  1 28 19 28 29.9920000  0  8  3 19 10 31 18 27  2 13
  21579425.516   -20784903.00549 -16183310.51449  21579425.1354   21579431.1804
  18173767.407   -27937088.63049 -21752641.55349  18173767.0134   18173771.2494
  21444369.004   -13510155.64349 -10503870.21349  21444368.4834   21444373.8834
  19259331.801   -34049000.75549 -26235359.42049  19259331.1234   19259335.3084
  18481216.596   -19977288.28849 -15533825.83649  18481216.3504   18481220.5344
  19635057.253   -30623720.88849 -23562403.97749  19635056.6334   19635061.0024
  20746342.237   -19205355.12449 -14625856.59849  20746340.8674   20746347.2324
  18637233.465   -26967325.24949 -20998809.82349  18637233.6524   18637236.5584
 98  1 28 19 28 59.9920000  0  8  3 19 10 31 18 27  2 13
  21584006.552   -20760829.67349 -16164552.11349  21584006.4734   21584013.0924
  18165346.244   -27981342.00549 -21787124.71049  18165345.8734   18165350.1434
  21434835.850   -13560253.11949 -10542907.22349  21434834.4234   21434840.2394
  19250157.099   -34097214.24249 -26272928.36949  19250156.4544   19250160.6754
  18485766.696   -19953377.47749 -15515194.06949  18485766.3304   18485770.4694
  19616131.627   -30723175.74249 -23639901.26449  19616131.1854   19616135.5184
  20725950.133   -19312516.10449 -14709358.63749  20725949.3444   20725955.2014
  18618593.406   -27065279.46949 -21075137.78449  18618593.6664   18618596.4014
 98  1 28 19 29 29.9920000  0  8  3 19 10 31 18 27  2 13
  21588674.985   -20736297.09549 -16145435.85049  21588674.6324   21588682.0734
  18156962.242   -28025400.08149 -21821455.68149  18156961.9674   18156966.2224
  21425398.525   -13609846.68149 -10581551.56849  21425397.2864   21425403.5934
  19241096.030   -34144830.45249 -26310031.90749  19241095.2574   19241099.8604
  18490404.064   -19929008.18249 -15496205.04149  18490403.7004   18490407.9684
  19597221.889   -30822547.37349 -23717333.69949  19597221.4164   19597225.7034
  20705604.100   -19419435.11049 -14792672.12349  20705602.9694   20705608.8464
  18600026.338   -27162850.09149 -21151166.83949  18600026.4104   18600029.2484
 98  1 28 19 29 59.9920000  0  8  3 19 10 31 18 27  2 13
  21593429.300   -20711313.43349 -16125968.10149  21593428.8604   21593435.1704
  18148620.145   -28069238.18549 -21855615.25349  18148619.7924   18148624.1224
  21416059.575   -13658923.24549 -10619793.06749  21416058.6014   21416064.9144
  19232152.522   -34191828.86249 -26346654.05249  19232151.6384   19232156.2744
  18495131.871   -19904163.61649 -15476845.68149  18495131.5474   18495135.9184
  19578331.255   -30921818.53249 -23794687.84849  19578331.0734   19578335.1454
  20685305.995   -19526102.65649 -14875789.67249  20685304.9514   20685310.5844
  18581534.528   -27260025.22349 -21226887.72149  18581534.5214   18581537.5254
 98  1 28 19 30 29.9920000  0  8  3 19 10 31 18 27  2 13
  21598268.372   -20685884.51949 -16106153.40049  21598267.9004   21598274.0574
  18140321.936   -28112845.51749 -21889595.00349  18140321.2674   18140325.8144
  21406819.860   -13707478.26249 -10657628.16049  21406818.5484   21406824.6624
  19223329.427   -34238193.95949 -26382782.70749  19223328.6864   19223333.3184
  18499952.562   -19878830.78149 -15457105.84749  18499952.1204   18499956.5894
  19559459.412   -31020990.66149 -23871964.82249  19559458.7184   19559463.6284
  20665057.904   -19632507.14849 -14958702.24949  20665057.1494   20665062.7044
  18563117.191   -27356808.92749 -21302303.59649  18563117.4614   18563120.2114
 98  1 28 19 30 59.9920000  0  8  3 19 10 31 18 27  2 13
  21603194.623   -20659997.13049 -16085981.45849  21603194.0004   21603199.9314
  18132073.436   -28156191.61049 -21923371.18649  18132073.2274   18132077.6084
  21397684.941   -13755482.45249 -10695034.04549  21397684.5914   21397690.3674
  19214630.001   -34283910.06949 -26418405.65749  19214629.5194   19214633.7074
  18504868.401   -19852998.03249 -15436976.47049  18504867.9664   18504872.2454
  19540608.537   -31120052.60449 -23949155.93749  19540608.1884   19540612.5934
  20644861.920   -19738637.70149 -15041401.36649  20644861.4804   20644866.6314
  18544779.952   -27453171.75849 -21377391.51249  18544780.1464   18544783.0514
 98  1 28 19 31 29.9920000  0  8  3 19 10 31 18 27  2 13
  21608205.824   -20633663.12249 -16065461.46349  21608206.1404   21608211.2054
  18123870.544   -28199298.33549 -21956960.85349  18123870.3664   18123874.7494
  21388653.661   -13802942.57549 -10732015.98449  21388652.1444   21388659.1524
  19206052.057   -34328987.61549 -26453531.02549  19206051.6774   19206055.9264
  18509873.820   -19826694.40949 -15416480.17849  18509873.3314   18509877.6284
  19521776.487   -31219015.55249 -24026269.91649  19521775.8264   19521780.2544
  20624714.398   -19844513.73649 -15123902.15849  20624714.0484   20624719.1134
  18526522.995   -27549112.83749 -21452150.79049  18526523.0854   18526525.9814
 98  1 28 19 31 59.9920000  0  8  3 19 10 31 18 27  2 13
  21613304.897   -20606867.36349 -16044581.70649  21613304.6214   21613310.8314
  18115712.571   -28242169.03449 -21990366.60249  18115712.2334   18115716.6464
  21379729.368   -13849839.89649 -10768559.38249  21379727.9524   21379734.2974
  19197596.832   -34373420.07249 -26488153.72949  19197596.0614   19197600.5674
  18514968.568   -19799921.30449 -15395618.05849  18514968.3044   18514972.5194
  19502963.264   -31317879.53849 -24103306.78049  19502962.8904   19502967.0704
  20604616.414   -19950129.41649 -15206200.07349  20604615.3624   20604621.3654
  18508350.462   -27644610.08049 -21526564.22049  18508350.6254   18508353.4624
 98  1 28 19 32 29.9920000  0  8  3 19 10 31 18 27  2 13
  21618489.504   -20579622.01249 -16023351.59849  21618489.4714   21618495.0344
  18107599.247   -28284804.85649 -22023589.33249  18107598.8604   18107603.3324
  21370909.702   -13896187.18149 -10804674.17149  21370909.1074   21370914.1134
  19189260.308   -34417228.78549 -26522290.39449  19189259.7024   19189264.3664
  18520149.004   -19772698.24549 -15374405.32349  18520148.7484   18520153.0954
  19484165.977   -31416659.80449 -24180278.40749  19484165.5134   19484170.2874
  20584564.875   -20055500.93549 -15288307.73649  20584563.8034   20584569.1104
  18490261.951   -27739665.81349 -21600633.62249  18490261.8984   18490264.7854
 98  1 28 19 32 59.9920000  0  8  3 19 10 31 18 27  2 13
  21623756.351   -20551944.79549 -16001785.03049  21623755.2964   21623762.0494
  18099528.968   -28327214.49249 -22056635.81249  18099528.5074   18099532.9524
  21362192.315   -13941997.64549 -10840370.67049  21362191.0534   21362197.9194
  19181038.898   -34460432.93049 -26555955.96649  19181038.3434   19181042.8254
  18525411.918   -19745041.49549 -15352854.64749  18525411.4554   18525416.0054
  19465382.993   -31515365.04449 -24257191.57349  19465382.6464   19465386.7004
  20564555.176   -20160652.28149 -15370243.82849  20564554.2754   20564559.9144
  18472255.921   -27834288.08049 -21674365.24949  18472256.0034   18472258.8484
 98  1 28 19 33 29.9920000  0  8  3 19 10 31 18 27  2 13
  21629112.534   -20523798.09249 -15979852.55649  21629112.2574   21629118.0294
  18091507.485   -28369367.72649 -22089482.50149  18091507.1404   18091511.3964
  21353579.151   -13987260.09949 -10875640.14549  21353578.5854   21353584.9354
  19172937.649   -34503005.34749 -26589129.28649  19172937.1424   19172941.4884
  18530764.330   -19716914.51449 -15330937.55849  18530763.9794   18530768.2084
  19446622.440   -31613952.34549 -24334012.84149  19446622.1444   19446626.5174
  20544594.275   -20265547.48049 -15451980.33149  20544593.3144   20544598.8764
  18454338.167   -27928446.47949 -21747735.43149  18454338.3374   18454341.1084
 98  1 28 19 33 59.9920000  0  8  3 19 10 31 18 27  2 13
  21634552.804   -20495209.43549 -15957575.77749  21634552.5614   21634558.6474
  18083533.065   -28411273.73749 -22122136.54949  18083532.7514   18083537.1644
  21345065.476   -14031999.72649 -10910502.21749  21345064.7494   21345071.0024
  19164954.565   -34544956.64849 -26621818.61449  19164953.3694   19164958.2314
  18536206.817   -19688314.25349 -15308651.68349  18536206.7714   18536210.6574
  19427882.548   -31712430.94949 -24410749.41149  19427881.9374   19427886.7984
  20524679.404   -20370200.21449 -15533527.89749  20524678.4314   20524684.1504
  18436504.738   -28022161.72449 -21820760.29549  18436504.8834   18436507.7174
 98  1 28 19 34 29.9920000  0  8  3 19 10 31 18 27  2 13
  21640077.799   -20466175.21049 -15934951.78249  21640078.2164   21640083.3194
  18075605.868   -28452931.37449 -22154597.05649  18075605.4294   18075609.8524
  21336650.961   -14076218.54149 -10944958.46849  21336650.6844   21336655.8964
  19157092.875   -34586269.96149 -26654010.81049  19157092.0014   19157096.4004
  18541741.347   -19659230.37249 -15285988.95349  18541740.8804   18541745.1614
  19409165.171   -31810791.31549 -24487393.84149  19409164.6954   19409169.3114
  20504811.385   -20474607.12149 -15614883.91349  20504810.7954   20504816.0964
  18418754.205   -28115441.44649 -21893445.78849  18418754.0524   18418757.1634
 98  1 28 19 34 59.9920000  0  8  3 19 10 31 18 27  2 13
  21645686.205   -20436703.36549 -15911986.78849  21645687.1534   21645692.3314
  18067718.619   -28494379.20949 -22186894.08449  18067718.0994   18067722.5194
  21328334.559   -14119921.57549 -10979012.81149  21328334.0224   21328339.7554
  19149350.950   -34626954.01549 -26685712.67649  19149349.8914   19149354.9514
  18547365.332   -19629676.24549 -15262959.80349  18547365.0764   18547369.2454
  19390468.640   -31909042.24449 -24563953.00449  19390468.0184   19390472.4744
  20484988.231   -20578778.44349 -15696056.36549  20484987.4384   20484992.7414
  18401084.983   -28208293.97449 -21965798.40849  18401085.1844   18401088.0264
 98  1 28 19 35 29.9910000  0  8  3 19 10 31 18 27  2 13
  21651373.379   -20406817.58049 -15888699.24049  21651372.7774   21651378.0754
  18059866.097   -28535644.36549 -22219048.76949  18059865.7854   18059870.0854
  21320115.946   -14163110.77949 -11012666.76449  21320114.9724   21320121.0984
  19141728.170   -34667011.88049 -26716926.60849  19141727.3684   19141731.7574
  18553074.564   -19599674.11049 -15239581.55749  18553074.3544   18553078.8134
  19371790.784   -32007195.02149 -24640435.68549  19371790.2894   19371794.9204
  20465210.290   -20682712.40349 -15777043.85349  20465209.1714   20465214.7464
  18383494.703   -28300731.68649 -22037827.79749  18383494.6214   18383497.5734
 98  1 28 19 35 59.9910000  0  8  3 19 10 31 18 27  2 13
  21657137.362   -20376528.09849 -15865097.10949  21657137.6664   21657143.0354
  18052048.274   -28576727.35549 -22251061.50149  18052047.7974   18052052.3004
  21312000.054   -14205760.32049 -11045900.19949  21311999.0504   21312005.2384
  19134226.659   -34706432.46549 -26747643.95049  19134225.7514   19134230.6204
  18558869.144   -19569223.59849 -15215853.92049  18558868.9224   18558873.0934
  19353130.931   -32105253.09849 -24716844.56749  19353130.5174   19353134.7664
  20445478.288   -20786404.67249 -15857843.00849  20445477.1914   20445483.1444
  18365981.531   -28392763.91849 -22109541.22349  18365981.5864   18365984.4794
 98  1 28 19 36 29.9910000  0  8  3 19 10 31 18 27  2 13
  21662981.254   -20345818.71849 -15841167.79349  21662979.9314   21662988.2444
  18044269.133   -28617607.13949 -22282915.89449  18044268.8434   18044273.2924
  21303991.554   -14247845.17249 -11078693.61849  21303989.9154   21303997.0024
  19126847.204   -34745211.75949 -26777861.58549  19126846.4804   19126851.0874
  18564747.099   -19538334.87349 -15191784.82149  18564746.6834   18564751.2864
  19334490.913   -32203206.81749 -24793172.13849  19334490.5314   19334495.0384
  20425797.993   -20889825.16149 -15938430.39149  20425797.3454   20425802.8394
  18348550.495   -28484364.61249 -22180918.39149  18348550.6934   18348553.7604
 98  1 28 19 36 59.9910000  0  8  3 19 10 31 18 27  2 13
  21668905.600   -20314685.97549 -15816908.59349  21668904.1304   21668912.0944
  18036535.369   -28658248.22249 -22314584.28549  18036535.2164   18036539.5494
  21296092.726   -14289353.62049 -11111037.88949  21296091.5834   21296098.2124
  19119591.008   -34783343.28549 -26807574.46649  19119590.6334   19119594.8574
  18570709.047   -19507004.51649 -15167371.59549  18570708.8364   18570713.4414
  19315874.647   -32301035.94649 -24869402.62849  19315874.0194   19315878.8954
  20406175.075   -20992944.43349 -16018783.05749  20406174.3094   20406179.6494
  18331205.837   -28575511.40149 -22251941.86849  18331205.8704   18331208.9394
 98  1 28 19 37 29.9910000  0  8  3 19 10 31 18 27  2 13
  21674907.511   -20283145.83549 -15792331.91049  21674906.6044   21674913.3254
  18028848.965   -28698640.57849 -22346058.86049  18028848.4484   18028852.8704
  21288297.565   -14330317.30449 -11142957.67149  21288296.8894   21288303.2354
  19112453.730   -34820849.98649 -26836800.46649  19112452.9044   19112457.4684
  18576751.658   -19475250.59549 -15142628.31849  18576751.3934   18576755.5294
  19297280.094   -32398751.24249 -24945544.41749  19297279.6614   19297284.3614
  20386604.978   -21095785.76049 -16098919.14649  20386603.7084   20386609.7604
  18313941.178   -28666237.88549 -22322637.82849  18313941.3324   18313943.9454
 98  1 28 19 37 59.9910000  0  8  3 19 10 31 18 27  2 13
  21680990.451   -20251180.23149 -15767423.69749  21680987.2654   21680995.1864
  18021217.148   -28738746.00649 -22377309.85649  18021216.9314   18021221.3294
  21280603.976   -14370747.67849 -11174461.89649  21280604.0944   21280609.4464
  19105436.171   -34857727.83649 -26865536.45349  19105435.9024   19105439.5504
  18582878.051   -19443056.42749 -15117541.99349  18582877.5624   18582881.9504
  19278708.576   -32496345.19849 -25021591.65549  19278708.3884   19278712.6494
  20367087.953   -21198348.45149 -16178838.11449  20367087.3394   20367093.1014
  18296760.057   -28756525.27149 -22392991.63749  18296760.2264   18296763.0984
 98  1 28 19 38 29.9910000  0  8  3 19 10 31 18 27  2 13
  21687156.178   -20218778.72749 -15742175.83849  21687156.4844   21687161.8814
  18013640.616   -28778561.18849 -22408334.68149  18013640.2464   18013644.7124
  21273006.970   -14410670.41349 -11205570.56649  21273005.5554   21273012.2134
  19098538.374   -34893976.21249 -26893781.93749  19098537.8574   19098542.1614
  18589090.329   -19410410.78449 -15092103.86649  18589090.1614   18589094.3224
  19260159.703   -32593820.21749 -25097546.21849  19260159.2094   19260163.9164
  20347621.765   -21300644.04749 -16258548.95949  20347620.8254   20347626.6274
  18279665.960   -28846355.26149 -22462989.02949  18279666.0904   18279668.8334
 98  1 28 19 38 59.9910000  0  8  3 19 10 31 18 27  2 13
  21693404.114   -20185945.29049 -15716591.38649  21693403.6194   21693407.9884
  18006120.891   -28818077.74049 -22439126.81149  18006120.5224   18006124.8854
  21265503.394   -14450102.33049 -11236296.73549  21265502.1394   21265508.3354
  19091761.994   -34929586.15549 -26921529.93749  19091761.1394   19091765.3744
  18595393.824   -19377285.96749 -15066292.35949  18595393.6874   18595398.0254
  19241634.602   -32691170.23849 -25173403.37849  19241634.0444   19241638.6154
  20328204.088   -21402684.52749 -16338061.00949  20328203.2984   20328208.4334
  18262658.997   -28935727.45549 -22532629.69849  18262658.9844   18262662.0284
 98  1 28 19 39 29.9910000  0  8  3 19 10 31 18 27  2 13
  21699734.700   -20152678.18949 -15690669.02449  21699734.2474   21699741.5704
  17998655.195   -28857310.27849 -22469697.63349  17998654.8214   17998659.1954
  21258092.745   -14489045.96649 -11266642.46949  21258092.1994   21258098.1144
  19085106.239   -34964562.49549 -26948784.22349  19085105.7464   19085110.0074
  18601790.052   -19343673.84849 -15040101.13749  18601789.5794   18601794.2354
  19223130.655   -32788409.15049 -25249173.95949  19223130.3444   19223134.6714
  20308832.692   -21504481.88149 -16417383.61349  20308831.9984   20308836.9374
  18245739.377   -29024640.58649 -22601912.65749  18245739.3874   18245742.4234
 98  1 28 19 39 59.9910000  0  8  3 19 10 31 18 27  2 13
  21706141.547   -20119010.17949 -15664434.27349  21706140.5124   21706146.9034
  17991234.990   -28896303.98149 -22500082.34749  17991234.6574   17991238.8994
  21250772.597   -14527513.40449 -11296617.12149  21250771.8674   21250777.7844
  19078567.100   -34998925.85449 -26975560.86349  19078566.1934   19078570.7214
  18608274.579   -19309597.53449 -15013548.20549  18608274.2704   18608278.8264
  19204642.688   -32885563.93749 -25324878.98849  19204642.2034   19204646.8274
  20289506.495   -21606041.61349 -16496521.05249  20289505.5484   20289511.1534
  18228907.992   -29113090.04749 -22670834.31249  18228908.1694   18228911.0504
 98  1 28 19 40 29.9910000  0  8  3 19 10 31 18 27  2 13
  21712627.702   -20084924.99949 -15637874.46249  21712628.5304   21712634.9614
  17983860.466   -28935057.42749 -22530279.84549  17983860.0034   17983864.3254
  21243550.099   -14565468.41749 -11326192.48149  21243549.9864   21243555.1224
  19072149.265   -35032651.79149 -27001840.80649  19072148.8964   19072152.9084
  18614849.675   -19275045.22449 -14986624.36249  18614849.4084   18614853.7044
  19186177.558   -32982598.68149 -25400490.47049  19186176.9964   19186181.3964
  20270230.484   -21707337.55249 -16575452.92949  20270228.9824   20270234.6984
  18212168.999   -29201054.17449 -22739377.78549  18212169.1084   18212171.9664
 98  1 28 19 40 59.9910000  0  8  3 19 10 31 18 27  2 13
  21719189.852   -20050440.50149 -15611003.48349  21719189.9384   21719196.0394
  17976528.420   -28973587.66649 -22560303.42049  17976528.0094   17976532.4794
  21236426.717   -14602902.47949 -11355361.90949  21236425.6284   21236432.1804
  19065851.380   -35065747.37449 -27027629.57249  19065850.2274   19065855.2114
  18621510.176   -19240044.35249 -14959350.99649  18621509.9274   18621514.4864
  19167735.514   -33079512.19249 -25476007.49449  19167734.9634   19167739.3934
  20251005.520   -21808365.29549 -16654175.83349  20251004.7014   20251010.3754
  18195520.454   -29288543.05649 -22807550.94149  18195520.5834   18195523.4114
 98  1 28 19 41 29.9910000  0  8  3 19 10 31 18 27  2 13
  21725828.248   -20015555.73849 -15583820.61349  21725826.4134   21725835.5384
  17969232.883   -29011926.06749 -22590177.50649  17969232.4094   17969236.8354
  21229405.366   -14639800.01649 -11384113.26649  21229405.0294   21229410.9034
  19059672.482   -35098217.48349 -27052930.95149  19059671.9844   19059676.2904
  18628249.799   -19204627.60249 -14931753.56849  18628249.5614   18628254.0734
  19149316.529   -33176304.69849 -25551430.22749  19149316.1644   19149320.7234
  20231831.844   -21909123.75349 -16732688.89549  20231831.3254   20231836.1644
  18178964.010   -29375547.92249 -22875346.94049  18178964.1554   18178967.0024
 98  1 28 19 41 59.9910000  0  8  3 19 10 31 18 27  2 13
  21732540.474   -19980283.01249 -15556335.42349  21732541.4354   21732547.4344
  17961973.833   -29050072.81049 -22619902.24949  17961973.3554   17961977.8284
  21222486.436   -14676159.23749 -11412445.15949  21222485.3994   21222492.0444
  19053615.208   -35130049.03949 -27077734.76249  19053614.6774   19053619.1824
  18635065.702   -19168809.91349 -14903843.72349  18635065.4634   18635069.9884
  19130922.052   -33272968.60849 -25626752.74949  19130921.7384   19130926.1884
  20212708.882   -22009615.76349 -16810994.33749  20212708.3434   20212713.3424
  18162499.542   -29462069.27749 -22942766.17949  18162499.7934   18162502.3764
 98  1 28 19 42 29.9910000  0  8  3 19 10 31 18 27  2 13
  21739327.604   -19944616.91849 -15528543.72449  21739327.8964   21739334.2694
  17954754.638   -29088009.90449 -22649463.62749  17954754.1124   17954758.5834
  21215669.317   -14711983.63049 -11440360.30249  21215668.3884   21215673.9684
  19047681.500   -35161230.95749 -27102032.35649  19047680.7654   19047685.2074
  18641958.326   -19132589.02449 -14875619.69449  18641957.9614   18641962.3974
  19112551.357   -33369507.36049 -25701977.74749  19112550.7264   19112555.1004
  20193636.580   -22109841.62849 -16889092.38749  20193635.4874   20193641.3264
  18146126.274   -29548111.65249 -23009812.18549  18146126.2984   18146129.3474
 98  1 28 19 42 59.9910000  0  8  3 19 10 31 18 27  2 13
  21746190.595   -19908552.40549 -15500441.57749  21746190.0264   21746196.6894
  17947577.016   -29125728.27349 -22678854.57049  17947576.7214   17947581.0944
  21208956.291   -14747261.02749 -11467849.22449  21208955.5264   21208961.8574
  19041871.957   -35191760.32949 -27125821.47549  19041871.4474   19041875.6764
  18648927.720   -19095964.87549 -14847081.43549  18648927.3564   18648931.8494
  19094200.947   -33465939.53249 -25777119.70149  19094200.4904   19094204.9104
  20174616.513   -22209792.51649 -16966976.17249  20174615.7244   20174621.2884
  18129844.287   -29633673.91849 -23076484.08249  18129844.3904   18129847.2564
 98  1 28 19 43 29.9910000  0  8  3 19 10 31 18 27  2 13
  21753130.461   -19872084.10249 -15472024.77049  21753130.5514   21753136.3554
  17940442.573   -29163220.07349 -22708068.96849  17940442.1704   17940446.4664
  21202346.817   -14781994.04449 -11494913.93549  21202344.2034   21202352.3744
  19036185.697   -35221641.99449 -27149105.88949  19036185.1034   19036189.4984
  18655976.154   -19058925.20049 -14818219.39449  18655975.7774   18655980.4454
  19075869.077   -33562274.16249 -25852185.64249  19075868.6014   19075873.1944
  20155647.892   -22309473.29949 -17044649.49249  20155647.2264   20155652.2434
  18113651.383   -29718768.17949 -23142791.30449  18113651.3104   18113654.4734
 98  1 28 19 43 59.9910000  0  8  3 19 10 31 18 27  2 13
  21760146.838   -19835213.22349 -15443294.26649  21760145.9644   21760152.5164
  17933356.354   -29200458.48249 -22737085.91849  17933356.0064   17933360.5904
  21195839.293   -14816191.12349 -11521561.03749  21195839.0964   21195844.8634
  19030624.183   -35250868.03049 -27171879.42449  19030623.3844   19030627.9454
  18663108.487   -19021444.87549 -14789013.99249  18663108.2294   18663112.5454
  19057555.200   -33658514.33649 -25927177.98849  19057554.6994   19057559.2234
  20136730.745   -22408883.42849 -17122111.90949  20136729.5424   20136735.0914
  18097545.252   -29803406.45149 -23208743.20349  18097545.3804   18097548.2224
 98  1 28 19 44 29.9910000  0  8  3 19 10 31 18 27  2 13
  21767242.316   -19797926.36349 -15414239.63249  21767242.7714   21767248.9014
  17926319.978   -29237434.92649 -22765898.73349  17926319.4574   17926323.8064
  21189434.521   -14849848.54149 -11547787.63049  21189434.0304   21189440.0744
  19025185.909   -35279446.17749 -27194148.11549  19025184.8494   19025189.3084
  18670326.566   -18983513.89649 -14759457.42949  18670326.1824   18670330.7434
  19039260.583   -33754653.19049 -26002091.37849  19039260.0154   19039264.6484
  20117865.013   -22508023.52849 -17199363.91149  20117863.8734   20117869.4084
  18081526.670   -29887584.63549 -23274336.59249  18081526.7204   18081529.7694
 98  1 28 19 44 59.9910000  0  8  3 19 10 31 18 27  2 13
  21774408.147   -19760269.92149 -15384897.01149  21774407.9314   21774413.9324
  17919328.308   -29274176.47449 -22794528.51649  17919327.9374   17919332.4094
  21183126.977   -14882995.05949 -11573616.12349  21183126.4874   21183131.9774
  19019862.899   -35307418.85949 -27215945.01649  19019862.5434   19019866.6804
  18677624.379   -18945163.72949 -14729574.22949  18677624.0904   18677628.3334
  19020981.943   -33850708.24649 -26076939.47449  19020981.4894   19020986.0234
  20099042.005   -22606938.97249 -17276440.86449  20099041.1634   20099046.5154
  18065588.977   -29971337.53449 -23339598.59449  18065589.0334   18065591.8344
 98  1 28 19 45 29.9910000  0  8  3 19 10 31 18 27  2 13
  21781644.547   -19722242.48449 -15355265.32549  21781644.2914   21781650.4184
  17912384.401   -29310666.99549 -22822962.69549  17912383.9954   17912388.6024
  21176915.173   -14915638.41349 -11599052.52749  21176913.7684   21176921.0254
  19014656.218   -35334780.27549 -27237265.60349  19014655.6584   19014659.7144
  18685004.383   -18906381.82849 -14699354.60949  18685003.8714   18685008.6634
  19002724.851   -33946649.95049 -26151699.23549  19002724.1884   19002728.6724
  20080261.087   -22705632.94549 -17353345.23549  20080259.9454   20080265.6074
  18049735.820   -30054646.42749 -23404514.61749  18049735.9484   18049738.8374
 98  1 28 19 45 59.9910000  0  8  3 19 10 31 18 27  2 13
  21788951.178   -19683846.09249 -15325346.12649  21788950.9234   21788957.5534
  17905491.380   -29346890.12549 -22851188.52049  17905490.9874   17905495.4054
  21170800.133   -14947773.67549 -11624093.02949  21170799.2014   21170805.0124
  19009566.174   -35361528.79549 -27258108.61149  19009565.2724   19009569.9684
  18692464.342   -18867179.58549 -14668807.45349  18692464.2064   18692468.8064
  18984491.367   -34042467.50949 -26226362.26849  18984490.8104   18984495.3344
  20061523.400   -22804099.96249 -17430072.77149  20061522.7674   20061527.7194
  18033971.720   -30137487.26049 -23469065.92249  18033971.7814   18033974.7314
 98  1 28 19 46 29.9910000  0  8  3 19 10 31 18 27  2 13
  21796332.472   -19645057.41149 -15295121.27149  21796332.3534   21796339.5824
  17898656.172   -29382809.65549 -22879177.77049  17898655.8684   17898660.2604
  21164789.007   -14979362.99749 -11648708.12749  21164788.3024   21164794.1444
  19004598.780   -35387632.73149 -27278449.34149  19004598.0114   19004602.6094
  18700006.837   -18827543.64449 -14637922.35149  18700006.6254   18700010.9004
  18966290.460   -34138114.06749 -26300892.04949  18966290.0514   18966294.5724
  20042837.773   -22902293.91449 -17506587.51949  20042837.1234   20042842.2214
  18018306.893   -30219806.47549 -23533210.77249  18018306.6964   18018309.8444
 98  1 28 19 46 59.9910000  0  8  3 19 10 31 18 27  2 13
  21803781.628   -19605912.43049 -15264618.77249  21803780.9074   21803788.3494
  17891870.530   -29418468.46349 -22906963.86149  17891870.2164   17891874.5354
  21158873.748   -15010448.17749 -11672930.39249  21158872.9174   21158878.9334
  18999747.423   -35413127.06949 -27298315.05949  18999747.0694   18999751.0054
  18707623.249   -18787519.22949 -14606734.54049  18707622.6724   18707627.3114
  18948115.128   -34233626.03049 -26375316.94949  18948114.6834   18948119.0444
  20024198.227   -23000245.38749 -17582913.32649  20024197.1974   20024202.4994
  18002735.952   -30301632.32649 -23596971.18349  18002736.1054   18002738.9434
 98  1 28 19 47 29.9910000  0  8  3 19 10 31 18 27  2 13
  21811303.663   -19566383.95949 -15233817.45749  21811304.0184   21811310.4484
  17885135.820   -29453859.62349 -22934541.39249  17885135.5284   17885139.9224
  21153055.926   -15041020.84249 -11696753.28249  21153054.6054   21153061.9444
  18995015.463   -35437993.65549 -27317691.61949  18995014.5754   18995018.7814
  18715316.200   -18747092.53349 -14575233.26149  18715315.8864   18715320.5014
  18929966.952   -34328995.24049 -26449630.61549  18929966.4774   18929970.7874
  20005609.483   -23097929.82349 -17659031.05149  20005608.4154   20005613.9664
  17987263.083   -30382942.74349 -23660329.95549  17987263.0674   17987266.2014
 98  1 28 19 47 59.9910000  0  8  3 19 10 31 18 27  2 13
  21818894.547   -19526494.05449 -15202734.52449  21818893.6844   21818901.4884
  17878448.055   -29489004.11749 -22961926.72049  17878447.5784   17878452.0334
  21147333.070   -15071094.59349 -11720187.42049  21147332.3164   21147339.1454
  18990401.164   -35462241.72249 -27336586.21649  18990400.4694   18990404.9134
  18723081.955   -18706283.38549 -14543433.97149  18723081.7404   18723086.3094
  18911841.792   -34424243.81949 -26523850.28649  18911841.2354   18911845.5534
  19987070.550   -23195352.73049 -17734944.99649  19987069.9394   19987075.5744
  17971884.981   -30463755.20349 -23723300.71449  17971885.0934   17971888.1704
 98  1 28 19 48 29.9910000  0  8  3 19 10 31 18 27  2 13
  21826556.388   -19486230.03049 -15171360.05149  21826555.8704   21826564.2004
  17871804.922   -29523913.95349 -22989129.19449  17871804.2674   17871808.7414
  21141705.259   -15100669.19849 -11743232.60249  21141704.3734   21141710.8914
  18985907.325   -35485857.03149 -27354987.74549  18985906.5804   18985911.0264
  18730923.386   -18665076.50349 -14511324.75649  18730922.9624   18730927.2374
  18893741.716   -34519360.26049 -26597966.99049  18893741.4454   18893745.5074
  19968583.053   -23292505.21449 -17810648.21849  19968582.2784   19968587.7194
  17956600.861   -30544073.97349 -23785886.77349  17956601.0144   17956603.7204
 98  1 28 19 48 59.9910000  0  8  3 19 10 31 18 27  2 13
  21834288.678   -19445596.66649 -15139697.79849  21834287.7574   21834296.2354
  17865203.322   -29558605.50649 -23016161.57649  17865202.9574   17865207.4794
  21136171.839   -15129747.98449 -11765891.44249  21136170.9234   21136176.6254
  18981532.234   -35508848.07149 -27372902.83549  18981531.1994   18981536.1124
  18738841.379   -18623467.24349 -14478901.99749  18738841.1704   18738845.6404
  18875661.861   -34614370.42649 -26672000.88349  18875661.3224   18875665.6904
  19950144.010   -23389402.84549 -17886152.85249  19950143.2134   19950148.5984
  17941406.234   -30623922.06349 -23848106.07149  17941406.5134   17941409.4024
 98  1 28 19 49 29.9910000  0  8  3 19 10 31 18 27  2 13
  21842091.752   -19404592.21849 -15107746.38249  21842090.9054   21842100.4304
  17858645.432   -29593067.49049 -23043015.07649  17858645.1174   17858649.4784
  21130733.630   -15158325.77149 -11788159.89649  21130733.1684   21130739.4194
  18977277.212   -35531208.09149 -27390326.21749  18977276.1854   18977280.7874
  18746837.006   -18581449.98149 -14446161.31749  18746836.6954   18746841.6924
  18857602.449   -34709273.33449 -26745951.20449  18857602.0644   18857606.3074
  19931756.778   -23486028.27149 -17961445.38749  19931756.0424   19931761.5354
  17926303.486   -30703287.66649 -23909949.40549  17926303.6284   17926306.6634
 98  1 28 19 49 59.9910000  0  8  3 19 10 31 18 27  2 13
  21849964.117   -19363223.24949 -15075510.92749  21849963.8454   21849970.0324
  17852129.369   -29627309.61549 -23069697.25049  17852128.7984   17852133.2154
  21125390.547   -15186403.74649 -11810038.87249  21125389.6674   21125396.1664
  18973142.672   -35552934.93849 -27407256.20349  18973141.8674   18973146.2354
  18754907.944   -18539036.87249 -14413112.18149  18754907.6784   18754912.4624
  18839564.573   -34804063.06449 -26819813.32549  18839563.8514   18839568.5634
  19913421.615   -23582380.06749 -18036524.69949  19913420.6164   19913426.3764
  17911291.712   -30782175.24949 -23971420.24749  17911291.9114   17911294.6374
 98  1 28 19 50 29.9910000  0  8  3 19 10 31 18 27  2 13
  21857905.012   -19321493.19049 -15042994.07949  21857905.3174   21857911.3004
  17845656.718   -29661323.38349 -23096201.49049  17845656.3094   17845660.6424
  21120143.530   -15213977.15649 -11831524.68849  21120143.1794   21120149.6784
  18969128.730   -35574028.29149 -27423692.56849  18969128.4264   18969132.6914
  18763055.785   -18496219.72349 -14379748.21249  18763055.7974   18763060.3654
  18821549.567   -34898732.41749 -26893581.65549  18821549.2334   18821553.6194
  19895140.223   -23678449.28149 -18111383.82449  19895139.4824   19895145.1664
  17896372.847   -30860574.52749 -24032510.60049  17896372.9494   17896375.8584
 98  1 28 19 50 59.9910000  0  8  3 19 10 31 18 27  2 13
  21865914.492   -19279402.79149 -15010196.45149  21865914.5424   21865922.9514
  17839231.661   -29695087.35149 -23122511.08149  17839231.1874   17839235.7854
  21114994.017   -15241038.47349 -11852611.47149  21114992.9854   21114999.5164
  18965236.546   -35594482.14949 -27439630.61549  18965236.1004   18965240.2184
  18771281.877   -18452991.78649 -14346064.15249  18771281.9824   18771286.5114
  18803557.419   -34993281.71349 -26967256.43349  18803557.0084   18803561.6624
  19876914.540   -23774225.88649 -18186014.94449  19876913.6294   19876919.0914
  17881551.931   -30938458.94749 -24093199.75949  17881552.1994   17881554.8764
 98  1 28 19 51 29.9910000  0  8  3 19 10 31 18 27  2 13
  21873990.213   -19236965.09949 -14977128.18249  21873990.9214   21873996.4874
  17832855.268   -29728595.66149 -23148621.45749  17832854.8714   17832859.3044
  21109938.970   -15267603.10349 -11873311.23449  21109938.6644   21109943.9604
  18961465.068   -35614301.04249 -27455073.88649  18961464.3214   18961468.8524
  18779584.802   -18409359.78449 -14312065.22949  18779584.6144   18779589.2924
  18785591.066   -35087695.38049 -27040825.52749  18785590.6264   18785594.9414
  19858743.618   -23869714.73849 -18260421.84449  19858742.9684   19858748.2494
  17866830.030   -31015823.15349 -24153483.55649  17866830.0514   17866832.8134
 98  1 28 19 51 59.9910000  0  8  3 19 10 31 18 27  2 13
  21882130.541   -19194188.91349 -14943796.15849  21882130.7364   21882136.9644
  17826531.671   -29761826.33649 -23174515.49549  17826531.2894   17826535.7434
  21104983.111   -15293646.37549 -11893604.73849  21104982.3754   21104988.1604
  18957816.778   -35633472.79749 -27470012.89449  18957816.3874   18957820.3834
  18787968.710   -18365302.32849 -14277734.78349  18787968.8204   18787973.1184
  18767652.898   -35181961.02349 -27114279.27549  18767652.6344   18767657.0964
  19840626.228   -23964922.35849 -18334609.59849  19840625.3714   19840630.9384
  17852207.234   -31092666.42049 -24213361.42749  17852207.2844   17852210.1344
 98  1 28 19 52 29.9910000  0  8  3 19 10 31 18 27  2 13
  21890334.602   -19151077.63349 -14910203.01849  21890334.5874   21890341.0924
  17820262.392   -29794771.85449 -23200187.33549  17820261.9994   17820266.4244
  21100126.940   -15319165.69449 -11913489.96849  21100126.6964   21100133.0644
  18954289.605   -35652008.22949 -27484456.06949  18954288.9394   18954293.2864
  18796434.094   -18320816.95549 -14243070.90049  18796433.9104   18796438.3974
  18749738.949   -35276099.66449 -27187634.06549  18749738.7764   18749743.1684
  19822558.572   -24059868.14649 -18408593.32849  19822557.7194   19822563.2674
  17837682.878   -31168992.39049 -24272836.20949  17837682.9394   17837685.9824
 98  1 28 19 52 59.9910000  0  8  3 19 10 31 18 27  2 13
  21898603.718   -19107623.50949 -14876342.72849  21898603.6124   21898610.2914
  17814045.900   -29827439.78149 -23225642.87649  17814045.5334   17814050.0444
  21095369.832   -15344164.96649 -11932969.96549  21095369.2004   21095375.8014
  18950881.566   -35669917.75649 -27498411.52749  18950880.7484   18950884.7864
  18804979.164   -18275912.63449 -14208080.56349  18804978.9844   18804983.3754
  18731849.022   -35370112.07349 -27260890.48649  18731848.6014   18731853.0754
  19804536.023   -24154577.27949 -18482392.65849  19804535.3354   19804540.6694
  17823253.878   -31244817.39649 -24331920.62849  17823253.9584   17823256.8104
 98  1 28 19 53 29.9910000  0  8  3 19 10 31 18 27  2 13
  21906936.389   -19063835.44749 -14842222.21449  21906935.7744   21906942.5994
  17807880.106   -29859841.38649 -23250890.89149  17807879.5814   17807884.0984
  21090710.130   -15368651.76249 -11952050.63249  21090710.1254   21090715.8324
  18947589.637   -35687216.79249 -27511891.28249  18947588.8174   18947593.0574
  18813600.720   -18230606.12849 -14172776.83249  18813600.5354   18813604.7914
  18713982.526   -35464000.99149 -27334050.68549  18713982.1104   18713986.7124
  19786554.761   -24249069.54249 -18556022.98649  19786553.9044   19786559.5004
  17808917.167   -31320157.27149 -24390627.02549  17808917.3434   17808920.1144
 98  1 28 19 53 59.9910000  0  8  3 19 10 31 18 27  2 13
  21915336.778   -19019691.59549 -14807824.46749  21915336.3184   21915343.7684
  17801762.410   -29891990.10049 -23275941.84649  17801762.0174   17801766.3324
  21086147.298   -15392629.74249 -11970734.80949  21086146.5644   21086152.4984
  18944414.019   -35703904.52549 -27524894.70349  18944413.1464   18944417.4884
  18822297.317   -18184905.40949 -14137165.92349  18822296.9754   18822301.6454
  18696139.864   -35557764.90649 -27407113.47149  18696139.5724   18696143.8314
  19768616.731   -24343334.55049 -18629476.24249  19768616.0624   19768621.2884
  17794673.719   -31395007.15549 -24448951.60849  17794673.9044   17794676.6514
 98  1 28 19 54 29.9910000  0  8  3 19 10 31 18 27  2 13
  21923809.870   -18975165.66349 -14773129.00649  21923810.0124   21923816.2314
  17795689.260   -29923904.51449 -23300810.23249  17795688.8814   17795693.1134
  21081676.483   -15416124.88349 -11989042.75349  21081675.2204   21081682.7994
  18941353.896   -35719985.40049 -27537425.24549  18941353.1344   18941357.4554
  18831067.273   -18138819.30049 -14101254.70849  18831066.6844   18831071.0824
  18678323.029   -35651393.01849 -27480070.43549  18678322.4864   18678327.0644
  19750723.626   -24437363.41949 -18702745.49249  19750722.6194   19750728.3734
  17780524.488   -31469362.00549 -24506890.45449  17780524.6294   17780527.4874
 98  1 28 19 54 59.9910000  0  8  3 19 10 31 18 27  2 13
  21932355.552   -18930258.44249 -14738136.43849  21932356.4664   21932360.6754
  17789661.064   -29955582.93349 -23325494.72749  17789660.6544   17789665.0974
  21077293.669   -15439156.55449 -12006989.55649  21077292.4644   21077298.7424
  18938410.040   -35735455.46849 -27549479.84149  18938409.4424   18938413.8884
  18839908.040   -18092360.69149 -14065053.23249  18839907.7434   18839912.4304
  18660534.911   -35744870.08249 -27552909.69649  18660534.3614   18660538.5694
  19732879.776   -24531133.51749 -18775813.10049  19732879.1224   19732884.4474
  17766471.365   -31543211.71449 -24564435.68049  17766471.5584   17766474.3794
 98  1 28 19 55 29.9910000  0  7 19 10 31 18 27  2 13
  17783680.535   -29987010.90349 -23349984.06749  17783680.1244   17783684.5414
  21072999.101   -15461724.59849 -12024575.09149  21072998.6274   21073004.4624
  18935587.192   -35750289.60349 -27561038.90949  18935586.4464   18935590.7884
  18848820.159   -18045527.33249 -14028559.74749  18848820.0034   18848824.5964
  18642775.061   -35838198.57849 -27625633.19149  18642774.4764   18642778.8404
  19715089.036   -24624624.47049 -18848663.18849  19715088.2384   19715093.7844
  17752518.727   -31616533.35649 -24621569.43149  17752518.9474   17752521.5984
 98  1 28 19 55 59.9900000  0  7 19 10 31 18 27  2 13
  17777746.652   -30018193.61849 -23374282.29949  17777746.1524   17777750.6124
  21068791.620   -15483835.62949 -12041804.50849  21068790.4104   21068796.4734
  18932885.880   -35764485.16849 -27572100.39649  18932885.1664   18932889.4094
  18857803.108   -17998321.90849 -13991776.34249  18857802.3854   18857807.3274
  18625044.317   -35931374.25849 -27698237.60049  18625043.7614   18625048.1024
  19697351.143   -24717837.58149 -18921296.79149  19697349.9684   19697355.8974
  17738665.319   -31689333.35049 -24678296.69849  17738665.2684   17738668.2824
 98  1 28 19 56 29.9900000  0  7 19 10 31 18 27  2 13
  17771863.549   -30049109.60849 -23398372.69649  17771863.3254   17771867.7904
  21064672.782   -15505480.37249 -12058670.58449  21064672.3414   21064678.3454
  18930306.555   -35778039.63749 -27582662.33649  18930306.3224   18930310.6114
  18866857.369   -17950741.40549 -13954700.67149  18866857.1374   18866861.8254
  18607340.158   -36024410.02049 -27770732.99049  18607339.4274   18607344.1064
  19679662.021   -24810794.41849 -18993730.67749  19679661.5244   19679666.7564
  17724913.195   -31761601.07249 -24734609.21449  17724913.3084   17724916.1034
 98  1 28 19 56 59.9900000  0  7 19 10 31 18 27  2 13
  17766032.182   -30079753.88949 -23422251.37049  17766031.9424   17766036.2744
  21060644.426   -15526649.44649 -12075166.01949  21060643.3104   21060650.3374
  18927849.544   -35790951.55649 -27592723.58049  18927848.9834   18927852.9724
  18875981.190   -17902795.61149 -13917340.35749  18875981.0804   18875985.5944
  18589660.699   -36117316.02649 -27843127.26549  18589660.1264   18589664.7354
  19662021.337   -24903497.19749 -19065966.60949  19662020.6264   19662025.8164
  17711263.283   -31833331.89849 -24790503.36549  17711263.4874   17711266.3144
 98  1 28 19 57 29.9900000  0  7 19 10 31 18 27  2 13
  17760252.079   -30110128.64249 -23445920.02349  17760251.6444   17760256.1364
  21056710.722   -15547321.20049 -12091273.92549  21056709.7334   21056716.9824
  18925514.159   -35803224.06949 -27602286.59349  18925513.7194   18925518.0014
  18885174.634   -17854483.89149 -13879694.90149  18885174.1864   18885179.0794
  18572007.445   -36210084.66749 -27915414.50549  18572007.0574   18572011.3794
  19644426.000   -24995961.32149 -19138016.57149  19644425.3574   19644430.4304
  17697714.189   -31904532.99949 -24845984.74749  17697714.3974   17697717.2204
 98  1 28 19 57 59.9900000  0  7 19 10 31 18 27  2 13
  17754520.820   -30140246.63349 -23469388.60549  17754520.3314   17754524.7694
  21052870.947   -15567499.43849 -12106997.27249  21052870.2014   21052876.8394
  18923294.367   -35814889.09849 -27611376.24949  18923293.3974   18923297.7644
  18894435.862   -17805816.09049 -13841771.99049  18894435.5544   18894440.4354
  18554381.459   -36302710.11649 -27987590.16849  18554381.0594   18554385.2714
  19626877.051   -25088181.36649 -19209876.34549  19626876.3464   19626881.6494
  17684263.176   -31975218.50149 -24901064.36349  17684263.3094   17684266.1884
 98  1 28 19 58 29.9900000  0  7 19 10 31 18 27  2 13
  17748841.184   -30170093.30349 -23492645.76049  17748840.9134   17748845.3594
  21049127.812   -15587169.59549 -12122324.72449  21049126.6934   21049133.4144
  18921190.260   -35825946.10549 -27619992.12049  18921189.8434   18921194.2294
  18903764.153   -17756795.66449 -13803574.29649  18903763.8074   18903768.6514
  18536783.249   -36395189.49449 -28059652.00849  18536782.6124   18536786.9734
  19609378.764   -25180135.54549 -19281528.94449  19609377.8804   19609383.2494
  17670912.306   -32045377.81849 -24955733.96449  17670912.5024   17670915.2204
 98  1 28 19 58 59.9900000  0  7 19 10 31 18 27  2 13
  17743211.665   -30199676.64649 -23515697.72949  17743211.2604   17743215.9694
  21045481.482   -15606331.37449 -12137256.02249  21045481.4264   21045486.9984
  18919201.486   -35836397.24149 -27628135.88749  18919201.0204   18919205.0904
  18913159.452   -17707423.33049 -13765102.39749  18913159.0324   18913164.2254
  18519214.954   -36487511.62749 -28131591.31549  18519214.4154   18519218.5984
  19591934.248   -25271807.38149 -19352961.54449  19591933.4674   19591938.7854
  17657658.345   -32115028.01849 -25010006.84949  17657658.3474   17657661.2924
 98  1 28 19 59 29.9900000  0  7 19 10 31 18 27  2 13
  17737632.281   -30228996.54149 -23538544.41849  17737631.7334   17737636.5804
  21041930.027   -15624994.45549 -12151798.72349  21041929.0964   21041935.6174
  18917325.661   -35846254.98749 -27635817.27649  18917325.2784   18917329.8214
  18922619.599   -17657710.24349 -13726364.97649  18922619.6734   18922623.9774
  18501676.154   -36579678.53349 -28203409.67249  18501675.4174   18501680.1404
  19574540.794   -25363210.61349 -19424184.84149  19574540.0184   19574545.2644
  17644501.319   -32184168.66849 -25063882.68549  17644501.4464   17644504.2494
 98  1 28 19 59 59.9900000  0  7 19 10 31 18 27  2 13
  17732104.634   -30258044.54149 -23561179.23149  17732104.3704   17732108.8784
  21038473.129   -15643161.05949 -12165954.56049  21038472.9084   21038479.5044
  18915563.277   -35855516.41549 -27643034.00749  18915562.9784   18915567.4334
  18932146.453   -17607646.49749 -13687354.30549  18932146.2384   18932150.8074
  18484166.633   -36671691.55149 -28275108.11149  18484166.0984   18484170.4294
  19557200.808   -25454332.95249 -19495189.25649  19557199.9624   19557205.4434
  17631445.152   -32252779.34549 -25117345.55349  17631445.2744   17631448.0244
 98  1 28 20  0 29.9900000  0  7 19 10 31 18 27  2 13
  17726629.300   -30286817.82049 -23583599.98449  17726628.7504   17726633.3814
  21035109.496   -15660837.43349 -12179728.41249  21035108.7274   21035115.2474
  18913918.147   -35864161.78149 -27649770.68549  18913917.8074   18913921.7474
  18941741.110   -17557226.35949 -13648065.92649  18941740.8864   18941745.8084
  18466685.220   -36763556.74149 -28346691.36349  18466684.8104   18466688.9514
  19539911.671   -25545188.01649 -19565985.41049  19539910.8714   19539916.3084
  17618492.469   -32320846.18549 -25170384.65349  17618492.5914   17618495.3894
 98  1 28 20  0 59.9900000  0  7 19 10 31 18 27  2 13
  17721204.312   -30315326.41649 -23605814.48949  17721203.9164   17721208.3184
  21031834.807   -15678046.37849 -12193138.01349  21031834.0344   21031840.3874
  18912391.387   -35872185.09849 -27656022.65949  18912390.9344   18912395.2314
  18951405.013   -17506442.13549 -13608493.85249  18951404.4564   18951409.4234
  18449232.225   -36855272.75849 -28418158.37649  18449231.6734   18449236.0744
  19522671.454   -25635786.00749 -19636581.24849  19522670.5564   19522676.0664
  17605644.881   -32388360.72249 -25222993.38649  17605645.0764   17605647.8764
 98  1 28 20  1 29.9900000  0  7 19 10 31 18 27  2 13
  17715831.243   -30343561.93149 -23627816.19849  17715830.8854   17715835.6114
  21028647.979   -15694793.31449 -12206187.61349  21028647.1214   21028653.5114
  18910981.149   -35879596.06249 -27661797.46649  18910980.4114   18910985.2264
  18961138.919   -17455290.01649 -13568635.10349  18961138.5674   18961143.5804
  18431808.081   -36946837.42049 -28489507.44849  18431807.5554   18431812.2874
  19505480.192   -25726126.80249 -19706976.66849  19505479.1984   19505484.7054
  17592903.985   -32455314.77749 -25275165.37849  17592904.1664   17592906.8244
 98  1 28 20  1 59.9900000  0  7 19 10 31 18 27  2 13
  17710510.417   -30371523.14249 -23649604.17049  17710509.9594   17710514.5764
  21025547.275   -15711088.40649 -12218885.11649  21025546.3074   21025553.0704
  18909688.966   -35886386.41649 -27667088.68349  18909688.4554   18909692.7724
  18970945.191   -17403757.80049 -13528480.17649  18970944.8984   18970950.0984
  18414413.670   -37038245.49749 -28560734.50549  18414413.2674   18414417.5344
  19488341.047   -25816193.36649 -19777158.40749  19488339.9734   19488345.3284
  17580268.609   -32521714.05149 -25326905.07849  17580268.7234   17580271.5984
 98  1 28 20  2 29.9900000  0  7 19 10 31 18 27  2 13
  17705240.970   -30399214.36949 -23671181.76049  17705240.6274   17705245.1514
  21022528.207   -15726954.05549 -12231247.99849  21022528.0274   21022533.7674
  18908513.858   -35892561.67849 -27671900.60449  18908513.3294   18908517.5964
  18980822.608   -17351851.76049 -13488033.95249  18980822.4304   18980827.0864
  18397048.717   -37129498.93249 -28631841.06749  18397048.2694   18397052.4964
  19471251.481   -25905999.69049 -19847137.35849  19471250.4244   19471256.1554
  17567735.786   -32587574.64349 -25378225.02149  17567736.0194   17567738.8984
 98  1 28 20  2 59.9900000  0  7 19 10 31 18 27  2 13
  17700022.275   -30426638.82149 -23692551.47749  17700021.9604   17700026.4324
  21019591.507   -15742386.94249 -12243273.65749  21019590.3604   21019597.5374
  18907451.320   -35898145.28249 -27676251.49049  18907450.6844   18907455.3794
  18990767.916   -17299589.06949 -13447309.81949  18990767.4154   18990772.6024
  18379712.562   -37220600.93149 -28702829.62249  18379712.0504   18379716.4014
  19454210.214   -25995551.98649 -19916918.36249  19454209.5014   19454214.7824
  17555302.034   -32652914.71049 -25429139.36149  17555302.0374   17555304.9544
